<?xml version="1.0" encoding="UTF-8" standalone="no" ?>
<gpx xmlns="http://www.topografix.com/GPX/1/1" xmlns:xsi="http://www.w3.org/2001/XMLSchema-instance" xsi:schemaLocation="http://www.topografix.com/GPX/1/1 http://www.topografix.com/GPX/1/1/gpx.xsd" version="1.1" creator="VisuGPX - https://www.visugpx.com">
  <metadata>
    <name>circuit vélocio</name>
    <desc><![CDATA[facile, juste un peu compliqué pour ceux qui ont fait la bringue la veille]]></desc>
  </metadata>
  <trk>
    <name><![CDATA[circuit velocio]]></name>
    <trkseg>
      <trkpt lat="45.36825" lon="4.52806">
        <ele>1200.3</ele>
        <time>2015-06-28T07:16:07.000Z</time>
      </trkpt>
      <trkpt lat="45.36826" lon="4.52809">
        <ele>1200.3</ele>
        <time>2015-06-28T07:16:08.000Z</time>
      </trkpt>
      <trkpt lat="45.36838" lon="4.52829">
        <ele>1199.7</ele>
        <time>2015-06-28T07:16:14.000Z</time>
      </trkpt>
      <trkpt lat="45.36852" lon="4.52849">
        <ele>1199.6</ele>
        <time>2015-06-28T07:16:19.000Z</time>
      </trkpt>
      <trkpt lat="45.36855" lon="4.52863">
        <ele>1200.4</ele>
        <time>2015-06-28T07:16:24.000Z</time>
      </trkpt>
      <trkpt lat="45.36855" lon="4.52869">
        <ele>1200.7</ele>
        <time>2015-06-28T07:16:27.000Z</time>
      </trkpt>
      <trkpt lat="45.36859" lon="4.5288">
        <ele>1201.4</ele>
        <time>2015-06-28T07:16:32.000Z</time>
      </trkpt>
      <trkpt lat="45.36866" lon="4.52905">
        <ele>1203.8</ele>
        <time>2015-06-28T07:16:44.000Z</time>
      </trkpt>
      <trkpt lat="45.36871" lon="4.52932">
        <ele>1206.3</ele>
        <time>2015-06-28T07:16:56.000Z</time>
      </trkpt>
      <trkpt lat="45.36876" lon="4.52957">
        <ele>1208.7</ele>
        <time>2015-06-28T07:17:07.000Z</time>
      </trkpt>
      <trkpt lat="45.36883" lon="4.52981">
        <ele>1211.3</ele>
        <time>2015-06-28T07:17:20.000Z</time>
      </trkpt>
      <trkpt lat="45.36892" lon="4.53005">
        <ele>1213.7</ele>
        <time>2015-06-28T07:17:32.000Z</time>
      </trkpt>
      <trkpt lat="45.36906" lon="4.53022">
        <ele>1216.1</ele>
        <time>2015-06-28T07:17:45.000Z</time>
      </trkpt>
      <trkpt lat="45.36908" lon="4.53027">
        <ele>1216.6</ele>
        <time>2015-06-28T07:17:48.000Z</time>
      </trkpt>
      <trkpt lat="45.36911" lon="4.5304">
        <ele>1218</ele>
        <time>2015-06-28T07:17:55.000Z</time>
      </trkpt>
      <trkpt lat="45.3691" lon="4.53065">
        <ele>1220.5</ele>
        <time>2015-06-28T07:18:07.000Z</time>
      </trkpt>
      <trkpt lat="45.3691" lon="4.5307">
        <ele>1221</ele>
        <time>2015-06-28T07:18:10.000Z</time>
      </trkpt>
      <trkpt lat="45.36907" lon="4.53078">
        <ele>1221.5</ele>
        <time>2015-06-28T07:18:14.000Z</time>
      </trkpt>
      <trkpt lat="45.36908" lon="4.53085">
        <ele>1222.2</ele>
        <time>2015-06-28T07:18:18.000Z</time>
      </trkpt>
      <trkpt lat="45.36911" lon="4.5309">
        <ele>1222.9</ele>
        <time>2015-06-28T07:18:22.000Z</time>
      </trkpt>
      <trkpt lat="45.36913" lon="4.53099">
        <ele>1223.8</ele>
        <time>2015-06-28T07:18:30.000Z</time>
      </trkpt>
      <trkpt lat="45.36917" lon="4.53125">
        <ele>1226</ele>
        <time>2015-06-28T07:18:45.000Z</time>
      </trkpt>
      <trkpt lat="45.36921" lon="4.53137">
        <ele>1227.3</ele>
        <time>2015-06-28T07:18:52.000Z</time>
      </trkpt>
      <trkpt lat="45.36921" lon="4.53147">
        <ele>1228</ele>
        <time>2015-06-28T07:18:58.000Z</time>
      </trkpt>
      <trkpt lat="45.3692" lon="4.53153">
        <ele>1228.4</ele>
        <time>2015-06-28T07:19:02.000Z</time>
      </trkpt>
      <trkpt lat="45.3692" lon="4.53154">
        <ele>1228.4</ele>
        <time>2015-06-28T07:19:03.000Z</time>
      </trkpt>
      <trkpt lat="45.36924" lon="4.53177">
        <ele>1230.2</ele>
        <time>2015-06-28T07:19:17.000Z</time>
      </trkpt>
      <trkpt lat="45.3693" lon="4.53203">
        <ele>1232.6</ele>
        <time>2015-06-28T07:19:32.000Z</time>
      </trkpt>
      <trkpt lat="45.36931" lon="4.53216">
        <ele>1233.6</ele>
        <time>2015-06-28T07:19:38.000Z</time>
      </trkpt>
      <trkpt lat="45.36929" lon="4.53241">
        <ele>1235.2</ele>
        <time>2015-06-28T07:19:50.000Z</time>
      </trkpt>
      <trkpt lat="45.3693" lon="4.53249">
        <ele>1235.8</ele>
        <time>2015-06-28T07:19:54.000Z</time>
      </trkpt>
      <trkpt lat="45.36934" lon="4.53263">
        <ele>1236.6</ele>
        <time>2015-06-28T07:20:02.000Z</time>
      </trkpt>
      <trkpt lat="45.36939" lon="4.53273">
        <ele>1237.4</ele>
        <time>2015-06-28T07:20:08.000Z</time>
      </trkpt>
      <trkpt lat="45.3695" lon="4.53293">
        <ele>1240.2</ele>
        <time>2015-06-28T07:20:22.000Z</time>
      </trkpt>
      <trkpt lat="45.36955" lon="4.53305">
        <ele>1241.9</ele>
        <time>2015-06-28T07:20:29.000Z</time>
      </trkpt>
      <trkpt lat="45.36957" lon="4.53311">
        <ele>1242.6</ele>
        <time>2015-06-28T07:20:32.000Z</time>
      </trkpt>
      <trkpt lat="45.3696" lon="4.53318">
        <ele>1243.4</ele>
        <time>2015-06-28T07:20:37.000Z</time>
      </trkpt>
      <trkpt lat="45.36963" lon="4.53323">
        <ele>1243.9</ele>
        <time>2015-06-28T07:20:41.000Z</time>
      </trkpt>
      <trkpt lat="45.36968" lon="4.53332">
        <ele>1244.7</ele>
        <time>2015-06-28T07:20:48.000Z</time>
      </trkpt>
      <trkpt lat="45.36971" lon="4.53337">
        <ele>1245.2</ele>
        <time>2015-06-28T07:20:52.000Z</time>
      </trkpt>
      <trkpt lat="45.36972" lon="4.53342">
        <ele>1245.6</ele>
        <time>2015-06-28T07:20:55.000Z</time>
      </trkpt>
      <trkpt lat="45.3698" lon="4.53366">
        <ele>1247.4</ele>
        <time>2015-06-28T07:21:10.000Z</time>
      </trkpt>
      <trkpt lat="45.36988" lon="4.53379">
        <ele>1247.9</ele>
        <time>2015-06-28T07:21:20.000Z</time>
      </trkpt>
      <trkpt lat="45.36992" lon="4.53385">
        <ele>1248</ele>
        <time>2015-06-28T07:21:24.000Z</time>
      </trkpt>
      <trkpt lat="45.36992" lon="4.53386">
        <ele>1248</ele>
        <time>2015-06-28T07:21:25.000Z</time>
      </trkpt>
      <trkpt lat="45.36997" lon="4.53412">
        <ele>1248</ele>
        <time>2015-06-28T07:21:54.000Z</time>
      </trkpt>
      <trkpt lat="45.37003" lon="4.53425">
        <ele>1247.2</ele>
        <time>2015-06-28T07:22:00.000Z</time>
      </trkpt>
      <trkpt lat="45.37007" lon="4.53449">
        <ele>1245.2</ele>
        <time>2015-06-28T07:22:14.000Z</time>
      </trkpt>
      <trkpt lat="45.37017" lon="4.53473">
        <ele>1243.5</ele>
        <time>2015-06-28T07:22:21.000Z</time>
      </trkpt>
      <trkpt lat="45.37027" lon="4.53509">
        <ele>1239.6</ele>
        <time>2015-06-28T07:22:27.000Z</time>
      </trkpt>
      <trkpt lat="45.37029" lon="4.53517">
        <ele>1238.5</ele>
        <time>2015-06-28T07:22:28.000Z</time>
      </trkpt>
      <trkpt lat="45.37029" lon="4.53545">
        <ele>1237.1</ele>
        <time>2015-06-28T07:22:31.000Z</time>
      </trkpt>
      <trkpt lat="45.37028" lon="4.53553">
        <ele>1236.9</ele>
        <time>2015-06-28T07:22:32.000Z</time>
      </trkpt>
      <trkpt lat="45.37026" lon="4.53572">
        <ele>1236.7</ele>
        <time>2015-06-28T07:22:34.000Z</time>
      </trkpt>
      <trkpt lat="45.37021" lon="4.53598">
        <ele>1235.9</ele>
        <time>2015-06-28T07:22:37.000Z</time>
      </trkpt>
      <trkpt lat="45.37019" lon="4.53607">
        <ele>1235.8</ele>
        <time>2015-06-28T07:22:38.000Z</time>
      </trkpt>
      <trkpt lat="45.37013" lon="4.53637">
        <ele>1235.2</ele>
        <time>2015-06-28T07:22:42.000Z</time>
      </trkpt>
      <trkpt lat="45.3701" lon="4.53664">
        <ele>1234.7</ele>
        <time>2015-06-28T07:22:46.000Z</time>
      </trkpt>
      <trkpt lat="45.37009" lon="4.53671">
        <ele>1234.5</ele>
        <time>2015-06-28T07:22:47.000Z</time>
      </trkpt>
      <trkpt lat="45.37007" lon="4.53678">
        <ele>1234.5</ele>
        <time>2015-06-28T07:22:48.000Z</time>
      </trkpt>
      <trkpt lat="45.37001" lon="4.53705">
        <ele>1234.8</ele>
        <time>2015-06-28T07:22:52.000Z</time>
      </trkpt>
      <trkpt lat="45.36996" lon="4.53727">
        <ele>1235.4</ele>
        <time>2015-06-28T07:22:55.000Z</time>
      </trkpt>
      <trkpt lat="45.36993" lon="4.53757">
        <ele>1235.3</ele>
        <time>2015-06-28T07:22:59.000Z</time>
      </trkpt>
      <trkpt lat="45.36993" lon="4.53764">
        <ele>1235.1</ele>
        <time>2015-06-28T07:23:00.000Z</time>
      </trkpt>
      <trkpt lat="45.36994" lon="4.53794">
        <ele>1234.6</ele>
        <time>2015-06-28T07:23:04.000Z</time>
      </trkpt>
      <trkpt lat="45.36996" lon="4.53822">
        <ele>1234.9</ele>
        <time>2015-06-28T07:23:08.000Z</time>
      </trkpt>
      <trkpt lat="45.36999" lon="4.53849">
        <ele>1235</ele>
        <time>2015-06-28T07:23:12.000Z</time>
      </trkpt>
      <trkpt lat="45.37" lon="4.53861">
        <ele>1235</ele>
        <time>2015-06-28T07:23:14.000Z</time>
      </trkpt>
      <trkpt lat="45.36999" lon="4.53882">
        <ele>1234.3</ele>
        <time>2015-06-28T07:23:18.000Z</time>
      </trkpt>
      <trkpt lat="45.37001" lon="4.53907">
        <ele>1233.2</ele>
        <time>2015-06-28T07:23:22.000Z</time>
      </trkpt>
      <trkpt lat="45.37001" lon="4.53939">
        <ele>1230.5</ele>
        <time>2015-06-28T07:23:27.000Z</time>
      </trkpt>
      <trkpt lat="45.36998" lon="4.53969">
        <ele>1227.4</ele>
        <time>2015-06-28T07:23:30.000Z</time>
      </trkpt>
      <trkpt lat="45.36996" lon="4.53994">
        <ele>1225.4</ele>
        <time>2015-06-28T07:23:32.000Z</time>
      </trkpt>
      <trkpt lat="45.36992" lon="4.5402">
        <ele>1223.8</ele>
        <time>2015-06-28T07:23:34.000Z</time>
      </trkpt>
      <trkpt lat="45.3699" lon="4.54032">
        <ele>1223.3</ele>
        <time>2015-06-28T07:23:35.000Z</time>
      </trkpt>
      <trkpt lat="45.36984" lon="4.54066">
        <ele>1223.6</ele>
        <time>2015-06-28T07:23:38.000Z</time>
      </trkpt>
      <trkpt lat="45.36989" lon="4.54097">
        <ele>1223.4</ele>
        <time>2015-06-28T07:23:41.000Z</time>
      </trkpt>
      <trkpt lat="45.36991" lon="4.54106">
        <ele>1223.3</ele>
        <time>2015-06-28T07:23:42.000Z</time>
      </trkpt>
      <trkpt lat="45.36996" lon="4.54134">
        <ele>1223.1</ele>
        <time>2015-06-28T07:23:45.000Z</time>
      </trkpt>
      <trkpt lat="45.37" lon="4.54163">
        <ele>1222.1</ele>
        <time>2015-06-28T07:23:48.000Z</time>
      </trkpt>
      <trkpt lat="45.37001" lon="4.54172">
        <ele>1221.9</ele>
        <time>2015-06-28T07:23:49.000Z</time>
      </trkpt>
      <trkpt lat="45.37003" lon="4.54201">
        <ele>1221</ele>
        <time>2015-06-28T07:23:52.000Z</time>
      </trkpt>
      <trkpt lat="45.37003" lon="4.54221">
        <ele>1219</ele>
        <time>2015-06-28T07:23:54.000Z</time>
      </trkpt>
      <trkpt lat="45.37003" lon="4.54249">
        <ele>1217.8</ele>
        <time>2015-06-28T07:23:57.000Z</time>
      </trkpt>
      <trkpt lat="45.37006" lon="4.54263">
        <ele>1216.8</ele>
        <time>2015-06-28T07:23:59.000Z</time>
      </trkpt>
      <trkpt lat="45.37005" lon="4.54281">
        <ele>1216.1</ele>
        <time>2015-06-28T07:24:04.000Z</time>
      </trkpt>
      <trkpt lat="45.36988" lon="4.54289">
        <ele>1215.8</ele>
        <time>2015-06-28T07:24:15.000Z</time>
      </trkpt>
      <trkpt lat="45.36988" lon="4.54294">
        <ele>1215.9</ele>
        <time>2015-06-28T07:24:41.000Z</time>
      </trkpt>
      <trkpt lat="45.37001" lon="4.54309">
        <ele>1217.1</ele>
        <time>2015-06-28T07:24:50.000Z</time>
      </trkpt>
      <trkpt lat="45.3701" lon="4.54331">
        <ele>1217.9</ele>
        <time>2015-06-28T07:24:58.000Z</time>
      </trkpt>
      <trkpt lat="45.37015" lon="4.54344">
        <ele>1218.4</ele>
        <time>2015-06-28T07:25:05.000Z</time>
      </trkpt>
      <trkpt lat="45.37017" lon="4.54352">
        <ele>1218.7</ele>
        <time>2015-06-28T07:25:10.000Z</time>
      </trkpt>
      <trkpt lat="45.37028" lon="4.54371">
        <ele>1219.7</ele>
        <time>2015-06-28T07:25:17.000Z</time>
      </trkpt>
      <trkpt lat="45.37029" lon="4.54375">
        <ele>1219.9</ele>
        <time>2015-06-28T07:25:18.000Z</time>
      </trkpt>
      <trkpt lat="45.37042" lon="4.54395">
        <ele>1221.1</ele>
        <time>2015-06-28T07:25:25.000Z</time>
      </trkpt>
      <trkpt lat="45.37057" lon="4.54412">
        <ele>1222.4</ele>
        <time>2015-06-28T07:25:32.000Z</time>
      </trkpt>
      <trkpt lat="45.37075" lon="4.54424">
        <ele>1222.9</ele>
        <time>2015-06-28T07:25:39.000Z</time>
      </trkpt>
      <trkpt lat="45.3709" lon="4.54442">
        <ele>1223.5</ele>
        <time>2015-06-28T07:25:46.000Z</time>
      </trkpt>
      <trkpt lat="45.37102" lon="4.54462">
        <ele>1225.2</ele>
        <time>2015-06-28T07:25:54.000Z</time>
      </trkpt>
      <trkpt lat="45.37114" lon="4.54483">
        <ele>1227</ele>
        <time>2015-06-28T07:26:02.000Z</time>
      </trkpt>
      <trkpt lat="45.37115" lon="4.54484">
        <ele>1227.1</ele>
        <time>2015-06-28T07:26:03.000Z</time>
      </trkpt>
      <trkpt lat="45.37132" lon="4.54499">
        <ele>1228.1</ele>
        <time>2015-06-28T07:26:13.000Z</time>
      </trkpt>
      <trkpt lat="45.37133" lon="4.545">
        <ele>1228.2</ele>
        <time>2015-06-28T07:26:14.000Z</time>
      </trkpt>
      <trkpt lat="45.37152" lon="4.54508">
        <ele>1228.6</ele>
        <time>2015-06-28T07:26:22.000Z</time>
      </trkpt>
      <trkpt lat="45.37171" lon="4.54516">
        <ele>1228.8</ele>
        <time>2015-06-28T07:26:29.000Z</time>
      </trkpt>
      <trkpt lat="45.3719" lon="4.54513">
        <ele>1228.8</ele>
        <time>2015-06-28T07:26:39.000Z</time>
      </trkpt>
      <trkpt lat="45.37209" lon="4.54506">
        <ele>1229.6</ele>
        <time>2015-06-28T07:26:48.000Z</time>
      </trkpt>
      <trkpt lat="45.37225" lon="4.54496">
        <ele>1229.5</ele>
        <time>2015-06-28T07:26:59.000Z</time>
      </trkpt>
      <trkpt lat="45.37242" lon="4.54489">
        <ele>1229.7</ele>
        <time>2015-06-28T07:27:09.000Z</time>
      </trkpt>
      <trkpt lat="45.37258" lon="4.54491">
        <ele>1231.9</ele>
        <time>2015-06-28T07:27:15.000Z</time>
      </trkpt>
      <trkpt lat="45.37279" lon="4.54486">
        <ele>1234.1</ele>
        <time>2015-06-28T07:27:23.000Z</time>
      </trkpt>
      <trkpt lat="45.37288" lon="4.54487">
        <ele>1234.7</ele>
        <time>2015-06-28T07:27:26.000Z</time>
      </trkpt>
      <trkpt lat="45.37308" lon="4.54489">
        <ele>1236</ele>
        <time>2015-06-28T07:27:35.000Z</time>
      </trkpt>
      <trkpt lat="45.37324" lon="4.54491">
        <ele>1236.3</ele>
        <time>2015-06-28T07:27:43.000Z</time>
      </trkpt>
      <trkpt lat="45.37335" lon="4.5449">
        <ele>1236.2</ele>
        <time>2015-06-28T07:27:47.000Z</time>
      </trkpt>
      <trkpt lat="45.37353" lon="4.54497">
        <ele>1237.4</ele>
        <time>2015-06-28T07:27:57.000Z</time>
      </trkpt>
      <trkpt lat="45.3737" lon="4.54509">
        <ele>1239.3</ele>
        <time>2015-06-28T07:28:06.000Z</time>
      </trkpt>
      <trkpt lat="45.37388" lon="4.54519">
        <ele>1240.5</ele>
        <time>2015-06-28T07:28:15.000Z</time>
      </trkpt>
      <trkpt lat="45.37404" lon="4.54534">
        <ele>1241.8</ele>
        <time>2015-06-28T07:28:24.000Z</time>
      </trkpt>
      <trkpt lat="45.37421" lon="4.54548">
        <ele>1242.5</ele>
        <time>2015-06-28T07:28:32.000Z</time>
      </trkpt>
      <trkpt lat="45.37437" lon="4.54565">
        <ele>1242.6</ele>
        <time>2015-06-28T07:28:40.000Z</time>
      </trkpt>
      <trkpt lat="45.37451" lon="4.54583">
        <ele>1241.9</ele>
        <time>2015-06-28T07:28:48.000Z</time>
      </trkpt>
      <trkpt lat="45.37463" lon="4.54606">
        <ele>1241.3</ele>
        <time>2015-06-28T07:28:54.000Z</time>
      </trkpt>
      <trkpt lat="45.37472" lon="4.5463">
        <ele>1241.3</ele>
        <time>2015-06-28T07:28:59.000Z</time>
      </trkpt>
      <trkpt lat="45.3748" lon="4.54657">
        <ele>1240.8</ele>
        <time>2015-06-28T07:29:04.000Z</time>
      </trkpt>
      <trkpt lat="45.37486" lon="4.54683">
        <ele>1240.3</ele>
        <time>2015-06-28T07:29:09.000Z</time>
      </trkpt>
      <trkpt lat="45.37487" lon="4.54713">
        <ele>1240.7</ele>
        <time>2015-06-28T07:29:15.000Z</time>
      </trkpt>
      <trkpt lat="45.37486" lon="4.54725">
        <ele>1240.8</ele>
        <time>2015-06-28T07:29:17.000Z</time>
      </trkpt>
      <trkpt lat="45.3748" lon="4.54755">
        <ele>1240.7</ele>
        <time>2015-06-28T07:29:22.000Z</time>
      </trkpt>
      <trkpt lat="45.37471" lon="4.54781">
        <ele>1241</ele>
        <time>2015-06-28T07:29:27.000Z</time>
      </trkpt>
      <trkpt lat="45.37461" lon="4.54808">
        <ele>1240.5</ele>
        <time>2015-06-28T07:29:32.000Z</time>
      </trkpt>
      <trkpt lat="45.37447" lon="4.54833">
        <ele>1239.5</ele>
        <time>2015-06-28T07:29:37.000Z</time>
      </trkpt>
      <trkpt lat="45.37432" lon="4.54853">
        <ele>1239.7</ele>
        <time>2015-06-28T07:29:41.000Z</time>
      </trkpt>
      <trkpt lat="45.37423" lon="4.54867">
        <ele>1238.9</ele>
        <time>2015-06-28T07:29:43.000Z</time>
      </trkpt>
      <trkpt lat="45.37408" lon="4.54889">
        <ele>1237.7</ele>
        <time>2015-06-28T07:29:46.000Z</time>
      </trkpt>
      <trkpt lat="45.37397" lon="4.54906">
        <ele>1236.6</ele>
        <time>2015-06-28T07:29:48.000Z</time>
      </trkpt>
      <trkpt lat="45.37386" lon="4.54924">
        <ele>1235.2</ele>
        <time>2015-06-28T07:29:50.000Z</time>
      </trkpt>
      <trkpt lat="45.37376" lon="4.54948">
        <ele>1232.3</ele>
        <time>2015-06-28T07:29:52.000Z</time>
      </trkpt>
      <trkpt lat="45.37368" lon="4.54974">
        <ele>1229.9</ele>
        <time>2015-06-28T07:29:54.000Z</time>
      </trkpt>
      <trkpt lat="45.37363" lon="4.55002">
        <ele>1228.3</ele>
        <time>2015-06-28T07:29:56.000Z</time>
      </trkpt>
      <trkpt lat="45.37355" lon="4.55031">
        <ele>1227</ele>
        <time>2015-06-28T07:29:58.000Z</time>
      </trkpt>
      <trkpt lat="45.37352" lon="4.55043">
        <ele>1226.9</ele>
        <time>2015-06-28T07:29:59.000Z</time>
      </trkpt>
      <trkpt lat="45.37343" lon="4.55077">
        <ele>1225.9</ele>
        <time>2015-06-28T07:30:02.000Z</time>
      </trkpt>
      <trkpt lat="45.3734" lon="4.55085">
        <ele>1225.9</ele>
        <time>2015-06-28T07:30:03.000Z</time>
      </trkpt>
      <trkpt lat="45.37331" lon="4.55108">
        <ele>1226</ele>
        <time>2015-06-28T07:30:06.000Z</time>
      </trkpt>
      <trkpt lat="45.37323" lon="4.55127">
        <ele>1227.1</ele>
        <time>2015-06-28T07:30:09.000Z</time>
      </trkpt>
      <trkpt lat="45.37312" lon="4.55152">
        <ele>1227.4</ele>
        <time>2015-06-28T07:30:13.000Z</time>
      </trkpt>
      <trkpt lat="45.37303" lon="4.55176">
        <ele>1227.4</ele>
        <time>2015-06-28T07:30:17.000Z</time>
      </trkpt>
      <trkpt lat="45.37296" lon="4.552">
        <ele>1228.6</ele>
        <time>2015-06-28T07:30:21.000Z</time>
      </trkpt>
      <trkpt lat="45.37294" lon="4.55206">
        <ele>1229.1</ele>
        <time>2015-06-28T07:30:22.000Z</time>
      </trkpt>
      <trkpt lat="45.37292" lon="4.55218">
        <ele>1229.8</ele>
        <time>2015-06-28T07:30:24.000Z</time>
      </trkpt>
      <trkpt lat="45.37296" lon="4.55243">
        <ele>1230.4</ele>
        <time>2015-06-28T07:30:28.000Z</time>
      </trkpt>
      <trkpt lat="45.37302" lon="4.55265">
        <ele>1230.3</ele>
        <time>2015-06-28T07:30:32.000Z</time>
      </trkpt>
      <trkpt lat="45.37311" lon="4.55292">
        <ele>1230.6</ele>
        <time>2015-06-28T07:30:37.000Z</time>
      </trkpt>
      <trkpt lat="45.37314" lon="4.55297">
        <ele>1230.8</ele>
        <time>2015-06-28T07:30:38.000Z</time>
      </trkpt>
      <trkpt lat="45.37322" lon="4.55311">
        <ele>1230.9</ele>
        <time>2015-06-28T07:30:41.000Z</time>
      </trkpt>
      <trkpt lat="45.37329" lon="4.55324">
        <ele>1231.4</ele>
        <time>2015-06-28T07:30:44.000Z</time>
      </trkpt>
      <trkpt lat="45.37338" lon="4.55338">
        <ele>1232</ele>
        <time>2015-06-28T07:30:48.000Z</time>
      </trkpt>
      <trkpt lat="45.37348" lon="4.55357">
        <ele>1233.2</ele>
        <time>2015-06-28T07:30:53.000Z</time>
      </trkpt>
      <trkpt lat="45.3736" lon="4.55376">
        <ele>1233.3</ele>
        <time>2015-06-28T07:30:58.000Z</time>
      </trkpt>
      <trkpt lat="45.37372" lon="4.55401">
        <ele>1232.3</ele>
        <time>2015-06-28T07:31:04.000Z</time>
      </trkpt>
      <trkpt lat="45.37372" lon="4.55431">
        <ele>1231.8</ele>
        <time>2015-06-28T07:31:09.000Z</time>
      </trkpt>
      <trkpt lat="45.3737" lon="4.55438">
        <ele>1231.8</ele>
        <time>2015-06-28T07:31:10.000Z</time>
      </trkpt>
      <trkpt lat="45.3736" lon="4.55467">
        <ele>1231</ele>
        <time>2015-06-28T07:31:14.000Z</time>
      </trkpt>
      <trkpt lat="45.37357" lon="4.55474">
        <ele>1230.9</ele>
        <time>2015-06-28T07:31:15.000Z</time>
      </trkpt>
      <trkpt lat="45.37343" lon="4.55501">
        <ele>1229.2</ele>
        <time>2015-06-28T07:31:19.000Z</time>
      </trkpt>
      <trkpt lat="45.37329" lon="4.55528">
        <ele>1230.5</ele>
        <time>2015-06-28T07:31:23.000Z</time>
      </trkpt>
      <trkpt lat="45.37317" lon="4.55555">
        <ele>1231.7</ele>
        <time>2015-06-28T07:31:27.000Z</time>
      </trkpt>
      <trkpt lat="45.37316" lon="4.55562">
        <ele>1232.2</ele>
        <time>2015-06-28T07:31:28.000Z</time>
      </trkpt>
      <trkpt lat="45.37315" lon="4.55588">
        <ele>1233.1</ele>
        <time>2015-06-28T07:31:32.000Z</time>
      </trkpt>
      <trkpt lat="45.37319" lon="4.55605">
        <ele>1234.2</ele>
        <time>2015-06-28T07:31:35.000Z</time>
      </trkpt>
      <trkpt lat="45.37327" lon="4.55624">
        <ele>1233.9</ele>
        <time>2015-06-28T07:31:39.000Z</time>
      </trkpt>
      <trkpt lat="45.37337" lon="4.55643">
        <ele>1232.4</ele>
        <time>2015-06-28T07:31:43.000Z</time>
      </trkpt>
      <trkpt lat="45.37348" lon="4.55669">
        <ele>1232.6</ele>
        <time>2015-06-28T07:31:48.000Z</time>
      </trkpt>
      <trkpt lat="45.37358" lon="4.55698">
        <ele>1232.4</ele>
        <time>2015-06-28T07:31:53.000Z</time>
      </trkpt>
      <trkpt lat="45.37367" lon="4.55721">
        <ele>1231.2</ele>
        <time>2015-06-28T07:31:57.000Z</time>
      </trkpt>
      <trkpt lat="45.37377" lon="4.55746">
        <ele>1231.4</ele>
        <time>2015-06-28T07:32:01.000Z</time>
      </trkpt>
      <trkpt lat="45.37386" lon="4.55771">
        <ele>1230.6</ele>
        <time>2015-06-28T07:32:05.000Z</time>
      </trkpt>
      <trkpt lat="45.37388" lon="4.55778">
        <ele>1230.5</ele>
        <time>2015-06-28T07:32:06.000Z</time>
      </trkpt>
      <trkpt lat="45.3739" lon="4.55792">
        <ele>1230.8</ele>
        <time>2015-06-28T07:32:08.000Z</time>
      </trkpt>
      <trkpt lat="45.37392" lon="4.55821">
        <ele>1232.4</ele>
        <time>2015-06-28T07:32:12.000Z</time>
      </trkpt>
      <trkpt lat="45.37393" lon="4.55828">
        <ele>1232.7</ele>
        <time>2015-06-28T07:32:13.000Z</time>
      </trkpt>
      <trkpt lat="45.37395" lon="4.55834">
        <ele>1233</ele>
        <time>2015-06-28T07:32:14.000Z</time>
      </trkpt>
      <trkpt lat="45.37413" lon="4.55844">
        <ele>1235.5</ele>
        <time>2015-06-28T07:32:19.000Z</time>
      </trkpt>
      <trkpt lat="45.37427" lon="4.55828">
        <ele>1235.9</ele>
        <time>2015-06-28T07:32:24.000Z</time>
      </trkpt>
      <trkpt lat="45.37435" lon="4.55815">
        <ele>1236.4</ele>
        <time>2015-06-28T07:32:27.000Z</time>
      </trkpt>
      <trkpt lat="45.3744" lon="4.55808">
        <ele>1236.9</ele>
        <time>2015-06-28T07:32:29.000Z</time>
      </trkpt>
      <trkpt lat="45.37451" lon="4.55786">
        <ele>1237.5</ele>
        <time>2015-06-28T07:32:34.000Z</time>
      </trkpt>
      <trkpt lat="45.37454" lon="4.55782">
        <ele>1237.7</ele>
        <time>2015-06-28T07:32:35.000Z</time>
      </trkpt>
      <trkpt lat="45.37466" lon="4.55759">
        <ele>1238.2</ele>
        <time>2015-06-28T07:32:40.000Z</time>
      </trkpt>
      <trkpt lat="45.37468" lon="4.55755">
        <ele>1238.5</ele>
        <time>2015-06-28T07:32:41.000Z</time>
      </trkpt>
      <trkpt lat="45.37478" lon="4.55738">
        <ele>1238.3</ele>
        <time>2015-06-28T07:32:45.000Z</time>
      </trkpt>
      <trkpt lat="45.37493" lon="4.55718">
        <ele>1237.4</ele>
        <time>2015-06-28T07:32:50.000Z</time>
      </trkpt>
      <trkpt lat="45.37496" lon="4.55714">
        <ele>1237.4</ele>
        <time>2015-06-28T07:32:51.000Z</time>
      </trkpt>
      <trkpt lat="45.37505" lon="4.55703">
        <ele>1236.9</ele>
        <time>2015-06-28T07:32:54.000Z</time>
      </trkpt>
      <trkpt lat="45.37519" lon="4.55683">
        <ele>1235.9</ele>
        <time>2015-06-28T07:32:59.000Z</time>
      </trkpt>
      <trkpt lat="45.37535" lon="4.55661">
        <ele>1235.6</ele>
        <time>2015-06-28T07:33:04.000Z</time>
      </trkpt>
      <trkpt lat="45.37548" lon="4.55642">
        <ele>1234</ele>
        <time>2015-06-28T07:33:08.000Z</time>
      </trkpt>
      <trkpt lat="45.37559" lon="4.55627">
        <ele>1232.7</ele>
        <time>2015-06-28T07:33:11.000Z</time>
      </trkpt>
      <trkpt lat="45.37575" lon="4.55607">
        <ele>1232</ele>
        <time>2015-06-28T07:33:15.000Z</time>
      </trkpt>
      <trkpt lat="45.37579" lon="4.55602">
        <ele>1232.1</ele>
        <time>2015-06-28T07:33:16.000Z</time>
      </trkpt>
      <trkpt lat="45.37592" lon="4.55583">
        <ele>1232.4</ele>
        <time>2015-06-28T07:33:20.000Z</time>
      </trkpt>
      <trkpt lat="45.37608" lon="4.55568">
        <ele>1235.5</ele>
        <time>2015-06-28T07:33:24.000Z</time>
      </trkpt>
      <trkpt lat="45.37612" lon="4.55566">
        <ele>1236.1</ele>
        <time>2015-06-28T07:33:25.000Z</time>
      </trkpt>
      <trkpt lat="45.37629" lon="4.55563">
        <ele>1235.8</ele>
        <time>2015-06-28T07:33:29.000Z</time>
      </trkpt>
      <trkpt lat="45.37642" lon="4.55567">
        <ele>1235.9</ele>
        <time>2015-06-28T07:33:32.000Z</time>
      </trkpt>
      <trkpt lat="45.37659" lon="4.55583">
        <ele>1235.1</ele>
        <time>2015-06-28T07:33:36.000Z</time>
      </trkpt>
      <trkpt lat="45.37678" lon="4.55602">
        <ele>1234</ele>
        <time>2015-06-28T07:33:40.000Z</time>
      </trkpt>
      <trkpt lat="45.37683" lon="4.55607">
        <ele>1233.7</ele>
        <time>2015-06-28T07:33:41.000Z</time>
      </trkpt>
      <trkpt lat="45.37701" lon="4.55628">
        <ele>1232.3</ele>
        <time>2015-06-28T07:33:45.000Z</time>
      </trkpt>
      <trkpt lat="45.37716" lon="4.55646">
        <ele>1231.2</ele>
        <time>2015-06-28T07:33:48.000Z</time>
      </trkpt>
      <trkpt lat="45.37731" lon="4.55667">
        <ele>1229.4</ele>
        <time>2015-06-28T07:33:51.000Z</time>
      </trkpt>
      <trkpt lat="45.37747" lon="4.55689">
        <ele>1228.2</ele>
        <time>2015-06-28T07:33:54.000Z</time>
      </trkpt>
      <trkpt lat="45.37761" lon="4.55714">
        <ele>1227.7</ele>
        <time>2015-06-28T07:33:57.000Z</time>
      </trkpt>
      <trkpt lat="45.37776" lon="4.55738">
        <ele>1226.7</ele>
        <time>2015-06-28T07:34:00.000Z</time>
      </trkpt>
      <trkpt lat="45.37782" lon="4.55746">
        <ele>1226.5</ele>
        <time>2015-06-28T07:34:01.000Z</time>
      </trkpt>
      <trkpt lat="45.37799" lon="4.5576">
        <ele>1226.7</ele>
        <time>2015-06-28T07:34:05.000Z</time>
      </trkpt>
      <trkpt lat="45.378" lon="4.5576">
        <ele>1226.4</ele>
        <time>2015-06-28T07:34:06.000Z</time>
      </trkpt>
      <trkpt lat="45.37795" lon="4.55757">
        <ele>1226.8</ele>
        <time>2015-06-28T07:36:09.000Z</time>
      </trkpt>
      <trkpt lat="45.3781" lon="4.55766">
        <ele>1226</ele>
        <time>2015-06-28T07:37:18.000Z</time>
      </trkpt>
      <trkpt lat="45.37829" lon="4.5578">
        <ele>1225.4</ele>
        <time>2015-06-28T07:37:24.000Z</time>
      </trkpt>
      <trkpt lat="45.37833" lon="4.55783">
        <ele>1225.2</ele>
        <time>2015-06-28T07:37:25.000Z</time>
      </trkpt>
      <trkpt lat="45.37856" lon="4.55792">
        <ele>1224.9</ele>
        <time>2015-06-28T07:37:29.000Z</time>
      </trkpt>
      <trkpt lat="45.3786" lon="4.55794">
        <ele>1224.8</ele>
        <time>2015-06-28T07:37:30.000Z</time>
      </trkpt>
      <trkpt lat="45.37878" lon="4.55798">
        <ele>1223.6</ele>
        <time>2015-06-28T07:37:33.000Z</time>
      </trkpt>
      <trkpt lat="45.37898" lon="4.55804">
        <ele>1222.5</ele>
        <time>2015-06-28T07:37:36.000Z</time>
      </trkpt>
      <trkpt lat="45.37919" lon="4.55812">
        <ele>1220.9</ele>
        <time>2015-06-28T07:37:39.000Z</time>
      </trkpt>
      <trkpt lat="45.37926" lon="4.55816">
        <ele>1220.8</ele>
        <time>2015-06-28T07:37:40.000Z</time>
      </trkpt>
      <trkpt lat="45.37947" lon="4.55831">
        <ele>1220.5</ele>
        <time>2015-06-28T07:37:43.000Z</time>
      </trkpt>
      <trkpt lat="45.37969" lon="4.55847">
        <ele>1219.5</ele>
        <time>2015-06-28T07:37:46.000Z</time>
      </trkpt>
      <trkpt lat="45.37975" lon="4.55853">
        <ele>1219.5</ele>
        <time>2015-06-28T07:37:47.000Z</time>
      </trkpt>
      <trkpt lat="45.37995" lon="4.55871">
        <ele>1218.7</ele>
        <time>2015-06-28T07:37:50.000Z</time>
      </trkpt>
      <trkpt lat="45.38015" lon="4.55888">
        <ele>1219</ele>
        <time>2015-06-28T07:37:53.000Z</time>
      </trkpt>
      <trkpt lat="45.38021" lon="4.55893">
        <ele>1219.1</ele>
        <time>2015-06-28T07:37:54.000Z</time>
      </trkpt>
      <trkpt lat="45.38042" lon="4.55906">
        <ele>1219.7</ele>
        <time>2015-06-28T07:37:57.000Z</time>
      </trkpt>
      <trkpt lat="45.3805" lon="4.55909">
        <ele>1219.2</ele>
        <time>2015-06-28T07:37:58.000Z</time>
      </trkpt>
      <trkpt lat="45.38075" lon="4.55912">
        <ele>1216.2</ele>
        <time>2015-06-28T07:38:01.000Z</time>
      </trkpt>
      <trkpt lat="45.38098" lon="4.55916">
        <ele>1213</ele>
        <time>2015-06-28T07:38:04.000Z</time>
      </trkpt>
      <trkpt lat="45.38106" lon="4.55919">
        <ele>1212.3</ele>
        <time>2015-06-28T07:38:05.000Z</time>
      </trkpt>
      <trkpt lat="45.38113" lon="4.55922">
        <ele>1212</ele>
        <time>2015-06-28T07:38:06.000Z</time>
      </trkpt>
      <trkpt lat="45.38136" lon="4.55923">
        <ele>1212.2</ele>
        <time>2015-06-28T07:38:09.000Z</time>
      </trkpt>
      <trkpt lat="45.38151" lon="4.55915">
        <ele>1210.4</ele>
        <time>2015-06-28T07:38:11.000Z</time>
      </trkpt>
      <trkpt lat="45.38165" lon="4.55907">
        <ele>1209.2</ele>
        <time>2015-06-28T07:38:13.000Z</time>
      </trkpt>
      <trkpt lat="45.38189" lon="4.55904">
        <ele>1206.9</ele>
        <time>2015-06-28T07:38:16.000Z</time>
      </trkpt>
      <trkpt lat="45.38204" lon="4.55905">
        <ele>1205.7</ele>
        <time>2015-06-28T07:38:18.000Z</time>
      </trkpt>
      <trkpt lat="45.38228" lon="4.55907">
        <ele>1203.5</ele>
        <time>2015-06-28T07:38:21.000Z</time>
      </trkpt>
      <trkpt lat="45.38252" lon="4.55911">
        <ele>1202.1</ele>
        <time>2015-06-28T07:38:24.000Z</time>
      </trkpt>
      <trkpt lat="45.38276" lon="4.55916">
        <ele>1201.9</ele>
        <time>2015-06-28T07:38:27.000Z</time>
      </trkpt>
      <trkpt lat="45.383" lon="4.5592">
        <ele>1200.2</ele>
        <time>2015-06-28T07:38:30.000Z</time>
      </trkpt>
      <trkpt lat="45.38324" lon="4.55925">
        <ele>1198.4</ele>
        <time>2015-06-28T07:38:33.000Z</time>
      </trkpt>
      <trkpt lat="45.38348" lon="4.55929">
        <ele>1196.4</ele>
        <time>2015-06-28T07:38:36.000Z</time>
      </trkpt>
      <trkpt lat="45.38364" lon="4.55934">
        <ele>1195.1</ele>
        <time>2015-06-28T07:38:38.000Z</time>
      </trkpt>
      <trkpt lat="45.38385" lon="4.55944">
        <ele>1194.5</ele>
        <time>2015-06-28T07:38:41.000Z</time>
      </trkpt>
      <trkpt lat="45.38402" lon="4.55954">
        <ele>1193.8</ele>
        <time>2015-06-28T07:38:44.000Z</time>
      </trkpt>
      <trkpt lat="45.3842" lon="4.55971">
        <ele>1195.5</ele>
        <time>2015-06-28T07:38:49.000Z</time>
      </trkpt>
      <trkpt lat="45.38436" lon="4.55994">
        <ele>1196.4</ele>
        <time>2015-06-28T07:38:53.000Z</time>
      </trkpt>
      <trkpt lat="45.38445" lon="4.56007">
        <ele>1196.7</ele>
        <time>2015-06-28T07:38:55.000Z</time>
      </trkpt>
      <trkpt lat="45.38458" lon="4.56027">
        <ele>1195.9</ele>
        <time>2015-06-28T07:38:58.000Z</time>
      </trkpt>
      <trkpt lat="45.38473" lon="4.56048">
        <ele>1194.3</ele>
        <time>2015-06-28T07:39:01.000Z</time>
      </trkpt>
      <trkpt lat="45.38476" lon="4.56057">
        <ele>1194.3</ele>
        <time>2015-06-28T07:39:02.000Z</time>
      </trkpt>
      <trkpt lat="45.38489" lon="4.56081">
        <ele>1192.4</ele>
        <time>2015-06-28T07:39:05.000Z</time>
      </trkpt>
      <trkpt lat="45.38501" lon="4.56108">
        <ele>1190.1</ele>
        <time>2015-06-28T07:39:08.000Z</time>
      </trkpt>
      <trkpt lat="45.38511" lon="4.56137">
        <ele>1187.2</ele>
        <time>2015-06-28T07:39:11.000Z</time>
      </trkpt>
      <trkpt lat="45.38514" lon="4.56148">
        <ele>1185.8</ele>
        <time>2015-06-28T07:39:12.000Z</time>
      </trkpt>
      <trkpt lat="45.38519" lon="4.56173">
        <ele>1183.6</ele>
        <time>2015-06-28T07:39:14.000Z</time>
      </trkpt>
      <trkpt lat="45.38525" lon="4.56197">
        <ele>1182.6</ele>
        <time>2015-06-28T07:39:16.000Z</time>
      </trkpt>
      <trkpt lat="45.38534" lon="4.56231">
        <ele>1181.3</ele>
        <time>2015-06-28T07:39:19.000Z</time>
      </trkpt>
      <trkpt lat="45.38544" lon="4.56261">
        <ele>1179.2</ele>
        <time>2015-06-28T07:39:22.000Z</time>
      </trkpt>
      <trkpt lat="45.38552" lon="4.56293">
        <ele>1178.2</ele>
        <time>2015-06-28T07:39:25.000Z</time>
      </trkpt>
      <trkpt lat="45.38559" lon="4.56314">
        <ele>1178.4</ele>
        <time>2015-06-28T07:39:27.000Z</time>
      </trkpt>
      <trkpt lat="45.38566" lon="4.56332">
        <ele>1178</ele>
        <time>2015-06-28T07:39:29.000Z</time>
      </trkpt>
      <trkpt lat="45.3857" lon="4.5635">
        <ele>1176.4</ele>
        <time>2015-06-28T07:39:31.000Z</time>
      </trkpt>
      <trkpt lat="45.38576" lon="4.56376">
        <ele>1178.9</ele>
        <time>2015-06-28T07:39:34.000Z</time>
      </trkpt>
      <trkpt lat="45.38594" lon="4.56382">
        <ele>1179.9</ele>
        <time>2015-06-28T07:39:38.000Z</time>
      </trkpt>
      <trkpt lat="45.38603" lon="4.5638">
        <ele>1178.5</ele>
        <time>2015-06-28T07:39:40.000Z</time>
      </trkpt>
      <trkpt lat="45.38624" lon="4.56375">
        <ele>1177.5</ele>
        <time>2015-06-28T07:39:44.000Z</time>
      </trkpt>
      <trkpt lat="45.3863" lon="4.56374">
        <ele>1177.3</ele>
        <time>2015-06-28T07:39:45.000Z</time>
      </trkpt>
      <trkpt lat="45.38648" lon="4.56365">
        <ele>1176.3</ele>
        <time>2015-06-28T07:39:48.000Z</time>
      </trkpt>
      <trkpt lat="45.38659" lon="4.56357">
        <ele>1175.4</ele>
        <time>2015-06-28T07:39:50.000Z</time>
      </trkpt>
      <trkpt lat="45.38677" lon="4.56343">
        <ele>1174</ele>
        <time>2015-06-28T07:39:53.000Z</time>
      </trkpt>
      <trkpt lat="45.38696" lon="4.56328">
        <ele>1173.2</ele>
        <time>2015-06-28T07:39:56.000Z</time>
      </trkpt>
      <trkpt lat="45.38702" lon="4.56325">
        <ele>1172.4</ele>
        <time>2015-06-28T07:39:57.000Z</time>
      </trkpt>
      <trkpt lat="45.38721" lon="4.56319">
        <ele>1172.6</ele>
        <time>2015-06-28T07:40:00.000Z</time>
      </trkpt>
      <trkpt lat="45.38744" lon="4.56327">
        <ele>1169.3</ele>
        <time>2015-06-28T07:40:04.000Z</time>
      </trkpt>
      <trkpt lat="45.38755" lon="4.56337">
        <ele>1169</ele>
        <time>2015-06-28T07:40:06.000Z</time>
      </trkpt>
      <trkpt lat="45.38759" lon="4.56343">
        <ele>1169.5</ele>
        <time>2015-06-28T07:40:07.000Z</time>
      </trkpt>
      <trkpt lat="45.38775" lon="4.56358">
        <ele>1169</ele>
        <time>2015-06-28T07:40:10.000Z</time>
      </trkpt>
      <trkpt lat="45.38791" lon="4.56372">
        <ele>1169.6</ele>
        <time>2015-06-28T07:40:13.000Z</time>
      </trkpt>
      <trkpt lat="45.38797" lon="4.56376">
        <ele>1169.3</ele>
        <time>2015-06-28T07:40:14.000Z</time>
      </trkpt>
      <trkpt lat="45.38803" lon="4.5638">
        <ele>1168.5</ele>
        <time>2015-06-28T07:40:15.000Z</time>
      </trkpt>
      <trkpt lat="45.3882" lon="4.5639">
        <ele>1167.8</ele>
        <time>2015-06-28T07:40:18.000Z</time>
      </trkpt>
      <trkpt lat="45.38825" lon="4.56394">
        <ele>1167.8</ele>
        <time>2015-06-28T07:40:19.000Z</time>
      </trkpt>
      <trkpt lat="45.38842" lon="4.56411">
        <ele>1167.1</ele>
        <time>2015-06-28T07:40:23.000Z</time>
      </trkpt>
      <trkpt lat="45.38851" lon="4.5642">
        <ele>1166.9</ele>
        <time>2015-06-28T07:40:25.000Z</time>
      </trkpt>
      <trkpt lat="45.38864" lon="4.56431">
        <ele>1167.4</ele>
        <time>2015-06-28T07:40:28.000Z</time>
      </trkpt>
      <trkpt lat="45.3888" lon="4.56433">
        <ele>1169.7</ele>
        <time>2015-06-28T07:40:32.000Z</time>
      </trkpt>
      <trkpt lat="45.3889" lon="4.5643">
        <ele>1170</ele>
        <time>2015-06-28T07:40:35.000Z</time>
      </trkpt>
      <trkpt lat="45.38908" lon="4.5643">
        <ele>1171.5</ele>
        <time>2015-06-28T07:40:41.000Z</time>
      </trkpt>
      <trkpt lat="45.38926" lon="4.56425">
        <ele>1172.5</ele>
        <time>2015-06-28T07:40:47.000Z</time>
      </trkpt>
      <trkpt lat="45.38943" lon="4.56415">
        <ele>1172</ele>
        <time>2015-06-28T07:40:55.000Z</time>
      </trkpt>
      <trkpt lat="45.38962" lon="4.56407">
        <ele>1173.5</ele>
        <time>2015-06-28T07:41:03.000Z</time>
      </trkpt>
      <trkpt lat="45.38982" lon="4.56402">
        <ele>1174.8</ele>
        <time>2015-06-28T07:41:11.000Z</time>
      </trkpt>
      <trkpt lat="45.39002" lon="4.56399">
        <ele>1176.1</ele>
        <time>2015-06-28T07:41:19.000Z</time>
      </trkpt>
      <trkpt lat="45.39021" lon="4.56398">
        <ele>1176.9</ele>
        <time>2015-06-28T07:41:27.000Z</time>
      </trkpt>
      <trkpt lat="45.39023" lon="4.56398">
        <ele>1176.9</ele>
        <time>2015-06-28T07:41:28.000Z</time>
      </trkpt>
      <trkpt lat="45.39044" lon="4.564">
        <ele>1178.2</ele>
        <time>2015-06-28T07:41:35.000Z</time>
      </trkpt>
      <trkpt lat="45.39051" lon="4.564">
        <ele>1178.2</ele>
        <time>2015-06-28T07:41:37.000Z</time>
      </trkpt>
      <trkpt lat="45.39069" lon="4.56396">
        <ele>1178.3</ele>
        <time>2015-06-28T07:41:42.000Z</time>
      </trkpt>
      <trkpt lat="45.3909" lon="4.56393">
        <ele>1178.9</ele>
        <time>2015-06-28T07:41:49.000Z</time>
      </trkpt>
      <trkpt lat="45.39111" lon="4.56392">
        <ele>1179.5</ele>
        <time>2015-06-28T07:41:57.000Z</time>
      </trkpt>
      <trkpt lat="45.3913" lon="4.56389">
        <ele>1178.6</ele>
        <time>2015-06-28T07:42:05.000Z</time>
      </trkpt>
      <trkpt lat="45.3915" lon="4.5639">
        <ele>1179.2</ele>
        <time>2015-06-28T07:42:15.000Z</time>
      </trkpt>
      <trkpt lat="45.3917" lon="4.5639">
        <ele>1178.9</ele>
        <time>2015-06-28T07:42:23.000Z</time>
      </trkpt>
      <trkpt lat="45.39189" lon="4.56389">
        <ele>1179.7</ele>
        <time>2015-06-28T07:42:31.000Z</time>
      </trkpt>
      <trkpt lat="45.39208" lon="4.56388">
        <ele>1181.2</ele>
        <time>2015-06-28T07:42:41.000Z</time>
      </trkpt>
      <trkpt lat="45.39227" lon="4.5639">
        <ele>1182.9</ele>
        <time>2015-06-28T07:42:49.000Z</time>
      </trkpt>
      <trkpt lat="45.39246" lon="4.56393">
        <ele>1182.7</ele>
        <time>2015-06-28T07:42:57.000Z</time>
      </trkpt>
      <trkpt lat="45.39265" lon="4.56393">
        <ele>1182.5</ele>
        <time>2015-06-28T07:43:07.000Z</time>
      </trkpt>
      <trkpt lat="45.39284" lon="4.56401">
        <ele>1184.2</ele>
        <time>2015-06-28T07:43:16.000Z</time>
      </trkpt>
      <trkpt lat="45.39302" lon="4.56409">
        <ele>1186.6</ele>
        <time>2015-06-28T07:43:23.000Z</time>
      </trkpt>
      <trkpt lat="45.3932" lon="4.56421">
        <ele>1189.1</ele>
        <time>2015-06-28T07:43:31.000Z</time>
      </trkpt>
      <trkpt lat="45.39323" lon="4.56423">
        <ele>1189.4</ele>
        <time>2015-06-28T07:43:32.000Z</time>
      </trkpt>
      <trkpt lat="45.39341" lon="4.56437">
        <ele>1190.7</ele>
        <time>2015-06-28T07:43:40.000Z</time>
      </trkpt>
      <trkpt lat="45.39343" lon="4.56438">
        <ele>1190.8</ele>
        <time>2015-06-28T07:43:41.000Z</time>
      </trkpt>
      <trkpt lat="45.39357" lon="4.56456">
        <ele>1191.9</ele>
        <time>2015-06-28T07:43:50.000Z</time>
      </trkpt>
      <trkpt lat="45.39369" lon="4.56476">
        <ele>1190.2</ele>
        <time>2015-06-28T07:43:58.000Z</time>
      </trkpt>
      <trkpt lat="45.39373" lon="4.56502">
        <ele>1190.2</ele>
        <time>2015-06-28T07:44:04.000Z</time>
      </trkpt>
      <trkpt lat="45.39372" lon="4.56529">
        <ele>1190.3</ele>
        <time>2015-06-28T07:44:09.000Z</time>
      </trkpt>
      <trkpt lat="45.39371" lon="4.56557">
        <ele>1191.1</ele>
        <time>2015-06-28T07:44:15.000Z</time>
      </trkpt>
      <trkpt lat="45.39368" lon="4.56586">
        <ele>1191.7</ele>
        <time>2015-06-28T07:44:21.000Z</time>
      </trkpt>
      <trkpt lat="45.39364" lon="4.56616">
        <ele>1191.8</ele>
        <time>2015-06-28T07:44:27.000Z</time>
      </trkpt>
      <trkpt lat="45.3936" lon="4.56645">
        <ele>1192.9</ele>
        <time>2015-06-28T07:44:33.000Z</time>
      </trkpt>
      <trkpt lat="45.39353" lon="4.56673">
        <ele>1192.3</ele>
        <time>2015-06-28T07:44:39.000Z</time>
      </trkpt>
      <trkpt lat="45.39343" lon="4.56696">
        <ele>1193.7</ele>
        <time>2015-06-28T07:44:45.000Z</time>
      </trkpt>
      <trkpt lat="45.39333" lon="4.56718">
        <ele>1195.5</ele>
        <time>2015-06-28T07:44:52.000Z</time>
      </trkpt>
      <trkpt lat="45.39323" lon="4.56741">
        <ele>1195.9</ele>
        <time>2015-06-28T07:45:00.000Z</time>
      </trkpt>
      <trkpt lat="45.39319" lon="4.56765">
        <ele>1197.7</ele>
        <time>2015-06-28T07:45:08.000Z</time>
      </trkpt>
      <trkpt lat="45.39332" lon="4.56781">
        <ele>1200</ele>
        <time>2015-06-28T07:45:18.000Z</time>
      </trkpt>
      <trkpt lat="45.39352" lon="4.56781">
        <ele>1200.6</ele>
        <time>2015-06-28T07:45:27.000Z</time>
      </trkpt>
      <trkpt lat="45.39371" lon="4.56785">
        <ele>1202.5</ele>
        <time>2015-06-28T07:45:36.000Z</time>
      </trkpt>
      <trkpt lat="45.3939" lon="4.56783">
        <ele>1203.5</ele>
        <time>2015-06-28T07:45:45.000Z</time>
      </trkpt>
      <trkpt lat="45.39395" lon="4.56783">
        <ele>1203.6</ele>
        <time>2015-06-28T07:45:47.000Z</time>
      </trkpt>
      <trkpt lat="45.39414" lon="4.56778">
        <ele>1203</ele>
        <time>2015-06-28T07:45:56.000Z</time>
      </trkpt>
      <trkpt lat="45.39416" lon="4.56779">
        <ele>1203.2</ele>
        <time>2015-06-28T07:45:57.000Z</time>
      </trkpt>
      <trkpt lat="45.39422" lon="4.56781">
        <ele>1205</ele>
        <time>2015-06-28T07:46:00.000Z</time>
      </trkpt>
      <trkpt lat="45.39417" lon="4.56783">
        <ele>1204.6</ele>
        <time>2015-06-28T07:46:12.000Z</time>
      </trkpt>
      <trkpt lat="45.39415" lon="4.56785">
        <ele>1205</ele>
        <time>2015-06-28T07:46:13.000Z</time>
      </trkpt>
      <trkpt lat="45.39399" lon="4.56799">
        <ele>1207.9</ele>
        <time>2015-06-28T07:46:22.000Z</time>
      </trkpt>
      <trkpt lat="45.39381" lon="4.5681">
        <ele>1209.6</ele>
        <time>2015-06-28T07:46:33.000Z</time>
      </trkpt>
      <trkpt lat="45.39377" lon="4.56813">
        <ele>1210.3</ele>
        <time>2015-06-28T07:46:36.000Z</time>
      </trkpt>
      <trkpt lat="45.39368" lon="4.56824">
        <ele>1212.9</ele>
        <time>2015-06-28T07:47:09.000Z</time>
      </trkpt>
      <trkpt lat="45.39356" lon="4.56844">
        <ele>1218.2</ele>
        <time>2015-06-28T07:47:38.000Z</time>
      </trkpt>
      <trkpt lat="45.39347" lon="4.56859">
        <ele>1222.4</ele>
        <time>2015-06-28T07:48:00.000Z</time>
      </trkpt>
      <trkpt lat="45.39335" lon="4.56878">
        <ele>1227.3</ele>
        <time>2015-06-28T07:48:25.000Z</time>
      </trkpt>
      <trkpt lat="45.39321" lon="4.56894">
        <ele>1231.2</ele>
        <time>2015-06-28T07:49:15.000Z</time>
      </trkpt>
      <trkpt lat="45.39305" lon="4.56909">
        <ele>1234.3</ele>
        <time>2015-06-28T07:49:26.000Z</time>
      </trkpt>
      <trkpt lat="45.39301" lon="4.56915">
        <ele>1235.7</ele>
        <time>2015-06-28T07:49:30.000Z</time>
      </trkpt>
      <trkpt lat="45.39286" lon="4.56928">
        <ele>1239.3</ele>
        <time>2015-06-28T07:50:09.000Z</time>
      </trkpt>
      <trkpt lat="45.39272" lon="4.56943">
        <ele>1242.4</ele>
        <time>2015-06-28T07:50:30.000Z</time>
      </trkpt>
      <trkpt lat="45.39258" lon="4.56958">
        <ele>1246.3</ele>
        <time>2015-06-28T07:50:54.000Z</time>
      </trkpt>
      <trkpt lat="45.3925" lon="4.56982">
        <ele>1251.7</ele>
        <time>2015-06-28T07:51:18.000Z</time>
      </trkpt>
      <trkpt lat="45.39246" lon="4.56987">
        <ele>1252.2</ele>
        <time>2015-06-28T07:51:30.000Z</time>
      </trkpt>
      <trkpt lat="45.39258" lon="4.56995">
        <ele>1254.7</ele>
        <time>2015-06-28T07:52:08.000Z</time>
      </trkpt>
      <trkpt lat="45.39274" lon="4.5701">
        <ele>1258.6</ele>
        <time>2015-06-28T07:52:18.000Z</time>
      </trkpt>
      <trkpt lat="45.39291" lon="4.57022">
        <ele>1261.8</ele>
        <time>2015-06-28T07:52:30.000Z</time>
      </trkpt>
      <trkpt lat="45.39307" lon="4.57026">
        <ele>1263.9</ele>
        <time>2015-06-28T07:52:40.000Z</time>
      </trkpt>
      <trkpt lat="45.39326" lon="4.57033">
        <ele>1267.2</ele>
        <time>2015-06-28T07:52:53.000Z</time>
      </trkpt>
      <trkpt lat="45.3933" lon="4.57035">
        <ele>1268</ele>
        <time>2015-06-28T07:52:57.000Z</time>
      </trkpt>
      <trkpt lat="45.39349" lon="4.57042">
        <ele>1270.2</ele>
        <time>2015-06-28T07:53:11.000Z</time>
      </trkpt>
      <trkpt lat="45.39368" lon="4.57037">
        <ele>1270</ele>
        <time>2015-06-28T07:53:21.000Z</time>
      </trkpt>
      <trkpt lat="45.39377" lon="4.57035">
        <ele>1270</ele>
        <time>2015-06-28T07:53:25.000Z</time>
      </trkpt>
      <trkpt lat="45.39396" lon="4.57038">
        <ele>1272.1</ele>
        <time>2015-06-28T07:53:37.000Z</time>
      </trkpt>
      <trkpt lat="45.39414" lon="4.57043">
        <ele>1275.5</ele>
        <time>2015-06-28T07:53:49.000Z</time>
      </trkpt>
      <trkpt lat="45.39432" lon="4.5704">
        <ele>1276.3</ele>
        <time>2015-06-28T07:54:01.000Z</time>
      </trkpt>
      <trkpt lat="45.3945" lon="4.57036">
        <ele>1276.9</ele>
        <time>2015-06-28T07:54:14.000Z</time>
      </trkpt>
      <trkpt lat="45.39465" lon="4.57032">
        <ele>1277.3</ele>
        <time>2015-06-28T07:54:28.000Z</time>
      </trkpt>
      <trkpt lat="45.39482" lon="4.57029">
        <ele>1277.6</ele>
        <time>2015-06-28T07:55:36.000Z</time>
      </trkpt>
      <trkpt lat="45.39501" lon="4.57028">
        <ele>1278</ele>
        <time>2015-06-28T07:55:49.000Z</time>
      </trkpt>
      <trkpt lat="45.39519" lon="4.57035">
        <ele>1280.1</ele>
        <time>2015-06-28T07:56:00.000Z</time>
      </trkpt>
      <trkpt lat="45.39534" lon="4.5705">
        <ele>1282</ele>
        <time>2015-06-28T07:56:12.000Z</time>
      </trkpt>
      <trkpt lat="45.3954" lon="4.57053">
        <ele>1282.7</ele>
        <time>2015-06-28T07:56:17.000Z</time>
      </trkpt>
      <trkpt lat="45.39553" lon="4.57069">
        <ele>1284.4</ele>
        <time>2015-06-28T07:56:30.000Z</time>
      </trkpt>
      <trkpt lat="45.3956" lon="4.57092">
        <ele>1285.1</ele>
        <time>2015-06-28T07:56:39.000Z</time>
      </trkpt>
      <trkpt lat="45.39554" lon="4.57102">
        <ele>1285</ele>
        <time>2015-06-28T07:56:44.000Z</time>
      </trkpt>
      <trkpt lat="45.39545" lon="4.57112">
        <ele>1285.3</ele>
        <time>2015-06-28T07:56:50.000Z</time>
      </trkpt>
      <trkpt lat="45.39542" lon="4.57119">
        <ele>1285.2</ele>
        <time>2015-06-28T07:56:53.000Z</time>
      </trkpt>
      <trkpt lat="45.39537" lon="4.57128">
        <ele>1285</ele>
        <time>2015-06-28T07:56:58.000Z</time>
      </trkpt>
      <trkpt lat="45.39523" lon="4.57144">
        <ele>1285.5</ele>
        <time>2015-06-28T07:57:08.000Z</time>
      </trkpt>
      <trkpt lat="45.39505" lon="4.57154">
        <ele>1287.5</ele>
        <time>2015-06-28T07:57:21.000Z</time>
      </trkpt>
      <trkpt lat="45.39487" lon="4.57162">
        <ele>1289.4</ele>
        <time>2015-06-28T07:57:31.000Z</time>
      </trkpt>
      <trkpt lat="45.39481" lon="4.57164">
        <ele>1290.1</ele>
        <time>2015-06-28T07:57:34.000Z</time>
      </trkpt>
      <trkpt lat="45.39468" lon="4.5717">
        <ele>1291.4</ele>
        <time>2015-06-28T07:57:40.000Z</time>
      </trkpt>
      <trkpt lat="45.39455" lon="4.5717">
        <ele>1292.3</ele>
        <time>2015-06-28T07:57:46.000Z</time>
      </trkpt>
      <trkpt lat="45.39442" lon="4.57171">
        <ele>1293.3</ele>
        <time>2015-06-28T07:57:52.000Z</time>
      </trkpt>
      <trkpt lat="45.39426" lon="4.57176">
        <ele>1295.1</ele>
        <time>2015-06-28T07:58:00.000Z</time>
      </trkpt>
      <trkpt lat="45.39408" lon="4.57184">
        <ele>1297</ele>
        <time>2015-06-28T07:58:11.000Z</time>
      </trkpt>
      <trkpt lat="45.39393" lon="4.57202">
        <ele>1299.1</ele>
        <time>2015-06-28T07:58:22.000Z</time>
      </trkpt>
      <trkpt lat="45.39376" lon="4.57211">
        <ele>1300.1</ele>
        <time>2015-06-28T07:58:33.000Z</time>
      </trkpt>
      <trkpt lat="45.3936" lon="4.5722">
        <ele>1301.8</ele>
        <time>2015-06-28T07:58:42.000Z</time>
      </trkpt>
      <trkpt lat="45.39342" lon="4.57232">
        <ele>1302.6</ele>
        <time>2015-06-28T07:58:52.000Z</time>
      </trkpt>
      <trkpt lat="45.39326" lon="4.57245">
        <ele>1303.6</ele>
        <time>2015-06-28T07:59:02.000Z</time>
      </trkpt>
      <trkpt lat="45.39325" lon="4.57247">
        <ele>1303.8</ele>
        <time>2015-06-28T07:59:03.000Z</time>
      </trkpt>
      <trkpt lat="45.39308" lon="4.57259">
        <ele>1305</ele>
        <time>2015-06-28T07:59:13.000Z</time>
      </trkpt>
      <trkpt lat="45.39289" lon="4.57267">
        <ele>1305.3</ele>
        <time>2015-06-28T07:59:22.000Z</time>
      </trkpt>
      <trkpt lat="45.39271" lon="4.57279">
        <ele>1305.8</ele>
        <time>2015-06-28T07:59:31.000Z</time>
      </trkpt>
      <trkpt lat="45.39254" lon="4.5729">
        <ele>1306.4</ele>
        <time>2015-06-28T07:59:40.000Z</time>
      </trkpt>
      <trkpt lat="45.39237" lon="4.573">
        <ele>1306.8</ele>
        <time>2015-06-28T07:59:49.000Z</time>
      </trkpt>
      <trkpt lat="45.39219" lon="4.57311">
        <ele>1307.2</ele>
        <time>2015-06-28T07:59:58.000Z</time>
      </trkpt>
      <trkpt lat="45.39201" lon="4.57322">
        <ele>1307.1</ele>
        <time>2015-06-28T08:00:06.000Z</time>
      </trkpt>
      <trkpt lat="45.39182" lon="4.57333">
        <ele>1307.1</ele>
        <time>2015-06-28T08:00:13.000Z</time>
      </trkpt>
      <trkpt lat="45.39166" lon="4.57346">
        <ele>1307.3</ele>
        <time>2015-06-28T08:00:19.000Z</time>
      </trkpt>
      <trkpt lat="45.39148" lon="4.57356">
        <ele>1307.8</ele>
        <time>2015-06-28T08:00:26.000Z</time>
      </trkpt>
      <trkpt lat="45.3913" lon="4.57366">
        <ele>1308.2</ele>
        <time>2015-06-28T08:00:32.000Z</time>
      </trkpt>
      <trkpt lat="45.39112" lon="4.57375">
        <ele>1308.5</ele>
        <time>2015-06-28T08:00:38.000Z</time>
      </trkpt>
      <trkpt lat="45.39099" lon="4.57382">
        <ele>1308.3</ele>
        <time>2015-06-28T08:00:45.000Z</time>
      </trkpt>
      <trkpt lat="45.39096" lon="4.57386">
        <ele>1308.6</ele>
        <time>2015-06-28T08:02:12.000Z</time>
      </trkpt>
      <trkpt lat="45.39114" lon="4.57391">
        <ele>1310.2</ele>
        <time>2015-06-28T08:02:19.000Z</time>
      </trkpt>
      <trkpt lat="45.39134" lon="4.57394">
        <ele>1311.2</ele>
        <time>2015-06-28T08:02:27.000Z</time>
      </trkpt>
      <trkpt lat="45.39151" lon="4.574">
        <ele>1312.2</ele>
        <time>2015-06-28T08:02:35.000Z</time>
      </trkpt>
      <trkpt lat="45.39169" lon="4.57408">
        <ele>1313.3</ele>
        <time>2015-06-28T08:02:43.000Z</time>
      </trkpt>
      <trkpt lat="45.39186" lon="4.5742">
        <ele>1314.2</ele>
        <time>2015-06-28T08:02:51.000Z</time>
      </trkpt>
      <trkpt lat="45.39199" lon="4.57439">
        <ele>1315.2</ele>
        <time>2015-06-28T08:02:59.000Z</time>
      </trkpt>
      <trkpt lat="45.392" lon="4.57442">
        <ele>1315.3</ele>
        <time>2015-06-28T08:03:00.000Z</time>
      </trkpt>
      <trkpt lat="45.39203" lon="4.57458">
        <ele>1315.7</ele>
        <time>2015-06-28T08:03:05.000Z</time>
      </trkpt>
      <trkpt lat="45.39209" lon="4.57483">
        <ele>1316.5</ele>
        <time>2015-06-28T08:03:13.000Z</time>
      </trkpt>
      <trkpt lat="45.39211" lon="4.57511">
        <ele>1318</ele>
        <time>2015-06-28T08:03:21.000Z</time>
      </trkpt>
      <trkpt lat="45.3921" lon="4.57514">
        <ele>1318.3</ele>
        <time>2015-06-28T08:03:22.000Z</time>
      </trkpt>
      <trkpt lat="45.39194" lon="4.57524">
        <ele>1320.7</ele>
        <time>2015-06-28T08:03:30.000Z</time>
      </trkpt>
      <trkpt lat="45.39186" lon="4.57523">
        <ele>1321.6</ele>
        <time>2015-06-28T08:03:34.000Z</time>
      </trkpt>
      <trkpt lat="45.39168" lon="4.57521">
        <ele>1323.4</ele>
        <time>2015-06-28T08:03:42.000Z</time>
      </trkpt>
      <trkpt lat="45.3915" lon="4.57526">
        <ele>1324.5</ele>
        <time>2015-06-28T08:03:50.000Z</time>
      </trkpt>
      <trkpt lat="45.39136" lon="4.57531">
        <ele>1325.5</ele>
        <time>2015-06-28T08:03:58.000Z</time>
      </trkpt>
      <trkpt lat="45.39144" lon="4.57543">
        <ele>1326.3</ele>
        <time>2015-06-28T08:04:05.000Z</time>
      </trkpt>
      <trkpt lat="45.39156" lon="4.57565">
        <ele>1327.7</ele>
        <time>2015-06-28T08:04:14.000Z</time>
      </trkpt>
      <trkpt lat="45.39164" lon="4.57591">
        <ele>1329.7</ele>
        <time>2015-06-28T08:04:23.000Z</time>
      </trkpt>
      <trkpt lat="45.39172" lon="4.57615">
        <ele>1330.7</ele>
        <time>2015-06-28T08:04:32.000Z</time>
      </trkpt>
      <trkpt lat="45.39179" lon="4.5764">
        <ele>1331.7</ele>
        <time>2015-06-28T08:04:41.000Z</time>
      </trkpt>
      <trkpt lat="45.39185" lon="4.57667">
        <ele>1332.3</ele>
        <time>2015-06-28T08:04:50.000Z</time>
      </trkpt>
      <trkpt lat="45.39188" lon="4.57688">
        <ele>1333.4</ele>
        <time>2015-06-28T08:04:59.000Z</time>
      </trkpt>
      <trkpt lat="45.39193" lon="4.57714">
        <ele>1334</ele>
        <time>2015-06-28T08:05:15.000Z</time>
      </trkpt>
      <trkpt lat="45.39196" lon="4.57741">
        <ele>1334.3</ele>
        <time>2015-06-28T08:05:21.000Z</time>
      </trkpt>
      <trkpt lat="45.39203" lon="4.57766">
        <ele>1333.5</ele>
        <time>2015-06-28T08:05:29.000Z</time>
      </trkpt>
      <trkpt lat="45.39211" lon="4.5779">
        <ele>1332.1</ele>
        <time>2015-06-28T08:05:36.000Z</time>
      </trkpt>
      <trkpt lat="45.39216" lon="4.57818">
        <ele>1331.1</ele>
        <time>2015-06-28T08:05:43.000Z</time>
      </trkpt>
      <trkpt lat="45.39226" lon="4.57841">
        <ele>1329.2</ele>
        <time>2015-06-28T08:05:49.000Z</time>
      </trkpt>
      <trkpt lat="45.39232" lon="4.57865">
        <ele>1327.9</ele>
        <time>2015-06-28T08:05:56.000Z</time>
      </trkpt>
      <trkpt lat="45.39238" lon="4.57892">
        <ele>1327.2</ele>
        <time>2015-06-28T08:06:01.000Z</time>
      </trkpt>
      <trkpt lat="45.39243" lon="4.57922">
        <ele>1326.4</ele>
        <time>2015-06-28T08:06:06.000Z</time>
      </trkpt>
      <trkpt lat="45.39249" lon="4.57947">
        <ele>1326.3</ele>
        <time>2015-06-28T08:06:13.000Z</time>
      </trkpt>
      <trkpt lat="45.39251" lon="4.57976">
        <ele>1326.7</ele>
        <time>2015-06-28T08:06:21.000Z</time>
      </trkpt>
      <trkpt lat="45.39254" lon="4.58005">
        <ele>1326.4</ele>
        <time>2015-06-28T08:06:26.000Z</time>
      </trkpt>
      <trkpt lat="45.39258" lon="4.58031">
        <ele>1326.4</ele>
        <time>2015-06-28T08:06:35.000Z</time>
      </trkpt>
      <trkpt lat="45.3926" lon="4.58051">
        <ele>1325.4</ele>
        <time>2015-06-28T08:06:40.000Z</time>
      </trkpt>
      <trkpt lat="45.39256" lon="4.58079">
        <ele>1324.3</ele>
        <time>2015-06-28T08:06:46.000Z</time>
      </trkpt>
      <trkpt lat="45.39247" lon="4.58102">
        <ele>1322.9</ele>
        <time>2015-06-28T08:06:50.000Z</time>
      </trkpt>
      <trkpt lat="45.39236" lon="4.58126">
        <ele>1321</ele>
        <time>2015-06-28T08:06:54.000Z</time>
      </trkpt>
      <trkpt lat="45.39225" lon="4.58147">
        <ele>1320.2</ele>
        <time>2015-06-28T08:06:57.000Z</time>
      </trkpt>
      <trkpt lat="45.3922" lon="4.58153">
        <ele>1320.3</ele>
        <time>2015-06-28T08:06:58.000Z</time>
      </trkpt>
      <trkpt lat="45.39207" lon="4.58172">
        <ele>1319.5</ele>
        <time>2015-06-28T08:07:01.000Z</time>
      </trkpt>
      <trkpt lat="45.39199" lon="4.58182">
        <ele>1318.2</ele>
        <time>2015-06-28T08:07:03.000Z</time>
      </trkpt>
      <trkpt lat="45.39187" lon="4.58199">
        <ele>1317.2</ele>
        <time>2015-06-28T08:07:08.000Z</time>
      </trkpt>
      <trkpt lat="45.39176" lon="4.58219">
        <ele>1316</ele>
        <time>2015-06-28T08:07:13.000Z</time>
      </trkpt>
      <trkpt lat="45.39166" lon="4.58239">
        <ele>1313.5</ele>
        <time>2015-06-28T08:07:17.000Z</time>
      </trkpt>
      <trkpt lat="45.39155" lon="4.58259">
        <ele>1310.8</ele>
        <time>2015-06-28T08:07:22.000Z</time>
      </trkpt>
      <trkpt lat="45.39149" lon="4.58267">
        <ele>1310</ele>
        <time>2015-06-28T08:07:24.000Z</time>
      </trkpt>
      <trkpt lat="45.39134" lon="4.58286">
        <ele>1307.6</ele>
        <time>2015-06-28T08:07:30.000Z</time>
      </trkpt>
      <trkpt lat="45.39117" lon="4.58306">
        <ele>1305.1</ele>
        <time>2015-06-28T08:07:37.000Z</time>
      </trkpt>
      <trkpt lat="45.39101" lon="4.5832">
        <ele>1305.5</ele>
        <time>2015-06-28T08:07:42.000Z</time>
      </trkpt>
      <trkpt lat="45.39086" lon="4.58338">
        <ele>1304</ele>
        <time>2015-06-28T08:07:47.000Z</time>
      </trkpt>
      <trkpt lat="45.39071" lon="4.58356">
        <ele>1302.8</ele>
        <time>2015-06-28T08:07:51.000Z</time>
      </trkpt>
      <trkpt lat="45.39056" lon="4.5837">
        <ele>1303.5</ele>
        <time>2015-06-28T08:07:58.000Z</time>
      </trkpt>
      <trkpt lat="45.3904" lon="4.58388">
        <ele>1302.6</ele>
        <time>2015-06-28T08:08:03.000Z</time>
      </trkpt>
      <trkpt lat="45.39025" lon="4.58406">
        <ele>1302.2</ele>
        <time>2015-06-28T08:08:08.000Z</time>
      </trkpt>
      <trkpt lat="45.3901" lon="4.5842">
        <ele>1301.9</ele>
        <time>2015-06-28T08:08:13.000Z</time>
      </trkpt>
      <trkpt lat="45.38997" lon="4.58438">
        <ele>1299.8</ele>
        <time>2015-06-28T08:08:17.000Z</time>
      </trkpt>
      <trkpt lat="45.3898" lon="4.58458">
        <ele>1296.9</ele>
        <time>2015-06-28T08:08:21.000Z</time>
      </trkpt>
      <trkpt lat="45.38975" lon="4.58461">
        <ele>1296.9</ele>
        <time>2015-06-28T08:08:22.000Z</time>
      </trkpt>
      <trkpt lat="45.38957" lon="4.58472">
        <ele>1295.1</ele>
        <time>2015-06-28T08:08:28.000Z</time>
      </trkpt>
      <trkpt lat="45.3894" lon="4.58485">
        <ele>1291.2</ele>
        <time>2015-06-28T08:08:37.000Z</time>
      </trkpt>
      <trkpt lat="45.38925" lon="4.585">
        <ele>1285.3</ele>
        <time>2015-06-28T08:08:46.000Z</time>
      </trkpt>
      <trkpt lat="45.38909" lon="4.58511">
        <ele>1280.9</ele>
        <time>2015-06-28T08:08:56.000Z</time>
      </trkpt>
      <trkpt lat="45.38891" lon="4.58519">
        <ele>1278.1</ele>
        <time>2015-06-28T08:09:05.000Z</time>
      </trkpt>
      <trkpt lat="45.38874" lon="4.58527">
        <ele>1275.7</ele>
        <time>2015-06-28T08:09:13.000Z</time>
      </trkpt>
      <trkpt lat="45.38855" lon="4.58534">
        <ele>1274.1</ele>
        <time>2015-06-28T08:09:20.000Z</time>
      </trkpt>
      <trkpt lat="45.38836" lon="4.58537">
        <ele>1273.9</ele>
        <time>2015-06-28T08:09:26.000Z</time>
      </trkpt>
      <trkpt lat="45.38815" lon="4.58542">
        <ele>1272.3</ele>
        <time>2015-06-28T08:09:33.000Z</time>
      </trkpt>
      <trkpt lat="45.38795" lon="4.58544">
        <ele>1271.8</ele>
        <time>2015-06-28T08:09:39.000Z</time>
      </trkpt>
      <trkpt lat="45.38775" lon="4.58543">
        <ele>1271.6</ele>
        <time>2015-06-28T08:09:45.000Z</time>
      </trkpt>
      <trkpt lat="45.38759" lon="4.58531">
        <ele>1272.3</ele>
        <time>2015-06-28T08:09:55.000Z</time>
      </trkpt>
      <trkpt lat="45.38741" lon="4.58522">
        <ele>1275.6</ele>
        <time>2015-06-28T08:10:06.000Z</time>
      </trkpt>
      <trkpt lat="45.38736" lon="4.58522">
        <ele>1276.4</ele>
        <time>2015-06-28T08:10:09.000Z</time>
      </trkpt>
      <trkpt lat="45.38732" lon="4.58533">
        <ele>1276</ele>
        <time>2015-06-28T08:10:15.000Z</time>
      </trkpt>
      <trkpt lat="45.38729" lon="4.58562">
        <ele>1277.6</ele>
        <time>2015-06-28T08:10:24.000Z</time>
      </trkpt>
      <trkpt lat="45.38731" lon="4.58588">
        <ele>1278.6</ele>
        <time>2015-06-28T08:10:32.000Z</time>
      </trkpt>
      <trkpt lat="45.38733" lon="4.58614">
        <ele>1281.4</ele>
        <time>2015-06-28T08:10:42.000Z</time>
      </trkpt>
      <trkpt lat="45.38737" lon="4.58639">
        <ele>1282.1</ele>
        <time>2015-06-28T08:10:51.000Z</time>
      </trkpt>
      <trkpt lat="45.38742" lon="4.58665">
        <ele>1282.9</ele>
        <time>2015-06-28T08:10:58.000Z</time>
      </trkpt>
      <trkpt lat="45.3875" lon="4.5869">
        <ele>1283.3</ele>
        <time>2015-06-28T08:11:04.000Z</time>
      </trkpt>
      <trkpt lat="45.38755" lon="4.58718">
        <ele>1285</ele>
        <time>2015-06-28T08:11:11.000Z</time>
      </trkpt>
      <trkpt lat="45.38759" lon="4.58744">
        <ele>1287.5</ele>
        <time>2015-06-28T08:11:21.000Z</time>
      </trkpt>
      <trkpt lat="45.3876" lon="4.58753">
        <ele>1288.7</ele>
        <time>2015-06-28T08:11:25.000Z</time>
      </trkpt>
      <trkpt lat="45.38762" lon="4.58763">
        <ele>1289.7</ele>
        <time>2015-06-28T08:11:29.000Z</time>
      </trkpt>
      <trkpt lat="45.38763" lon="4.58768">
        <ele>1290.1</ele>
        <time>2015-06-28T08:11:31.000Z</time>
      </trkpt>
      <trkpt lat="45.38767" lon="4.58776">
        <ele>1290.4</ele>
        <time>2015-06-28T08:11:35.000Z</time>
      </trkpt>
      <trkpt lat="45.38775" lon="4.58801">
        <ele>1291.1</ele>
        <time>2015-06-28T08:11:45.000Z</time>
      </trkpt>
      <trkpt lat="45.38782" lon="4.58827">
        <ele>1291.6</ele>
        <time>2015-06-28T08:11:52.000Z</time>
      </trkpt>
      <trkpt lat="45.38784" lon="4.58835">
        <ele>1291.9</ele>
        <time>2015-06-28T08:11:54.000Z</time>
      </trkpt>
      <trkpt lat="45.38787" lon="4.58861">
        <ele>1292.9</ele>
        <time>2015-06-28T08:12:04.000Z</time>
      </trkpt>
      <trkpt lat="45.38788" lon="4.5887">
        <ele>1293.4</ele>
        <time>2015-06-28T08:12:07.000Z</time>
      </trkpt>
      <trkpt lat="45.38794" lon="4.58894">
        <ele>1293</ele>
        <time>2015-06-28T08:12:14.000Z</time>
      </trkpt>
      <trkpt lat="45.38799" lon="4.58919">
        <ele>1293.7</ele>
        <time>2015-06-28T08:12:22.000Z</time>
      </trkpt>
      <trkpt lat="45.38809" lon="4.58943">
        <ele>1292.6</ele>
        <time>2015-06-28T08:12:31.000Z</time>
      </trkpt>
      <trkpt lat="45.38817" lon="4.58964">
        <ele>1292.9</ele>
        <time>2015-06-28T08:12:38.000Z</time>
      </trkpt>
      <trkpt lat="45.38822" lon="4.58992">
        <ele>1294.8</ele>
        <time>2015-06-28T08:12:48.000Z</time>
      </trkpt>
      <trkpt lat="45.38829" lon="4.59016">
        <ele>1295.7</ele>
        <time>2015-06-28T08:12:57.000Z</time>
      </trkpt>
      <trkpt lat="45.38835" lon="4.59041">
        <ele>1296.9</ele>
        <time>2015-06-28T08:13:05.000Z</time>
      </trkpt>
      <trkpt lat="45.38842" lon="4.59065">
        <ele>1297</ele>
        <time>2015-06-28T08:13:13.000Z</time>
      </trkpt>
      <trkpt lat="45.38848" lon="4.5909">
        <ele>1298.2</ele>
        <time>2015-06-28T08:13:21.000Z</time>
      </trkpt>
      <trkpt lat="45.38857" lon="4.59113">
        <ele>1298.8</ele>
        <time>2015-06-28T08:13:30.000Z</time>
      </trkpt>
      <trkpt lat="45.38865" lon="4.59131">
        <ele>1299.3</ele>
        <time>2015-06-28T08:13:39.000Z</time>
      </trkpt>
      <trkpt lat="45.38873" lon="4.59154">
        <ele>1301.2</ele>
        <time>2015-06-28T08:13:47.000Z</time>
      </trkpt>
      <trkpt lat="45.38888" lon="4.59171">
        <ele>1300.6</ele>
        <time>2015-06-28T08:13:54.000Z</time>
      </trkpt>
      <trkpt lat="45.38902" lon="4.59189">
        <ele>1301.4</ele>
        <time>2015-06-28T08:14:04.000Z</time>
      </trkpt>
      <trkpt lat="45.38905" lon="4.59194">
        <ele>1301.9</ele>
        <time>2015-06-28T08:14:07.000Z</time>
      </trkpt>
      <trkpt lat="45.38917" lon="4.59213">
        <ele>1303.7</ele>
        <time>2015-06-28T08:14:19.000Z</time>
      </trkpt>
      <trkpt lat="45.38918" lon="4.59215">
        <ele>1303.8</ele>
        <time>2015-06-28T08:14:20.000Z</time>
      </trkpt>
      <trkpt lat="45.38933" lon="4.59234">
        <ele>1305</ele>
        <time>2015-06-28T08:14:31.000Z</time>
      </trkpt>
      <trkpt lat="45.38947" lon="4.59252">
        <ele>1305.9</ele>
        <time>2015-06-28T08:14:41.000Z</time>
      </trkpt>
      <trkpt lat="45.3896" lon="4.59271">
        <ele>1308</ele>
        <time>2015-06-28T08:14:53.000Z</time>
      </trkpt>
      <trkpt lat="45.38977" lon="4.59284">
        <ele>1308.4</ele>
        <time>2015-06-28T08:15:02.000Z</time>
      </trkpt>
      <trkpt lat="45.38978" lon="4.59285">
        <ele>1308.3</ele>
        <time>2015-06-28T08:15:03.000Z</time>
      </trkpt>
      <trkpt lat="45.3898" lon="4.59285">
        <ele>1308</ele>
        <time>2015-06-28T08:15:05.000Z</time>
      </trkpt>
      <trkpt lat="45.38984" lon="4.59297">
        <ele>1309.6</ele>
        <time>2015-06-28T08:15:51.000Z</time>
      </trkpt>
      <trkpt lat="45.38989" lon="4.59316">
        <ele>1311.3</ele>
        <time>2015-06-28T08:16:24.000Z</time>
      </trkpt>
      <trkpt lat="45.38987" lon="4.59342">
        <ele>1313.4</ele>
        <time>2015-06-28T08:16:44.000Z</time>
      </trkpt>
      <trkpt lat="45.38987" lon="4.59344">
        <ele>1313.5</ele>
        <time>2015-06-28T08:16:45.000Z</time>
      </trkpt>
      <trkpt lat="45.38979" lon="4.59367">
        <ele>1316</ele>
        <time>2015-06-28T08:17:01.000Z</time>
      </trkpt>
      <trkpt lat="45.38976" lon="4.59391">
        <ele>1316.5</ele>
        <time>2015-06-28T08:17:18.000Z</time>
      </trkpt>
      <trkpt lat="45.38977" lon="4.59398">
        <ele>1316.1</ele>
        <time>2015-06-28T08:17:21.000Z</time>
      </trkpt>
      <trkpt lat="45.38976" lon="4.59413">
        <ele>1316</ele>
        <time>2015-06-28T08:17:27.000Z</time>
      </trkpt>
      <trkpt lat="45.38973" lon="4.59439">
        <ele>1316</ele>
        <time>2015-06-28T08:17:38.000Z</time>
      </trkpt>
      <trkpt lat="45.38966" lon="4.59463">
        <ele>1317.4</ele>
        <time>2015-06-28T08:17:49.000Z</time>
      </trkpt>
      <trkpt lat="45.38966" lon="4.59465">
        <ele>1317.4</ele>
        <time>2015-06-28T08:17:50.000Z</time>
      </trkpt>
      <trkpt lat="45.38963" lon="4.59475">
        <ele>1317.8</ele>
        <time>2015-06-28T08:17:54.000Z</time>
      </trkpt>
      <trkpt lat="45.3896" lon="4.59484">
        <ele>1318.6</ele>
        <time>2015-06-28T08:17:58.000Z</time>
      </trkpt>
      <trkpt lat="45.38954" lon="4.59509">
        <ele>1319.8</ele>
        <time>2015-06-28T08:18:10.000Z</time>
      </trkpt>
      <trkpt lat="45.38953" lon="4.59511">
        <ele>1319.9</ele>
        <time>2015-06-28T08:18:11.000Z</time>
      </trkpt>
      <trkpt lat="45.38952" lon="4.59519">
        <ele>1320.5</ele>
        <time>2015-06-28T08:18:15.000Z</time>
      </trkpt>
      <trkpt lat="45.38953" lon="4.59538">
        <ele>1320</ele>
        <time>2015-06-28T08:18:22.000Z</time>
      </trkpt>
      <trkpt lat="45.38953" lon="4.5955">
        <ele>1320</ele>
        <time>2015-06-28T08:18:26.000Z</time>
      </trkpt>
      <trkpt lat="45.38955" lon="4.59563">
        <ele>1319.9</ele>
        <time>2015-06-28T08:18:31.000Z</time>
      </trkpt>
      <trkpt lat="45.38954" lon="4.59591">
        <ele>1320.6</ele>
        <time>2015-06-28T08:18:40.000Z</time>
      </trkpt>
      <trkpt lat="45.38953" lon="4.59618">
        <ele>1320.6</ele>
        <time>2015-06-28T08:18:46.000Z</time>
      </trkpt>
      <trkpt lat="45.3895" lon="4.59643">
        <ele>1321.3</ele>
        <time>2015-06-28T08:18:53.000Z</time>
      </trkpt>
      <trkpt lat="45.38948" lon="4.59671">
        <ele>1322</ele>
        <time>2015-06-28T08:19:04.000Z</time>
      </trkpt>
      <trkpt lat="45.38951" lon="4.59679">
        <ele>1321.7</ele>
        <time>2015-06-28T08:19:08.000Z</time>
      </trkpt>
      <trkpt lat="45.38952" lon="4.59705">
        <ele>1322.2</ele>
        <time>2015-06-28T08:19:21.000Z</time>
      </trkpt>
      <trkpt lat="45.38952" lon="4.59731">
        <ele>1323.2</ele>
        <time>2015-06-28T08:19:29.000Z</time>
      </trkpt>
      <trkpt lat="45.38953" lon="4.59753">
        <ele>1323.3</ele>
        <time>2015-06-28T08:19:38.000Z</time>
      </trkpt>
      <trkpt lat="45.38959" lon="4.59778">
        <ele>1323.5</ele>
        <time>2015-06-28T08:19:44.000Z</time>
      </trkpt>
      <trkpt lat="45.38967" lon="4.59803">
        <ele>1323.1</ele>
        <time>2015-06-28T08:19:50.000Z</time>
      </trkpt>
      <trkpt lat="45.38969" lon="4.59819">
        <ele>1324</ele>
        <time>2015-06-28T08:19:57.000Z</time>
      </trkpt>
      <trkpt lat="45.38978" lon="4.59843">
        <ele>1325.2</ele>
        <time>2015-06-28T08:20:12.000Z</time>
      </trkpt>
      <trkpt lat="45.38987" lon="4.59865">
        <ele>1326.2</ele>
        <time>2015-06-28T08:20:21.000Z</time>
      </trkpt>
      <trkpt lat="45.38999" lon="4.59886">
        <ele>1326</ele>
        <time>2015-06-28T08:20:29.000Z</time>
      </trkpt>
      <trkpt lat="45.39009" lon="4.59908">
        <ele>1328.2</ele>
        <time>2015-06-28T08:20:36.000Z</time>
      </trkpt>
      <trkpt lat="45.39021" lon="4.5993">
        <ele>1329.9</ele>
        <time>2015-06-28T08:20:43.000Z</time>
      </trkpt>
      <trkpt lat="45.39022" lon="4.59941">
        <ele>1331.3</ele>
        <time>2015-06-28T08:20:46.000Z</time>
      </trkpt>
      <trkpt lat="45.39007" lon="4.59937">
        <ele>1332.9</ele>
        <time>2015-06-28T08:20:54.000Z</time>
      </trkpt>
      <trkpt lat="45.38996" lon="4.59935">
        <ele>1334.3</ele>
        <time>2015-06-28T08:21:01.000Z</time>
      </trkpt>
      <trkpt lat="45.3898" lon="4.59941">
        <ele>1337.4</ele>
        <time>2015-06-28T08:21:10.000Z</time>
      </trkpt>
      <trkpt lat="45.38967" lon="4.59937">
        <ele>1338.4</ele>
        <time>2015-06-28T08:21:19.000Z</time>
      </trkpt>
      <trkpt lat="45.3895" lon="4.5993">
        <ele>1338.9</ele>
        <time>2015-06-28T08:21:29.000Z</time>
      </trkpt>
      <trkpt lat="45.38933" lon="4.5992">
        <ele>1338.8</ele>
        <time>2015-06-28T08:21:37.000Z</time>
      </trkpt>
      <trkpt lat="45.38916" lon="4.59912">
        <ele>1339.7</ele>
        <time>2015-06-28T08:21:45.000Z</time>
      </trkpt>
      <trkpt lat="45.38897" lon="4.59906">
        <ele>1340.7</ele>
        <time>2015-06-28T08:21:53.000Z</time>
      </trkpt>
      <trkpt lat="45.38879" lon="4.59902">
        <ele>1341.4</ele>
        <time>2015-06-28T08:22:00.000Z</time>
      </trkpt>
      <trkpt lat="45.38864" lon="4.59888">
        <ele>1341.8</ele>
        <time>2015-06-28T08:22:10.000Z</time>
      </trkpt>
      <trkpt lat="45.38858" lon="4.59879">
        <ele>1342</ele>
        <time>2015-06-28T08:22:15.000Z</time>
      </trkpt>
      <trkpt lat="45.38854" lon="4.59881">
        <ele>1341.9</ele>
        <time>2015-06-28T08:22:18.000Z</time>
      </trkpt>
      <trkpt lat="45.38849" lon="4.59872">
        <ele>1342.1</ele>
        <time>2015-06-28T08:22:23.000Z</time>
      </trkpt>
      <trkpt lat="45.38856" lon="4.59888">
        <ele>1341.8</ele>
        <time>2015-06-28T08:22:35.000Z</time>
      </trkpt>
      <trkpt lat="45.38859" lon="4.59895">
        <ele>1341.9</ele>
        <time>2015-06-28T08:22:38.000Z</time>
      </trkpt>
      <trkpt lat="45.38871" lon="4.59917">
        <ele>1342</ele>
        <time>2015-06-28T08:22:48.000Z</time>
      </trkpt>
      <trkpt lat="45.38872" lon="4.59918">
        <ele>1342.1</ele>
        <time>2015-06-28T08:22:49.000Z</time>
      </trkpt>
      <trkpt lat="45.38876" lon="4.59916">
        <ele>1342</ele>
        <time>2015-06-28T08:23:10.000Z</time>
      </trkpt>
      <trkpt lat="45.38878" lon="4.59907">
        <ele>1341.6</ele>
        <time>2015-06-28T08:23:14.000Z</time>
      </trkpt>
      <trkpt lat="45.3888" lon="4.59908">
        <ele>1341.6</ele>
        <time>2015-06-28T08:26:45.000Z</time>
      </trkpt>
      <trkpt lat="45.38881" lon="4.59909">
        <ele>1341.6</ele>
        <time>2015-06-28T08:26:46.000Z</time>
      </trkpt>
      <trkpt lat="45.38894" lon="4.59927">
        <ele>1342.5</ele>
        <time>2015-06-28T08:26:54.000Z</time>
      </trkpt>
      <trkpt lat="45.38909" lon="4.59945">
        <ele>1344</ele>
        <time>2015-06-28T08:27:01.000Z</time>
      </trkpt>
      <trkpt lat="45.38924" lon="4.59962">
        <ele>1345.4</ele>
        <time>2015-06-28T08:27:08.000Z</time>
      </trkpt>
      <trkpt lat="45.38939" lon="4.5998">
        <ele>1346.4</ele>
        <time>2015-06-28T08:27:16.000Z</time>
      </trkpt>
      <trkpt lat="45.38954" lon="4.59996">
        <ele>1347.4</ele>
        <time>2015-06-28T08:27:25.000Z</time>
      </trkpt>
      <trkpt lat="45.38969" lon="4.60014">
        <ele>1348.8</ele>
        <time>2015-06-28T08:27:34.000Z</time>
      </trkpt>
      <trkpt lat="45.38983" lon="4.60031">
        <ele>1349.9</ele>
        <time>2015-06-28T08:27:43.000Z</time>
      </trkpt>
      <trkpt lat="45.38997" lon="4.60046">
        <ele>1350</ele>
        <time>2015-06-28T08:27:51.000Z</time>
      </trkpt>
      <trkpt lat="45.38999" lon="4.60047">
        <ele>1349.9</ele>
        <time>2015-06-28T08:27:52.000Z</time>
      </trkpt>
      <trkpt lat="45.39015" lon="4.60061">
        <ele>1350.2</ele>
        <time>2015-06-28T08:28:00.000Z</time>
      </trkpt>
      <trkpt lat="45.39029" lon="4.60079">
        <ele>1351.2</ele>
        <time>2015-06-28T08:28:09.000Z</time>
      </trkpt>
      <trkpt lat="45.3904" lon="4.60099">
        <ele>1352.2</ele>
        <time>2015-06-28T08:28:17.000Z</time>
      </trkpt>
      <trkpt lat="45.3905" lon="4.60122">
        <ele>1353.8</ele>
        <time>2015-06-28T08:28:26.000Z</time>
      </trkpt>
      <trkpt lat="45.39058" lon="4.60145">
        <ele>1355.2</ele>
        <time>2015-06-28T08:28:36.000Z</time>
      </trkpt>
      <trkpt lat="45.39062" lon="4.60171">
        <ele>1356.8</ele>
        <time>2015-06-28T08:28:46.000Z</time>
      </trkpt>
      <trkpt lat="45.39067" lon="4.60196">
        <ele>1359</ele>
        <time>2015-06-28T08:28:56.000Z</time>
      </trkpt>
      <trkpt lat="45.39072" lon="4.60223">
        <ele>1358.8</ele>
        <time>2015-06-28T08:29:06.000Z</time>
      </trkpt>
      <trkpt lat="45.39074" lon="4.60251">
        <ele>1359.4</ele>
        <time>2015-06-28T08:29:15.000Z</time>
      </trkpt>
      <trkpt lat="45.39071" lon="4.60277">
        <ele>1360.5</ele>
        <time>2015-06-28T08:29:25.000Z</time>
      </trkpt>
      <trkpt lat="45.39066" lon="4.60304">
        <ele>1361.5</ele>
        <time>2015-06-28T08:29:35.000Z</time>
      </trkpt>
      <trkpt lat="45.39063" lon="4.60324">
        <ele>1361.7</ele>
        <time>2015-06-28T08:29:43.000Z</time>
      </trkpt>
      <trkpt lat="45.39062" lon="4.60337">
        <ele>1361.4</ele>
        <time>2015-06-28T08:29:48.000Z</time>
      </trkpt>
      <trkpt lat="45.39054" lon="4.60362">
        <ele>1363.2</ele>
        <time>2015-06-28T08:29:58.000Z</time>
      </trkpt>
      <trkpt lat="45.3905" lon="4.60387">
        <ele>1361.9</ele>
        <time>2015-06-28T08:30:12.000Z</time>
      </trkpt>
      <trkpt lat="45.39049" lon="4.6039">
        <ele>1361.9</ele>
        <time>2015-06-28T08:30:14.000Z</time>
      </trkpt>
      <trkpt lat="45.39041" lon="4.60414">
        <ele>1361.9</ele>
        <time>2015-06-28T08:30:22.000Z</time>
      </trkpt>
      <trkpt lat="45.3904" lon="4.60417">
        <ele>1361.9</ele>
        <time>2015-06-28T08:30:23.000Z</time>
      </trkpt>
      <trkpt lat="45.39033" lon="4.60442">
        <ele>1361.5</ele>
        <time>2015-06-28T08:30:32.000Z</time>
      </trkpt>
      <trkpt lat="45.39032" lon="4.60448">
        <ele>1361.2</ele>
        <time>2015-06-28T08:30:35.000Z</time>
      </trkpt>
      <trkpt lat="45.39033" lon="4.60456">
        <ele>1359.5</ele>
        <time>2015-06-28T08:30:39.000Z</time>
      </trkpt>
      <trkpt lat="45.39033" lon="4.60459">
        <ele>1359.1</ele>
        <time>2015-06-28T08:30:40.000Z</time>
      </trkpt>
      <trkpt lat="45.39033" lon="4.60463">
        <ele>1358.7</ele>
        <time>2015-06-28T08:30:43.000Z</time>
      </trkpt>
      <trkpt lat="45.39028" lon="4.60481">
        <ele>1357.8</ele>
        <time>2015-06-28T08:31:58.000Z</time>
      </trkpt>
      <trkpt lat="45.39027" lon="4.60509">
        <ele>1355</ele>
        <time>2015-06-28T08:32:05.000Z</time>
      </trkpt>
      <trkpt lat="45.39027" lon="4.60534">
        <ele>1351.3</ele>
        <time>2015-06-28T08:32:12.000Z</time>
      </trkpt>
      <trkpt lat="45.39026" lon="4.6056">
        <ele>1348</ele>
        <time>2015-06-28T08:32:18.000Z</time>
      </trkpt>
      <trkpt lat="45.39027" lon="4.60586">
        <ele>1344.9</ele>
        <time>2015-06-28T08:32:28.000Z</time>
      </trkpt>
      <trkpt lat="45.39028" lon="4.60597">
        <ele>1343.1</ele>
        <time>2015-06-28T08:32:33.000Z</time>
      </trkpt>
      <trkpt lat="45.39029" lon="4.60601">
        <ele>1342.1</ele>
        <time>2015-06-28T08:32:38.000Z</time>
      </trkpt>
      <trkpt lat="45.39033" lon="4.60627">
        <ele>1338.7</ele>
        <time>2015-06-28T08:32:49.000Z</time>
      </trkpt>
      <trkpt lat="45.39037" lon="4.60654">
        <ele>1334.7</ele>
        <time>2015-06-28T08:32:58.000Z</time>
      </trkpt>
      <trkpt lat="45.39043" lon="4.60678">
        <ele>1330.6</ele>
        <time>2015-06-28T08:33:08.000Z</time>
      </trkpt>
      <trkpt lat="45.39053" lon="4.60699">
        <ele>1326.9</ele>
        <time>2015-06-28T08:33:18.000Z</time>
      </trkpt>
      <trkpt lat="45.39063" lon="4.60721">
        <ele>1323.3</ele>
        <time>2015-06-28T08:33:27.000Z</time>
      </trkpt>
      <trkpt lat="45.39073" lon="4.60742">
        <ele>1320.7</ele>
        <time>2015-06-28T08:33:34.000Z</time>
      </trkpt>
      <trkpt lat="45.39075" lon="4.60747">
        <ele>1320.1</ele>
        <time>2015-06-28T08:33:36.000Z</time>
      </trkpt>
      <trkpt lat="45.39088" lon="4.60761">
        <ele>1318.7</ele>
        <time>2015-06-28T08:33:40.000Z</time>
      </trkpt>
      <trkpt lat="45.39098" lon="4.60776">
        <ele>1318.4</ele>
        <time>2015-06-28T08:33:43.000Z</time>
      </trkpt>
      <trkpt lat="45.39096" lon="4.60799">
        <ele>1317.7</ele>
        <time>2015-06-28T08:34:19.000Z</time>
      </trkpt>
      <trkpt lat="45.39098" lon="4.60802">
        <ele>1317.6</ele>
        <time>2015-06-28T08:34:20.000Z</time>
      </trkpt>
      <trkpt lat="45.3911" lon="4.60825">
        <ele>1318.5</ele>
        <time>2015-06-28T08:34:27.000Z</time>
      </trkpt>
      <trkpt lat="45.39126" lon="4.60833">
        <ele>1320.1</ele>
        <time>2015-06-28T08:34:34.000Z</time>
      </trkpt>
      <trkpt lat="45.39135" lon="4.6083">
        <ele>1320.5</ele>
        <time>2015-06-28T08:34:37.000Z</time>
      </trkpt>
      <trkpt lat="45.39124" lon="4.60828">
        <ele>1319.6</ele>
        <time>2015-06-28T08:34:44.000Z</time>
      </trkpt>
      <trkpt lat="45.39113" lon="4.60823">
        <ele>1318.8</ele>
        <time>2015-06-28T08:35:05.000Z</time>
      </trkpt>
      <trkpt lat="45.39104" lon="4.60846">
        <ele>1317.3</ele>
        <time>2015-06-28T08:35:16.000Z</time>
      </trkpt>
      <trkpt lat="45.391" lon="4.60853">
        <ele>1316.5</ele>
        <time>2015-06-28T08:36:04.000Z</time>
      </trkpt>
      <trkpt lat="45.39095" lon="4.60878">
        <ele>1313.3</ele>
        <time>2015-06-28T08:36:11.000Z</time>
      </trkpt>
      <trkpt lat="45.39095" lon="4.60906">
        <ele>1310.6</ele>
        <time>2015-06-28T08:36:19.000Z</time>
      </trkpt>
      <trkpt lat="45.3909" lon="4.60933">
        <ele>1306.9</ele>
        <time>2015-06-28T08:36:27.000Z</time>
      </trkpt>
      <trkpt lat="45.39081" lon="4.60956">
        <ele>1302.7</ele>
        <time>2015-06-28T08:36:33.000Z</time>
      </trkpt>
      <trkpt lat="45.39076" lon="4.60987">
        <ele>1299.4</ele>
        <time>2015-06-28T08:36:38.000Z</time>
      </trkpt>
      <trkpt lat="45.39072" lon="4.61013">
        <ele>1297.3</ele>
        <time>2015-06-28T08:36:42.000Z</time>
      </trkpt>
      <trkpt lat="45.39065" lon="4.61041">
        <ele>1295.6</ele>
        <time>2015-06-28T08:36:48.000Z</time>
      </trkpt>
      <trkpt lat="45.39059" lon="4.61065">
        <ele>1293.7</ele>
        <time>2015-06-28T08:36:55.000Z</time>
      </trkpt>
      <trkpt lat="45.39054" lon="4.6108">
        <ele>1291</ele>
        <time>2015-06-28T08:37:00.000Z</time>
      </trkpt>
      <trkpt lat="45.39051" lon="4.61088">
        <ele>1289.7</ele>
        <time>2015-06-28T08:37:07.000Z</time>
      </trkpt>
      <trkpt lat="45.39043" lon="4.61111">
        <ele>1286.8</ele>
        <time>2015-06-28T08:37:14.000Z</time>
      </trkpt>
      <trkpt lat="45.39039" lon="4.6112">
        <ele>1285.2</ele>
        <time>2015-06-28T08:37:17.000Z</time>
      </trkpt>
      <trkpt lat="45.39026" lon="4.61142">
        <ele>1280.4</ele>
        <time>2015-06-28T08:37:26.000Z</time>
      </trkpt>
      <trkpt lat="45.39015" lon="4.61164">
        <ele>1276.4</ele>
        <time>2015-06-28T08:37:32.000Z</time>
      </trkpt>
      <trkpt lat="45.3901" lon="4.61176">
        <ele>1274.8</ele>
        <time>2015-06-28T08:37:36.000Z</time>
      </trkpt>
      <trkpt lat="45.38999" lon="4.61201">
        <ele>1271.5</ele>
        <time>2015-06-28T08:37:44.000Z</time>
      </trkpt>
      <trkpt lat="45.38997" lon="4.61209">
        <ele>1270.6</ele>
        <time>2015-06-28T08:37:46.000Z</time>
      </trkpt>
      <trkpt lat="45.38996" lon="4.61234">
        <ele>1269.4</ele>
        <time>2015-06-28T08:37:50.000Z</time>
      </trkpt>
      <trkpt lat="45.38993" lon="4.61254">
        <ele>1267.9</ele>
        <time>2015-06-28T08:37:53.000Z</time>
      </trkpt>
      <trkpt lat="45.38991" lon="4.61281">
        <ele>1265.5</ele>
        <time>2015-06-28T08:37:57.000Z</time>
      </trkpt>
      <trkpt lat="45.38988" lon="4.61305">
        <ele>1264.3</ele>
        <time>2015-06-28T08:38:00.000Z</time>
      </trkpt>
      <trkpt lat="45.38986" lon="4.61319">
        <ele>1263.3</ele>
        <time>2015-06-28T08:38:02.000Z</time>
      </trkpt>
      <trkpt lat="45.38984" lon="4.61344">
        <ele>1261.5</ele>
        <time>2015-06-28T08:38:06.000Z</time>
      </trkpt>
      <trkpt lat="45.38983" lon="4.61354">
        <ele>1260.6</ele>
        <time>2015-06-28T08:38:08.000Z</time>
      </trkpt>
      <trkpt lat="45.38982" lon="4.61358">
        <ele>1260.3</ele>
        <time>2015-06-28T08:38:09.000Z</time>
      </trkpt>
      <trkpt lat="45.38974" lon="4.61382">
        <ele>1256.9</ele>
        <time>2015-06-28T08:38:15.000Z</time>
      </trkpt>
      <trkpt lat="45.38966" lon="4.61395">
        <ele>1254.7</ele>
        <time>2015-06-28T08:38:18.000Z</time>
      </trkpt>
      <trkpt lat="45.38957" lon="4.61418">
        <ele>1252.3</ele>
        <time>2015-06-28T08:38:23.000Z</time>
      </trkpt>
      <trkpt lat="45.38952" lon="4.61442">
        <ele>1250.2</ele>
        <time>2015-06-28T08:38:28.000Z</time>
      </trkpt>
      <trkpt lat="45.38944" lon="4.61467">
        <ele>1247.2</ele>
        <time>2015-06-28T08:38:34.000Z</time>
      </trkpt>
      <trkpt lat="45.38935" lon="4.61496">
        <ele>1244.3</ele>
        <time>2015-06-28T08:38:38.000Z</time>
      </trkpt>
      <trkpt lat="45.38927" lon="4.61514">
        <ele>1241.9</ele>
        <time>2015-06-28T08:38:42.000Z</time>
      </trkpt>
      <trkpt lat="45.38907" lon="4.61533">
        <ele>1238.9</ele>
        <time>2015-06-28T08:38:46.000Z</time>
      </trkpt>
      <trkpt lat="45.38902" lon="4.61537">
        <ele>1238.2</ele>
        <time>2015-06-28T08:38:47.000Z</time>
      </trkpt>
      <trkpt lat="45.38886" lon="4.61554">
        <ele>1236</ele>
        <time>2015-06-28T08:38:54.000Z</time>
      </trkpt>
      <trkpt lat="45.38885" lon="4.61557">
        <ele>1235.8</ele>
        <time>2015-06-28T08:38:55.000Z</time>
      </trkpt>
      <trkpt lat="45.38867" lon="4.61571">
        <ele>1234.5</ele>
        <time>2015-06-28T08:39:00.000Z</time>
      </trkpt>
      <trkpt lat="45.38856" lon="4.61574">
        <ele>1234.2</ele>
        <time>2015-06-28T08:39:02.000Z</time>
      </trkpt>
      <trkpt lat="45.38846" lon="4.61569">
        <ele>1233.9</ele>
        <time>2015-06-28T08:39:08.000Z</time>
      </trkpt>
      <trkpt lat="45.38848" lon="4.61564">
        <ele>1234</ele>
        <time>2015-06-28T08:41:40.000Z</time>
      </trkpt>
      <trkpt lat="45.38844" lon="4.61549">
        <ele>1233.7</ele>
        <time>2015-06-28T08:41:45.000Z</time>
      </trkpt>
      <trkpt lat="45.38841" lon="4.61518">
        <ele>1232.6</ele>
        <time>2015-06-28T08:41:51.000Z</time>
      </trkpt>
      <trkpt lat="45.38842" lon="4.61489">
        <ele>1231.8</ele>
        <time>2015-06-28T08:41:55.000Z</time>
      </trkpt>
      <trkpt lat="45.38843" lon="4.61472">
        <ele>1231.3</ele>
        <time>2015-06-28T08:41:57.000Z</time>
      </trkpt>
      <trkpt lat="45.38842" lon="4.61445">
        <ele>1230.3</ele>
        <time>2015-06-28T08:42:00.000Z</time>
      </trkpt>
      <trkpt lat="45.3884" lon="4.61437">
        <ele>1229.8</ele>
        <time>2015-06-28T08:42:01.000Z</time>
      </trkpt>
      <trkpt lat="45.38836" lon="4.61429">
        <ele>1229</ele>
        <time>2015-06-28T08:42:02.000Z</time>
      </trkpt>
      <trkpt lat="45.3882" lon="4.61415">
        <ele>1227</ele>
        <time>2015-06-28T08:42:05.000Z</time>
      </trkpt>
      <trkpt lat="45.38802" lon="4.6142">
        <ele>1225.6</ele>
        <time>2015-06-28T08:42:08.000Z</time>
      </trkpt>
      <trkpt lat="45.38793" lon="4.6143">
        <ele>1224.4</ele>
        <time>2015-06-28T08:42:10.000Z</time>
      </trkpt>
      <trkpt lat="45.38785" lon="4.61439">
        <ele>1223.7</ele>
        <time>2015-06-28T08:42:14.000Z</time>
      </trkpt>
      <trkpt lat="45.38771" lon="4.61454">
        <ele>1222.8</ele>
        <time>2015-06-28T08:42:19.000Z</time>
      </trkpt>
      <trkpt lat="45.38767" lon="4.61457">
        <ele>1222.4</ele>
        <time>2015-06-28T08:42:20.000Z</time>
      </trkpt>
      <trkpt lat="45.38744" lon="4.61471">
        <ele>1220.3</ele>
        <time>2015-06-28T08:42:24.000Z</time>
      </trkpt>
      <trkpt lat="45.38724" lon="4.61482">
        <ele>1219</ele>
        <time>2015-06-28T08:42:27.000Z</time>
      </trkpt>
      <trkpt lat="45.387" lon="4.61494">
        <ele>1217.2</ele>
        <time>2015-06-28T08:42:30.000Z</time>
      </trkpt>
      <trkpt lat="45.38682" lon="4.61502">
        <ele>1216</ele>
        <time>2015-06-28T08:42:32.000Z</time>
      </trkpt>
      <trkpt lat="45.38672" lon="4.61505">
        <ele>1215.4</ele>
        <time>2015-06-28T08:42:33.000Z</time>
      </trkpt>
      <trkpt lat="45.38652" lon="4.61507">
        <ele>1214.2</ele>
        <time>2015-06-28T08:42:35.000Z</time>
      </trkpt>
      <trkpt lat="45.38632" lon="4.61509">
        <ele>1212.8</ele>
        <time>2015-06-28T08:42:37.000Z</time>
      </trkpt>
      <trkpt lat="45.38622" lon="4.61511">
        <ele>1212.2</ele>
        <time>2015-06-28T08:42:38.000Z</time>
      </trkpt>
      <trkpt lat="45.38602" lon="4.61516">
        <ele>1211</ele>
        <time>2015-06-28T08:42:40.000Z</time>
      </trkpt>
      <trkpt lat="45.38582" lon="4.61522">
        <ele>1210.1</ele>
        <time>2015-06-28T08:42:42.000Z</time>
      </trkpt>
      <trkpt lat="45.38565" lon="4.6153">
        <ele>1209.2</ele>
        <time>2015-06-28T08:42:44.000Z</time>
      </trkpt>
      <trkpt lat="45.38543" lon="4.61542">
        <ele>1208.1</ele>
        <time>2015-06-28T08:42:47.000Z</time>
      </trkpt>
      <trkpt lat="45.38536" lon="4.61544">
        <ele>1207.5</ele>
        <time>2015-06-28T08:42:48.000Z</time>
      </trkpt>
      <trkpt lat="45.38514" lon="4.6155">
        <ele>1206.4</ele>
        <time>2015-06-28T08:42:52.000Z</time>
      </trkpt>
      <trkpt lat="45.38496" lon="4.61556">
        <ele>1204.5</ele>
        <time>2015-06-28T08:42:57.000Z</time>
      </trkpt>
      <trkpt lat="45.38493" lon="4.61559">
        <ele>1203.5</ele>
        <time>2015-06-28T08:44:38.000Z</time>
      </trkpt>
      <trkpt lat="45.38501" lon="4.61535">
        <ele>1206</ele>
        <time>2015-06-28T08:44:45.000Z</time>
      </trkpt>
      <trkpt lat="45.38501" lon="4.61531">
        <ele>1206</ele>
        <time>2015-06-28T08:44:46.000Z</time>
      </trkpt>
      <trkpt lat="45.3849" lon="4.6152">
        <ele>1204.3</ele>
        <time>2015-06-28T08:44:52.000Z</time>
      </trkpt>
      <trkpt lat="45.38486" lon="4.61516">
        <ele>1203.8</ele>
        <time>2015-06-28T08:44:56.000Z</time>
      </trkpt>
      <trkpt lat="45.38489" lon="4.61501">
        <ele>1203.4</ele>
        <time>2015-06-28T08:45:15.000Z</time>
      </trkpt>
      <trkpt lat="45.38472" lon="4.61495">
        <ele>1203.7</ele>
        <time>2015-06-28T08:45:30.000Z</time>
      </trkpt>
      <trkpt lat="45.38452" lon="4.61491">
        <ele>1204.3</ele>
        <time>2015-06-28T08:45:39.000Z</time>
      </trkpt>
      <trkpt lat="45.38435" lon="4.61487">
        <ele>1204.7</ele>
        <time>2015-06-28T08:45:47.000Z</time>
      </trkpt>
      <trkpt lat="45.38416" lon="4.61484">
        <ele>1205</ele>
        <time>2015-06-28T08:45:55.000Z</time>
      </trkpt>
      <trkpt lat="45.38397" lon="4.61484">
        <ele>1204.1</ele>
        <time>2015-06-28T08:46:02.000Z</time>
      </trkpt>
      <trkpt lat="45.3838" lon="4.61473">
        <ele>1204.5</ele>
        <time>2015-06-28T08:46:08.000Z</time>
      </trkpt>
      <trkpt lat="45.38364" lon="4.6146">
        <ele>1204</ele>
        <time>2015-06-28T08:46:15.000Z</time>
      </trkpt>
      <trkpt lat="45.38362" lon="4.61459">
        <ele>1204</ele>
        <time>2015-06-28T08:46:16.000Z</time>
      </trkpt>
      <trkpt lat="45.38353" lon="4.61454">
        <ele>1204.3</ele>
        <time>2015-06-28T08:46:20.000Z</time>
      </trkpt>
      <trkpt lat="45.38337" lon="4.61457">
        <ele>1204.9</ele>
        <time>2015-06-28T08:46:29.000Z</time>
      </trkpt>
      <trkpt lat="45.38318" lon="4.61456">
        <ele>1204.8</ele>
        <time>2015-06-28T08:46:36.000Z</time>
      </trkpt>
      <trkpt lat="45.38314" lon="4.61454">
        <ele>1204.9</ele>
        <time>2015-06-28T08:46:38.000Z</time>
      </trkpt>
      <trkpt lat="45.38295" lon="4.61449">
        <ele>1206</ele>
        <time>2015-06-28T08:46:48.000Z</time>
      </trkpt>
      <trkpt lat="45.38281" lon="4.6145">
        <ele>1205.8</ele>
        <time>2015-06-28T08:46:55.000Z</time>
      </trkpt>
      <trkpt lat="45.38273" lon="4.61447">
        <ele>1207.2</ele>
        <time>2015-06-28T08:47:00.000Z</time>
      </trkpt>
      <trkpt lat="45.38269" lon="4.61447">
        <ele>1207.2</ele>
        <time>2015-06-28T08:47:02.000Z</time>
      </trkpt>
      <trkpt lat="45.38262" lon="4.61451">
        <ele>1205.7</ele>
        <time>2015-06-28T08:47:06.000Z</time>
      </trkpt>
      <trkpt lat="45.38244" lon="4.61453">
        <ele>1205.2</ele>
        <time>2015-06-28T08:47:16.000Z</time>
      </trkpt>
      <trkpt lat="45.3824" lon="4.61451">
        <ele>1205.6</ele>
        <time>2015-06-28T08:47:18.000Z</time>
      </trkpt>
      <trkpt lat="45.38221" lon="4.61452">
        <ele>1204.9</ele>
        <time>2015-06-28T08:47:29.000Z</time>
      </trkpt>
      <trkpt lat="45.38203" lon="4.61456">
        <ele>1202.9</ele>
        <time>2015-06-28T08:47:37.000Z</time>
      </trkpt>
      <trkpt lat="45.38199" lon="4.61456">
        <ele>1202.6</ele>
        <time>2015-06-28T08:47:39.000Z</time>
      </trkpt>
      <trkpt lat="45.38182" lon="4.61456">
        <ele>1202.1</ele>
        <time>2015-06-28T08:47:49.000Z</time>
      </trkpt>
      <trkpt lat="45.38182" lon="4.61456">
        <ele>1202.1</ele>
        <time>2015-06-28T08:47:50.000Z</time>
      </trkpt>
      <trkpt lat="45.38169" lon="4.6146">
        <ele>1202.1</ele>
        <time>2015-06-28T08:48:14.000Z</time>
      </trkpt>
      <trkpt lat="45.38149" lon="4.61459">
        <ele>1199.5</ele>
        <time>2015-06-28T08:48:22.000Z</time>
      </trkpt>
      <trkpt lat="45.38129" lon="4.61457">
        <ele>1196.3</ele>
        <time>2015-06-28T08:48:29.000Z</time>
      </trkpt>
      <trkpt lat="45.38127" lon="4.61457">
        <ele>1196.1</ele>
        <time>2015-06-28T08:48:30.000Z</time>
      </trkpt>
      <trkpt lat="45.38118" lon="4.61464">
        <ele>1194.8</ele>
        <time>2015-06-28T08:48:35.000Z</time>
      </trkpt>
      <trkpt lat="45.38097" lon="4.61472">
        <ele>1192.4</ele>
        <time>2015-06-28T08:48:41.000Z</time>
      </trkpt>
      <trkpt lat="45.38078" lon="4.61476">
        <ele>1190.4</ele>
        <time>2015-06-28T08:48:45.000Z</time>
      </trkpt>
      <trkpt lat="45.38058" lon="4.61481">
        <ele>1189.1</ele>
        <time>2015-06-28T08:48:51.000Z</time>
      </trkpt>
      <trkpt lat="45.38056" lon="4.61483">
        <ele>1189</ele>
        <time>2015-06-28T08:48:52.000Z</time>
      </trkpt>
      <trkpt lat="45.38044" lon="4.61486">
        <ele>1187.4</ele>
        <time>2015-06-28T08:48:58.000Z</time>
      </trkpt>
      <trkpt lat="45.38027" lon="4.61492">
        <ele>1185</ele>
        <time>2015-06-28T08:49:05.000Z</time>
      </trkpt>
      <trkpt lat="45.38008" lon="4.61505">
        <ele>1183.8</ele>
        <time>2015-06-28T08:49:11.000Z</time>
      </trkpt>
      <trkpt lat="45.37989" lon="4.61515">
        <ele>1183.5</ele>
        <time>2015-06-28T08:49:17.000Z</time>
      </trkpt>
      <trkpt lat="45.37973" lon="4.61519">
        <ele>1184.7</ele>
        <time>2015-06-28T08:49:24.000Z</time>
      </trkpt>
      <trkpt lat="45.37956" lon="4.6152">
        <ele>1185.7</ele>
        <time>2015-06-28T08:49:56.000Z</time>
      </trkpt>
      <trkpt lat="45.37938" lon="4.61512">
        <ele>1186.5</ele>
        <time>2015-06-28T08:50:03.000Z</time>
      </trkpt>
      <trkpt lat="45.37919" lon="4.61505">
        <ele>1187.4</ele>
        <time>2015-06-28T08:50:09.000Z</time>
      </trkpt>
      <trkpt lat="45.379" lon="4.61498">
        <ele>1188.5</ele>
        <time>2015-06-28T08:50:17.000Z</time>
      </trkpt>
      <trkpt lat="45.37883" lon="4.61492">
        <ele>1189.8</ele>
        <time>2015-06-28T08:50:27.000Z</time>
      </trkpt>
      <trkpt lat="45.37869" lon="4.61486">
        <ele>1190.6</ele>
        <time>2015-06-28T08:50:35.000Z</time>
      </trkpt>
      <trkpt lat="45.37856" lon="4.6148">
        <ele>1191.2</ele>
        <time>2015-06-28T08:50:41.000Z</time>
      </trkpt>
      <trkpt lat="45.37838" lon="4.61472">
        <ele>1191.6</ele>
        <time>2015-06-28T08:50:50.000Z</time>
      </trkpt>
      <trkpt lat="45.3782" lon="4.61469">
        <ele>1192.6</ele>
        <time>2015-06-28T08:50:58.000Z</time>
      </trkpt>
      <trkpt lat="45.37801" lon="4.61463">
        <ele>1193.7</ele>
        <time>2015-06-28T08:51:06.000Z</time>
      </trkpt>
      <trkpt lat="45.37798" lon="4.61463">
        <ele>1193.9</ele>
        <time>2015-06-28T08:51:07.000Z</time>
      </trkpt>
      <trkpt lat="45.37789" lon="4.61464">
        <ele>1194.6</ele>
        <time>2015-06-28T08:51:11.000Z</time>
      </trkpt>
      <trkpt lat="45.3777" lon="4.61464">
        <ele>1195.8</ele>
        <time>2015-06-28T08:51:20.000Z</time>
      </trkpt>
      <trkpt lat="45.37752" lon="4.61464">
        <ele>1196.6</ele>
        <time>2015-06-28T08:51:30.000Z</time>
      </trkpt>
      <trkpt lat="45.37748" lon="4.61464">
        <ele>1196.7</ele>
        <time>2015-06-28T08:51:32.000Z</time>
      </trkpt>
      <trkpt lat="45.3773" lon="4.6147">
        <ele>1197</ele>
        <time>2015-06-28T08:51:41.000Z</time>
      </trkpt>
      <trkpt lat="45.37712" lon="4.61484">
        <ele>1197.1</ele>
        <time>2015-06-28T08:51:49.000Z</time>
      </trkpt>
      <trkpt lat="45.37694" lon="4.61502">
        <ele>1196</ele>
        <time>2015-06-28T08:51:55.000Z</time>
      </trkpt>
      <trkpt lat="45.3768" lon="4.6152">
        <ele>1194.7</ele>
        <time>2015-06-28T08:51:59.000Z</time>
      </trkpt>
      <trkpt lat="45.37674" lon="4.61531">
        <ele>1193.7</ele>
        <time>2015-06-28T08:52:03.000Z</time>
      </trkpt>
      <trkpt lat="45.37667" lon="4.6155">
        <ele>1191.5</ele>
        <time>2015-06-28T08:53:30.000Z</time>
      </trkpt>
      <trkpt lat="45.3766" lon="4.61568">
        <ele>1189</ele>
        <time>2015-06-28T08:53:33.000Z</time>
      </trkpt>
      <trkpt lat="45.37653" lon="4.61578">
        <ele>1187</ele>
        <time>2015-06-28T08:53:35.000Z</time>
      </trkpt>
      <trkpt lat="45.37642" lon="4.61602">
        <ele>1182.6</ele>
        <time>2015-06-28T08:53:40.000Z</time>
      </trkpt>
      <trkpt lat="45.37637" lon="4.61613">
        <ele>1180.4</ele>
        <time>2015-06-28T08:53:42.000Z</time>
      </trkpt>
      <trkpt lat="45.37635" lon="4.61619">
        <ele>1179.6</ele>
        <time>2015-06-28T08:53:43.000Z</time>
      </trkpt>
      <trkpt lat="45.37629" lon="4.61634">
        <ele>1177.1</ele>
        <time>2015-06-28T08:53:46.000Z</time>
      </trkpt>
      <trkpt lat="45.37617" lon="4.61658">
        <ele>1172.3</ele>
        <time>2015-06-28T08:53:52.000Z</time>
      </trkpt>
      <trkpt lat="45.37608" lon="4.61682">
        <ele>1168.5</ele>
        <time>2015-06-28T08:53:58.000Z</time>
      </trkpt>
      <trkpt lat="45.37605" lon="4.61693">
        <ele>1167.3</ele>
        <time>2015-06-28T08:54:02.000Z</time>
      </trkpt>
      <trkpt lat="45.376" lon="4.61711">
        <ele>1163.4</ele>
        <time>2015-06-28T08:54:35.000Z</time>
      </trkpt>
      <trkpt lat="45.37587" lon="4.6173">
        <ele>1158.4</ele>
        <time>2015-06-28T08:54:41.000Z</time>
      </trkpt>
      <trkpt lat="45.37585" lon="4.61731">
        <ele>1157.9</ele>
        <time>2015-06-28T08:54:42.000Z</time>
      </trkpt>
      <trkpt lat="45.37568" lon="4.61736">
        <ele>1153.9</ele>
        <time>2015-06-28T08:54:47.000Z</time>
      </trkpt>
      <trkpt lat="45.37546" lon="4.6174">
        <ele>1149.1</ele>
        <time>2015-06-28T08:54:53.000Z</time>
      </trkpt>
      <trkpt lat="45.37527" lon="4.61743">
        <ele>1145.2</ele>
        <time>2015-06-28T08:54:57.000Z</time>
      </trkpt>
      <trkpt lat="45.37508" lon="4.61747">
        <ele>1141.7</ele>
        <time>2015-06-28T08:55:02.000Z</time>
      </trkpt>
      <trkpt lat="45.37489" lon="4.6175">
        <ele>1138.4</ele>
        <time>2015-06-28T08:55:07.000Z</time>
      </trkpt>
      <trkpt lat="45.37469" lon="4.61754">
        <ele>1134.4</ele>
        <time>2015-06-28T08:55:12.000Z</time>
      </trkpt>
      <trkpt lat="45.3745" lon="4.61752">
        <ele>1131.3</ele>
        <time>2015-06-28T08:55:18.000Z</time>
      </trkpt>
      <trkpt lat="45.37432" lon="4.61755">
        <ele>1127.1</ele>
        <time>2015-06-28T08:55:28.000Z</time>
      </trkpt>
      <trkpt lat="45.37414" lon="4.61757">
        <ele>1123.3</ele>
        <time>2015-06-28T08:55:37.000Z</time>
      </trkpt>
      <trkpt lat="45.37406" lon="4.6176">
        <ele>1120.9</ele>
        <time>2015-06-28T08:55:40.000Z</time>
      </trkpt>
      <trkpt lat="45.37388" lon="4.61763">
        <ele>1116.1</ele>
        <time>2015-06-28T08:55:44.000Z</time>
      </trkpt>
      <trkpt lat="45.37383" lon="4.61765">
        <ele>1115.2</ele>
        <time>2015-06-28T08:55:45.000Z</time>
      </trkpt>
      <trkpt lat="45.37366" lon="4.61769">
        <ele>1112.7</ele>
        <time>2015-06-28T08:55:50.000Z</time>
      </trkpt>
      <trkpt lat="45.37348" lon="4.61763">
        <ele>1111.4</ele>
        <time>2015-06-28T08:56:48.000Z</time>
      </trkpt>
      <trkpt lat="45.37327" lon="4.61757">
        <ele>1108.2</ele>
        <time>2015-06-28T08:56:54.000Z</time>
      </trkpt>
      <trkpt lat="45.37307" lon="4.61755">
        <ele>1104.3</ele>
        <time>2015-06-28T08:56:58.000Z</time>
      </trkpt>
      <trkpt lat="45.37303" lon="4.61754">
        <ele>1103.6</ele>
        <time>2015-06-28T08:56:59.000Z</time>
      </trkpt>
      <trkpt lat="45.37285" lon="4.61744">
        <ele>1101.7</ele>
        <time>2015-06-28T08:57:03.000Z</time>
      </trkpt>
      <trkpt lat="45.37272" lon="4.61735">
        <ele>1100.5</ele>
        <time>2015-06-28T08:57:07.000Z</time>
      </trkpt>
      <trkpt lat="45.37264" lon="4.61731">
        <ele>1099.4</ele>
        <time>2015-06-28T08:57:09.000Z</time>
      </trkpt>
      <trkpt lat="45.37256" lon="4.61728">
        <ele>1098.2</ele>
        <time>2015-06-28T08:57:11.000Z</time>
      </trkpt>
      <trkpt lat="45.37248" lon="4.61727">
        <ele>1096.5</ele>
        <time>2015-06-28T08:57:13.000Z</time>
      </trkpt>
      <trkpt lat="45.3723" lon="4.61723">
        <ele>1092.6</ele>
        <time>2015-06-28T08:57:21.000Z</time>
      </trkpt>
      <trkpt lat="45.37221" lon="4.61718">
        <ele>1091.4</ele>
        <time>2015-06-28T08:57:23.000Z</time>
      </trkpt>
      <trkpt lat="45.37206" lon="4.61713">
        <ele>1088.2</ele>
        <time>2015-06-28T08:57:26.000Z</time>
      </trkpt>
      <trkpt lat="45.37187" lon="4.61713">
        <ele>1083.9</ele>
        <time>2015-06-28T08:57:31.000Z</time>
      </trkpt>
      <trkpt lat="45.37181" lon="4.6171">
        <ele>1083.3</ele>
        <time>2015-06-28T08:57:33.000Z</time>
      </trkpt>
      <trkpt lat="45.3716" lon="4.61712">
        <ele>1078.8</ele>
        <time>2015-06-28T08:57:38.000Z</time>
      </trkpt>
      <trkpt lat="45.37141" lon="4.61708">
        <ele>1076.5</ele>
        <time>2015-06-28T08:57:42.000Z</time>
      </trkpt>
      <trkpt lat="45.37121" lon="4.61703">
        <ele>1071.4</ele>
        <time>2015-06-28T08:57:47.000Z</time>
      </trkpt>
      <trkpt lat="45.37105" lon="4.61687">
        <ele>1070.2</ele>
        <time>2015-06-28T08:57:52.000Z</time>
      </trkpt>
      <trkpt lat="45.37096" lon="4.61676">
        <ele>1070</ele>
        <time>2015-06-28T08:57:54.000Z</time>
      </trkpt>
      <trkpt lat="45.37079" lon="4.6166">
        <ele>1068.4</ele>
        <time>2015-06-28T08:57:57.000Z</time>
      </trkpt>
      <trkpt lat="45.37061" lon="4.61639">
        <ele>1068.7</ele>
        <time>2015-06-28T08:58:00.000Z</time>
      </trkpt>
      <trkpt lat="45.37055" lon="4.61633">
        <ele>1068.1</ele>
        <time>2015-06-28T08:58:01.000Z</time>
      </trkpt>
      <trkpt lat="45.37039" lon="4.61614">
        <ele>1066.5</ele>
        <time>2015-06-28T08:58:04.000Z</time>
      </trkpt>
      <trkpt lat="45.37034" lon="4.6161">
        <ele>1065.9</ele>
        <time>2015-06-28T08:58:05.000Z</time>
      </trkpt>
      <trkpt lat="45.37016" lon="4.61606">
        <ele>1064</ele>
        <time>2015-06-28T08:58:08.000Z</time>
      </trkpt>
      <trkpt lat="45.36997" lon="4.61609">
        <ele>1061.7</ele>
        <time>2015-06-28T08:58:12.000Z</time>
      </trkpt>
      <trkpt lat="45.36979" lon="4.61617">
        <ele>1059.5</ele>
        <time>2015-06-28T08:58:18.000Z</time>
      </trkpt>
      <trkpt lat="45.36977" lon="4.61618">
        <ele>1059.2</ele>
        <time>2015-06-28T08:58:19.000Z</time>
      </trkpt>
      <trkpt lat="45.36958" lon="4.61622">
        <ele>1057.8</ele>
        <time>2015-06-28T08:58:26.000Z</time>
      </trkpt>
      <trkpt lat="45.36945" lon="4.6162">
        <ele>1057</ele>
        <time>2015-06-28T08:58:35.000Z</time>
      </trkpt>
      <trkpt lat="45.36929" lon="4.61626">
        <ele>1056.2</ele>
        <time>2015-06-28T08:59:04.000Z</time>
      </trkpt>
      <trkpt lat="45.36925" lon="4.6163">
        <ele>1056.1</ele>
        <time>2015-06-28T08:59:05.000Z</time>
      </trkpt>
      <trkpt lat="45.3691" lon="4.61648">
        <ele>1056.1</ele>
        <time>2015-06-28T08:59:09.000Z</time>
      </trkpt>
      <trkpt lat="45.36895" lon="4.61665">
        <ele>1056.7</ele>
        <time>2015-06-28T08:59:13.000Z</time>
      </trkpt>
      <trkpt lat="45.36888" lon="4.6167">
        <ele>1057.1</ele>
        <time>2015-06-28T08:59:15.000Z</time>
      </trkpt>
      <trkpt lat="45.36884" lon="4.61673">
        <ele>1057.3</ele>
        <time>2015-06-28T08:59:18.000Z</time>
      </trkpt>
      <trkpt lat="45.36877" lon="4.61669">
        <ele>1057.1</ele>
        <time>2015-06-28T08:59:24.000Z</time>
      </trkpt>
      <trkpt lat="45.3686" lon="4.61652">
        <ele>1056.5</ele>
        <time>2015-06-28T08:59:30.000Z</time>
      </trkpt>
      <trkpt lat="45.36855" lon="4.6165">
        <ele>1056.5</ele>
        <time>2015-06-28T08:59:31.000Z</time>
      </trkpt>
      <trkpt lat="45.36839" lon="4.61646">
        <ele>1056.5</ele>
        <time>2015-06-28T08:59:35.000Z</time>
      </trkpt>
      <trkpt lat="45.36822" lon="4.6164">
        <ele>1056.1</ele>
        <time>2015-06-28T08:59:39.000Z</time>
      </trkpt>
      <trkpt lat="45.368" lon="4.61635">
        <ele>1056.1</ele>
        <time>2015-06-28T08:59:44.000Z</time>
      </trkpt>
      <trkpt lat="45.36782" lon="4.61629">
        <ele>1056.7</ele>
        <time>2015-06-28T08:59:48.000Z</time>
      </trkpt>
      <trkpt lat="45.36778" lon="4.61627">
        <ele>1056.7</ele>
        <time>2015-06-28T08:59:49.000Z</time>
      </trkpt>
      <trkpt lat="45.36758" lon="4.6162">
        <ele>1056.7</ele>
        <time>2015-06-28T08:59:54.000Z</time>
      </trkpt>
      <trkpt lat="45.36747" lon="4.61618">
        <ele>1056.8</ele>
        <time>2015-06-28T08:59:57.000Z</time>
      </trkpt>
      <trkpt lat="45.36728" lon="4.61615">
        <ele>1057.2</ele>
        <time>2015-06-28T09:00:02.000Z</time>
      </trkpt>
      <trkpt lat="45.36706" lon="4.61617">
        <ele>1057.6</ele>
        <time>2015-06-28T09:00:07.000Z</time>
      </trkpt>
      <trkpt lat="45.36685" lon="4.6162">
        <ele>1058.2</ele>
        <time>2015-06-28T09:00:12.000Z</time>
      </trkpt>
      <trkpt lat="45.36682" lon="4.61619">
        <ele>1058.4</ele>
        <time>2015-06-28T09:00:13.000Z</time>
      </trkpt>
      <trkpt lat="45.36671" lon="4.6162">
        <ele>1058.8</ele>
        <time>2015-06-28T09:00:16.000Z</time>
      </trkpt>
      <trkpt lat="45.36653" lon="4.6162">
        <ele>1059.4</ele>
        <time>2015-06-28T09:00:21.000Z</time>
      </trkpt>
      <trkpt lat="45.36634" lon="4.61609">
        <ele>1059.1</ele>
        <time>2015-06-28T09:00:26.000Z</time>
      </trkpt>
      <trkpt lat="45.3662" lon="4.61599">
        <ele>1059.1</ele>
        <time>2015-06-28T09:00:29.000Z</time>
      </trkpt>
      <trkpt lat="45.3661" lon="4.61593">
        <ele>1059</ele>
        <time>2015-06-28T09:00:31.000Z</time>
      </trkpt>
      <trkpt lat="45.36592" lon="4.61584">
        <ele>1058.8</ele>
        <time>2015-06-28T09:00:35.000Z</time>
      </trkpt>
      <trkpt lat="45.36588" lon="4.61582">
        <ele>1058.7</ele>
        <time>2015-06-28T09:00:36.000Z</time>
      </trkpt>
      <trkpt lat="45.36568" lon="4.6158">
        <ele>1059.7</ele>
        <time>2015-06-28T09:00:41.000Z</time>
      </trkpt>
      <trkpt lat="45.36547" lon="4.61577">
        <ele>1060.6</ele>
        <time>2015-06-28T09:00:46.000Z</time>
      </trkpt>
      <trkpt lat="45.36526" lon="4.61569">
        <ele>1061.1</ele>
        <time>2015-06-28T09:00:51.000Z</time>
      </trkpt>
      <trkpt lat="45.36508" lon="4.61566">
        <ele>1061.9</ele>
        <time>2015-06-28T09:00:56.000Z</time>
      </trkpt>
      <trkpt lat="45.36488" lon="4.61564">
        <ele>1062.9</ele>
        <time>2015-06-28T09:01:01.000Z</time>
      </trkpt>
      <trkpt lat="45.36468" lon="4.61564">
        <ele>1064.5</ele>
        <time>2015-06-28T09:01:07.000Z</time>
      </trkpt>
      <trkpt lat="45.3645" lon="4.61558">
        <ele>1065.7</ele>
        <time>2015-06-28T09:01:15.000Z</time>
      </trkpt>
      <trkpt lat="45.36431" lon="4.61552">
        <ele>1067.3</ele>
        <time>2015-06-28T09:01:22.000Z</time>
      </trkpt>
      <trkpt lat="45.36429" lon="4.61551">
        <ele>1067.6</ele>
        <time>2015-06-28T09:01:23.000Z</time>
      </trkpt>
      <trkpt lat="45.36409" lon="4.61548">
        <ele>1069.8</ele>
        <time>2015-06-28T09:01:31.000Z</time>
      </trkpt>
      <trkpt lat="45.36389" lon="4.61546">
        <ele>1071.6</ele>
        <time>2015-06-28T09:01:39.000Z</time>
      </trkpt>
      <trkpt lat="45.36371" lon="4.61544">
        <ele>1073.5</ele>
        <time>2015-06-28T09:01:47.000Z</time>
      </trkpt>
      <trkpt lat="45.36353" lon="4.61542">
        <ele>1075</ele>
        <time>2015-06-28T09:01:55.000Z</time>
      </trkpt>
      <trkpt lat="45.36333" lon="4.61536">
        <ele>1075.9</ele>
        <time>2015-06-28T09:02:03.000Z</time>
      </trkpt>
      <trkpt lat="45.36315" lon="4.61535">
        <ele>1076.3</ele>
        <time>2015-06-28T09:02:11.000Z</time>
      </trkpt>
      <trkpt lat="45.36296" lon="4.61533">
        <ele>1076.5</ele>
        <time>2015-06-28T09:02:19.000Z</time>
      </trkpt>
      <trkpt lat="45.36276" lon="4.6154">
        <ele>1078</ele>
        <time>2015-06-28T09:02:27.000Z</time>
      </trkpt>
      <trkpt lat="45.36259" lon="4.61551">
        <ele>1078.1</ele>
        <time>2015-06-28T09:02:37.000Z</time>
      </trkpt>
      <trkpt lat="45.36241" lon="4.61564">
        <ele>1077.5</ele>
        <time>2015-06-28T09:02:47.000Z</time>
      </trkpt>
      <trkpt lat="45.36226" lon="4.61581">
        <ele>1077.3</ele>
        <time>2015-06-28T09:02:53.000Z</time>
      </trkpt>
      <trkpt lat="45.36208" lon="4.61597">
        <ele>1076</ele>
        <time>2015-06-28T09:02:58.000Z</time>
      </trkpt>
      <trkpt lat="45.36189" lon="4.61612">
        <ele>1075.2</ele>
        <time>2015-06-28T09:03:03.000Z</time>
      </trkpt>
      <trkpt lat="45.36173" lon="4.6163">
        <ele>1074.9</ele>
        <time>2015-06-28T09:03:07.000Z</time>
      </trkpt>
      <trkpt lat="45.36158" lon="4.61646">
        <ele>1074.9</ele>
        <time>2015-06-28T09:03:11.000Z</time>
      </trkpt>
      <trkpt lat="45.36148" lon="4.61659">
        <ele>1075.2</ele>
        <time>2015-06-28T09:03:15.000Z</time>
      </trkpt>
      <trkpt lat="45.36137" lon="4.61672">
        <ele>1075.3</ele>
        <time>2015-06-28T09:03:19.000Z</time>
      </trkpt>
      <trkpt lat="45.36123" lon="4.61692">
        <ele>1075.5</ele>
        <time>2015-06-28T09:03:23.000Z</time>
      </trkpt>
      <trkpt lat="45.36121" lon="4.61697">
        <ele>1075.5</ele>
        <time>2015-06-28T09:03:24.000Z</time>
      </trkpt>
      <trkpt lat="45.36116" lon="4.61704">
        <ele>1075.1</ele>
        <time>2015-06-28T09:03:27.000Z</time>
      </trkpt>
      <trkpt lat="45.36115" lon="4.61709">
        <ele>1075</ele>
        <time>2015-06-28T09:04:21.000Z</time>
      </trkpt>
      <trkpt lat="45.36101" lon="4.61714">
        <ele>1075.5</ele>
        <time>2015-06-28T09:04:25.000Z</time>
      </trkpt>
      <trkpt lat="45.3608" lon="4.6172">
        <ele>1077</ele>
        <time>2015-06-28T09:04:31.000Z</time>
      </trkpt>
      <trkpt lat="45.3606" lon="4.6173">
        <ele>1077.5</ele>
        <time>2015-06-28T09:04:37.000Z</time>
      </trkpt>
      <trkpt lat="45.36042" lon="4.61742">
        <ele>1077.3</ele>
        <time>2015-06-28T09:04:42.000Z</time>
      </trkpt>
      <trkpt lat="45.36025" lon="4.61758">
        <ele>1076.2</ele>
        <time>2015-06-28T09:04:46.000Z</time>
      </trkpt>
      <trkpt lat="45.36009" lon="4.6177">
        <ele>1074.8</ele>
        <time>2015-06-28T09:04:49.000Z</time>
      </trkpt>
      <trkpt lat="45.36003" lon="4.61773">
        <ele>1074.5</ele>
        <time>2015-06-28T09:04:50.000Z</time>
      </trkpt>
      <trkpt lat="45.35981" lon="4.61785">
        <ele>1072</ele>
        <time>2015-06-28T09:04:53.000Z</time>
      </trkpt>
      <trkpt lat="45.35961" lon="4.61796">
        <ele>1069.5</ele>
        <time>2015-06-28T09:04:56.000Z</time>
      </trkpt>
      <trkpt lat="45.3595" lon="4.61801">
        <ele>1067.9</ele>
        <time>2015-06-28T09:04:59.000Z</time>
      </trkpt>
      <trkpt lat="45.35942" lon="4.61809">
        <ele>1066.4</ele>
        <time>2015-06-28T09:05:03.000Z</time>
      </trkpt>
      <trkpt lat="45.35932" lon="4.61831">
        <ele>1062.9</ele>
        <time>2015-06-28T09:05:11.000Z</time>
      </trkpt>
      <trkpt lat="45.35927" lon="4.61856">
        <ele>1058.8</ele>
        <time>2015-06-28T09:05:18.000Z</time>
      </trkpt>
      <trkpt lat="45.35922" lon="4.61882">
        <ele>1054.5</ele>
        <time>2015-06-28T09:05:27.000Z</time>
      </trkpt>
      <trkpt lat="45.35916" lon="4.6191">
        <ele>1049.2</ele>
        <time>2015-06-28T09:05:35.000Z</time>
      </trkpt>
      <trkpt lat="45.35909" lon="4.6194">
        <ele>1043.6</ele>
        <time>2015-06-28T09:05:42.000Z</time>
      </trkpt>
      <trkpt lat="45.35903" lon="4.61964">
        <ele>1039.7</ele>
        <time>2015-06-28T09:05:48.000Z</time>
      </trkpt>
      <trkpt lat="45.35895" lon="4.61989">
        <ele>1036.3</ele>
        <time>2015-06-28T09:05:56.000Z</time>
      </trkpt>
      <trkpt lat="45.35891" lon="4.62018">
        <ele>1032.4</ele>
        <time>2015-06-28T09:06:01.000Z</time>
      </trkpt>
      <trkpt lat="45.35892" lon="4.62023">
        <ele>1031.7</ele>
        <time>2015-06-28T09:06:02.000Z</time>
      </trkpt>
      <trkpt lat="45.35892" lon="4.6204">
        <ele>1029.2</ele>
        <time>2015-06-28T09:06:06.000Z</time>
      </trkpt>
      <trkpt lat="45.35893" lon="4.62049">
        <ele>1028</ele>
        <time>2015-06-28T09:06:09.000Z</time>
      </trkpt>
      <trkpt lat="45.35892" lon="4.62063">
        <ele>1025.9</ele>
        <time>2015-06-28T09:06:13.000Z</time>
      </trkpt>
      <trkpt lat="45.35886" lon="4.62092">
        <ele>1021.1</ele>
        <time>2015-06-28T09:06:25.000Z</time>
      </trkpt>
      <trkpt lat="45.35884" lon="4.62105">
        <ele>1018.5</ele>
        <time>2015-06-28T09:06:29.000Z</time>
      </trkpt>
      <trkpt lat="45.35883" lon="4.62109">
        <ele>1017.8</ele>
        <time>2015-06-28T09:06:50.000Z</time>
      </trkpt>
      <trkpt lat="45.35876" lon="4.62135">
        <ele>1012.3</ele>
        <time>2015-06-28T09:06:58.000Z</time>
      </trkpt>
      <trkpt lat="45.35871" lon="4.6216">
        <ele>1007.8</ele>
        <time>2015-06-28T09:07:07.000Z</time>
      </trkpt>
      <trkpt lat="45.35871" lon="4.62167">
        <ele>1006.7</ele>
        <time>2015-06-28T09:07:10.000Z</time>
      </trkpt>
      <trkpt lat="45.35872" lon="4.62182">
        <ele>1004.5</ele>
        <time>2015-06-28T09:07:14.000Z</time>
      </trkpt>
      <trkpt lat="45.35875" lon="4.62209">
        <ele>1000.4</ele>
        <time>2015-06-28T09:07:22.000Z</time>
      </trkpt>
      <trkpt lat="45.35875" lon="4.62212">
        <ele>1000</ele>
        <time>2015-06-28T09:07:23.000Z</time>
      </trkpt>
      <trkpt lat="45.35871" lon="4.62238">
        <ele>995.8</ele>
        <time>2015-06-28T09:07:30.000Z</time>
      </trkpt>
      <trkpt lat="45.35869" lon="4.62246">
        <ele>994.6</ele>
        <time>2015-06-28T09:07:33.000Z</time>
      </trkpt>
      <trkpt lat="45.35873" lon="4.62245">
        <ele>994.7</ele>
        <time>2015-06-28T09:10:39.000Z</time>
      </trkpt>
      <trkpt lat="45.35872" lon="4.62242">
        <ele>995.2</ele>
        <time>2015-06-28T09:12:07.000Z</time>
      </trkpt>
      <trkpt lat="45.35874" lon="4.62266">
        <ele>991.3</ele>
        <time>2015-06-28T09:12:31.000Z</time>
      </trkpt>
      <trkpt lat="45.35881" lon="4.62291">
        <ele>986.8</ele>
        <time>2015-06-28T09:12:39.000Z</time>
      </trkpt>
      <trkpt lat="45.35898" lon="4.62309">
        <ele>982.7</ele>
        <time>2015-06-28T09:12:45.000Z</time>
      </trkpt>
      <trkpt lat="45.359" lon="4.6231">
        <ele>982.3</ele>
        <time>2015-06-28T09:12:46.000Z</time>
      </trkpt>
      <trkpt lat="45.35914" lon="4.6233">
        <ele>977.7</ele>
        <time>2015-06-28T09:12:53.000Z</time>
      </trkpt>
      <trkpt lat="45.35917" lon="4.6233">
        <ele>977.6</ele>
        <time>2015-06-28T09:12:54.000Z</time>
      </trkpt>
      <trkpt lat="45.35935" lon="4.62329">
        <ele>975.9</ele>
        <time>2015-06-28T09:13:04.000Z</time>
      </trkpt>
      <trkpt lat="45.35937" lon="4.62331">
        <ele>975.3</ele>
        <time>2015-06-28T09:13:05.000Z</time>
      </trkpt>
      <trkpt lat="45.3595" lon="4.62345">
        <ele>971.5</ele>
        <time>2015-06-28T09:13:12.000Z</time>
      </trkpt>
      <trkpt lat="45.35959" lon="4.62358">
        <ele>969</ele>
        <time>2015-06-28T09:13:20.000Z</time>
      </trkpt>
      <trkpt lat="45.35945" lon="4.62367">
        <ele>967.6</ele>
        <time>2015-06-28T09:13:28.000Z</time>
      </trkpt>
      <trkpt lat="45.35928" lon="4.6238">
        <ele>964.3</ele>
        <time>2015-06-28T09:13:34.000Z</time>
      </trkpt>
      <trkpt lat="45.3591" lon="4.62386">
        <ele>962.6</ele>
        <time>2015-06-28T09:13:39.000Z</time>
      </trkpt>
      <trkpt lat="45.35892" lon="4.62394">
        <ele>959.7</ele>
        <time>2015-06-28T09:13:43.000Z</time>
      </trkpt>
      <trkpt lat="45.35888" lon="4.62396">
        <ele>959.3</ele>
        <time>2015-06-28T09:13:44.000Z</time>
      </trkpt>
      <trkpt lat="45.35867" lon="4.62403">
        <ele>957.8</ele>
        <time>2015-06-28T09:13:48.000Z</time>
      </trkpt>
      <trkpt lat="45.35857" lon="4.62406">
        <ele>957.5</ele>
        <time>2015-06-28T09:13:50.000Z</time>
      </trkpt>
      <trkpt lat="45.35836" lon="4.62414">
        <ele>956.5</ele>
        <time>2015-06-28T09:13:54.000Z</time>
      </trkpt>
      <trkpt lat="45.35826" lon="4.62418">
        <ele>955.5</ele>
        <time>2015-06-28T09:13:56.000Z</time>
      </trkpt>
      <trkpt lat="45.3581" lon="4.62422">
        <ele>953.6</ele>
        <time>2015-06-28T09:14:00.000Z</time>
      </trkpt>
      <trkpt lat="45.35792" lon="4.62433">
        <ele>948.9</ele>
        <time>2015-06-28T09:14:04.000Z</time>
      </trkpt>
      <trkpt lat="45.35781" lon="4.62437">
        <ele>947</ele>
        <time>2015-06-28T09:14:06.000Z</time>
      </trkpt>
      <trkpt lat="45.35758" lon="4.62438">
        <ele>944.5</ele>
        <time>2015-06-28T09:14:10.000Z</time>
      </trkpt>
      <trkpt lat="45.35739" lon="4.62441">
        <ele>943</ele>
        <time>2015-06-28T09:14:13.000Z</time>
      </trkpt>
      <trkpt lat="45.35733" lon="4.62442">
        <ele>942.6</ele>
        <time>2015-06-28T09:14:14.000Z</time>
      </trkpt>
      <trkpt lat="45.35724" lon="4.62467">
        <ele>941.2</ele>
        <time>2015-06-28T09:14:19.000Z</time>
      </trkpt>
      <trkpt lat="45.35716" lon="4.62496">
        <ele>939.3</ele>
        <time>2015-06-28T09:14:24.000Z</time>
      </trkpt>
      <trkpt lat="45.35704" lon="4.62509">
        <ele>939</ele>
        <time>2015-06-28T09:14:33.000Z</time>
      </trkpt>
      <trkpt lat="45.35687" lon="4.62497">
        <ele>939.1</ele>
        <time>2015-06-28T09:15:16.000Z</time>
      </trkpt>
      <trkpt lat="45.35669" lon="4.62485">
        <ele>938.6</ele>
        <time>2015-06-28T09:15:21.000Z</time>
      </trkpt>
      <trkpt lat="45.35652" lon="4.62472">
        <ele>938</ele>
        <time>2015-06-28T09:15:25.000Z</time>
      </trkpt>
      <trkpt lat="45.35637" lon="4.62462">
        <ele>937.8</ele>
        <time>2015-06-28T09:15:28.000Z</time>
      </trkpt>
      <trkpt lat="45.35619" lon="4.62458">
        <ele>935.8</ele>
        <time>2015-06-28T09:15:31.000Z</time>
      </trkpt>
      <trkpt lat="45.35612" lon="4.62457">
        <ele>935</ele>
        <time>2015-06-28T09:15:32.000Z</time>
      </trkpt>
      <trkpt lat="45.35594" lon="4.62456">
        <ele>933.3</ele>
        <time>2015-06-28T09:15:35.000Z</time>
      </trkpt>
      <trkpt lat="45.3559" lon="4.62457">
        <ele>933</ele>
        <time>2015-06-28T09:15:36.000Z</time>
      </trkpt>
      <trkpt lat="45.35574" lon="4.62462">
        <ele>931.4</ele>
        <time>2015-06-28T09:15:40.000Z</time>
      </trkpt>
      <trkpt lat="45.35555" lon="4.62456">
        <ele>927.6</ele>
        <time>2015-06-28T09:15:48.000Z</time>
      </trkpt>
      <trkpt lat="45.35537" lon="4.62447">
        <ele>923.7</ele>
        <time>2015-06-28T09:15:54.000Z</time>
      </trkpt>
      <trkpt lat="45.35533" lon="4.62444">
        <ele>922.8</ele>
        <time>2015-06-28T09:15:55.000Z</time>
      </trkpt>
      <trkpt lat="45.35515" lon="4.62438">
        <ele>920</ele>
        <time>2015-06-28T09:16:00.000Z</time>
      </trkpt>
      <trkpt lat="45.35508" lon="4.62438">
        <ele>919.3</ele>
        <time>2015-06-28T09:16:02.000Z</time>
      </trkpt>
      <trkpt lat="45.35489" lon="4.62443">
        <ele>917.7</ele>
        <time>2015-06-28T09:16:07.000Z</time>
      </trkpt>
      <trkpt lat="45.35471" lon="4.62449">
        <ele>916.5</ele>
        <time>2015-06-28T09:16:11.000Z</time>
      </trkpt>
      <trkpt lat="45.35452" lon="4.62445">
        <ele>913.2</ele>
        <time>2015-06-28T09:16:15.000Z</time>
      </trkpt>
      <trkpt lat="45.35448" lon="4.62441">
        <ele>912.3</ele>
        <time>2015-06-28T09:16:16.000Z</time>
      </trkpt>
      <trkpt lat="45.35433" lon="4.62425">
        <ele>909.2</ele>
        <time>2015-06-28T09:16:20.000Z</time>
      </trkpt>
      <trkpt lat="45.35429" lon="4.62421">
        <ele>908.6</ele>
        <time>2015-06-28T09:16:21.000Z</time>
      </trkpt>
      <trkpt lat="45.3541" lon="4.62423">
        <ele>906.1</ele>
        <time>2015-06-28T09:16:26.000Z</time>
      </trkpt>
      <trkpt lat="45.35394" lon="4.62431">
        <ele>903.5</ele>
        <time>2015-06-28T09:16:32.000Z</time>
      </trkpt>
      <trkpt lat="45.35397" lon="4.62404">
        <ele>902.5</ele>
        <time>2015-06-28T09:16:42.000Z</time>
      </trkpt>
      <trkpt lat="45.35398" lon="4.624">
        <ele>902.3</ele>
        <time>2015-06-28T09:16:43.000Z</time>
      </trkpt>
      <trkpt lat="45.354" lon="4.62374">
        <ele>900.6</ele>
        <time>2015-06-28T09:16:48.000Z</time>
      </trkpt>
      <trkpt lat="45.354" lon="4.62348">
        <ele>899.3</ele>
        <time>2015-06-28T09:16:52.000Z</time>
      </trkpt>
      <trkpt lat="45.35399" lon="4.62318">
        <ele>898.4</ele>
        <time>2015-06-28T09:16:56.000Z</time>
      </trkpt>
      <trkpt lat="45.35396" lon="4.62286">
        <ele>898</ele>
        <time>2015-06-28T09:17:00.000Z</time>
      </trkpt>
      <trkpt lat="45.35395" lon="4.62269">
        <ele>897.6</ele>
        <time>2015-06-28T09:17:02.000Z</time>
      </trkpt>
      <trkpt lat="45.35387" lon="4.62242">
        <ele>895.9</ele>
        <time>2015-06-28T09:17:05.000Z</time>
      </trkpt>
      <trkpt lat="45.35368" lon="4.62218">
        <ele>893.1</ele>
        <time>2015-06-28T09:17:08.000Z</time>
      </trkpt>
      <trkpt lat="45.35353" lon="4.622">
        <ele>891.9</ele>
        <time>2015-06-28T09:17:10.000Z</time>
      </trkpt>
      <trkpt lat="45.35345" lon="4.62191">
        <ele>890.8</ele>
        <time>2015-06-28T09:17:11.000Z</time>
      </trkpt>
      <trkpt lat="45.35329" lon="4.62171">
        <ele>889.2</ele>
        <time>2015-06-28T09:17:13.000Z</time>
      </trkpt>
      <trkpt lat="45.35312" lon="4.62151">
        <ele>887.8</ele>
        <time>2015-06-28T09:17:15.000Z</time>
      </trkpt>
      <trkpt lat="45.35295" lon="4.62132">
        <ele>886.8</ele>
        <time>2015-06-28T09:17:17.000Z</time>
      </trkpt>
      <trkpt lat="45.35281" lon="4.62114">
        <ele>887.1</ele>
        <time>2015-06-28T09:17:19.000Z</time>
      </trkpt>
      <trkpt lat="45.35266" lon="4.62089">
        <ele>884.5</ele>
        <time>2015-06-28T09:17:23.000Z</time>
      </trkpt>
      <trkpt lat="45.35263" lon="4.62082">
        <ele>883.8</ele>
        <time>2015-06-28T09:17:24.000Z</time>
      </trkpt>
      <trkpt lat="45.35255" lon="4.62059">
        <ele>883.1</ele>
        <time>2015-06-28T09:17:28.000Z</time>
      </trkpt>
      <trkpt lat="45.35241" lon="4.62039">
        <ele>881.6</ele>
        <time>2015-06-28T09:17:34.000Z</time>
      </trkpt>
      <trkpt lat="45.35228" lon="4.62017">
        <ele>879.8</ele>
        <time>2015-06-28T09:17:40.000Z</time>
      </trkpt>
      <trkpt lat="45.35224" lon="4.62008">
        <ele>879</ele>
        <time>2015-06-28T09:17:43.000Z</time>
      </trkpt>
      <trkpt lat="45.35214" lon="4.61979">
        <ele>877</ele>
        <time>2015-06-28T09:17:50.000Z</time>
      </trkpt>
      <trkpt lat="45.35207" lon="4.61951">
        <ele>874.8</ele>
        <time>2015-06-28T09:17:54.000Z</time>
      </trkpt>
      <trkpt lat="45.352" lon="4.61921">
        <ele>872.6</ele>
        <time>2015-06-28T09:17:58.000Z</time>
      </trkpt>
      <trkpt lat="45.35195" lon="4.61894">
        <ele>871.9</ele>
        <time>2015-06-28T09:18:01.000Z</time>
      </trkpt>
      <trkpt lat="45.35193" lon="4.61876">
        <ele>871</ele>
        <time>2015-06-28T09:18:03.000Z</time>
      </trkpt>
      <trkpt lat="45.35191" lon="4.61848">
        <ele>869.5</ele>
        <time>2015-06-28T09:18:06.000Z</time>
      </trkpt>
      <trkpt lat="45.35187" lon="4.61818">
        <ele>867.4</ele>
        <time>2015-06-28T09:18:09.000Z</time>
      </trkpt>
      <trkpt lat="45.35184" lon="4.61809">
        <ele>866.4</ele>
        <time>2015-06-28T09:18:10.000Z</time>
      </trkpt>
      <trkpt lat="45.35172" lon="4.61782">
        <ele>863.1</ele>
        <time>2015-06-28T09:18:13.000Z</time>
      </trkpt>
      <trkpt lat="45.35162" lon="4.61752">
        <ele>861.1</ele>
        <time>2015-06-28T09:18:16.000Z</time>
      </trkpt>
      <trkpt lat="45.35152" lon="4.61722">
        <ele>859.9</ele>
        <time>2015-06-28T09:18:19.000Z</time>
      </trkpt>
      <trkpt lat="45.35143" lon="4.61699">
        <ele>857</ele>
        <time>2015-06-28T09:18:23.000Z</time>
      </trkpt>
      <trkpt lat="45.35141" lon="4.61697">
        <ele>856.6</ele>
        <time>2015-06-28T09:18:24.000Z</time>
      </trkpt>
      <trkpt lat="45.35134" lon="4.6171">
        <ele>855.8</ele>
        <time>2015-06-28T09:18:29.000Z</time>
      </trkpt>
      <trkpt lat="45.35123" lon="4.6173">
        <ele>853.9</ele>
        <time>2015-06-28T09:18:34.000Z</time>
      </trkpt>
      <trkpt lat="45.3511" lon="4.6175">
        <ele>850.8</ele>
        <time>2015-06-28T09:18:43.000Z</time>
      </trkpt>
      <trkpt lat="45.3511" lon="4.61751">
        <ele>850.7</ele>
        <time>2015-06-28T09:18:44.000Z</time>
      </trkpt>
      <trkpt lat="45.3511" lon="4.61753">
        <ele>850.6</ele>
        <time>2015-06-28T09:18:47.000Z</time>
      </trkpt>
      <trkpt lat="45.35104" lon="4.61759">
        <ele>849.1</ele>
        <time>2015-06-28T09:18:51.000Z</time>
      </trkpt>
      <trkpt lat="45.35102" lon="4.61762">
        <ele>848.6</ele>
        <time>2015-06-28T09:18:53.000Z</time>
      </trkpt>
      <trkpt lat="45.35087" lon="4.61748">
        <ele>846</ele>
        <time>2015-06-28T09:19:19.000Z</time>
      </trkpt>
      <trkpt lat="45.35076" lon="4.61728">
        <ele>844.8</ele>
        <time>2015-06-28T09:19:23.000Z</time>
      </trkpt>
      <trkpt lat="45.35056" lon="4.61718">
        <ele>842.1</ele>
        <time>2015-06-28T09:19:28.000Z</time>
      </trkpt>
      <trkpt lat="45.35046" lon="4.61718">
        <ele>841</ele>
        <time>2015-06-28T09:19:30.000Z</time>
      </trkpt>
      <trkpt lat="45.35036" lon="4.61718">
        <ele>839.9</ele>
        <time>2015-06-28T09:19:32.000Z</time>
      </trkpt>
      <trkpt lat="45.35016" lon="4.61708">
        <ele>837.7</ele>
        <time>2015-06-28T09:19:36.000Z</time>
      </trkpt>
      <trkpt lat="45.35008" lon="4.61696">
        <ele>836.9</ele>
        <time>2015-06-28T09:19:38.000Z</time>
      </trkpt>
      <trkpt lat="45.35" lon="4.61685">
        <ele>836</ele>
        <time>2015-06-28T09:19:40.000Z</time>
      </trkpt>
      <trkpt lat="45.34976" lon="4.61681">
        <ele>834.3</ele>
        <time>2015-06-28T09:19:44.000Z</time>
      </trkpt>
      <trkpt lat="45.34969" lon="4.61682">
        <ele>833.8</ele>
        <time>2015-06-28T09:19:45.000Z</time>
      </trkpt>
      <trkpt lat="45.34963" lon="4.61681">
        <ele>833.2</ele>
        <time>2015-06-28T09:19:46.000Z</time>
      </trkpt>
      <trkpt lat="45.34943" lon="4.61674">
        <ele>831.2</ele>
        <time>2015-06-28T09:19:49.000Z</time>
      </trkpt>
      <trkpt lat="45.34936" lon="4.61674">
        <ele>831</ele>
        <time>2015-06-28T09:19:50.000Z</time>
      </trkpt>
      <trkpt lat="45.34918" lon="4.61682">
        <ele>830.6</ele>
        <time>2015-06-28T09:19:53.000Z</time>
      </trkpt>
      <trkpt lat="45.3491" lon="4.61686">
        <ele>830.4</ele>
        <time>2015-06-28T09:19:55.000Z</time>
      </trkpt>
      <trkpt lat="45.34906" lon="4.61687">
        <ele>830.3</ele>
        <time>2015-06-28T09:19:57.000Z</time>
      </trkpt>
      <trkpt lat="45.34898" lon="4.61685">
        <ele>829.8</ele>
        <time>2015-06-28T09:20:03.000Z</time>
      </trkpt>
      <trkpt lat="45.34884" lon="4.61686">
        <ele>829.3</ele>
        <time>2015-06-28T09:20:09.000Z</time>
      </trkpt>
      <trkpt lat="45.34885" lon="4.61658">
        <ele>828</ele>
        <time>2015-06-28T09:20:16.000Z</time>
      </trkpt>
      <trkpt lat="45.34885" lon="4.61647">
        <ele>827.9</ele>
        <time>2015-06-28T09:20:18.000Z</time>
      </trkpt>
      <trkpt lat="45.34889" lon="4.61619">
        <ele>827.3</ele>
        <time>2015-06-28T09:20:23.000Z</time>
      </trkpt>
      <trkpt lat="45.34893" lon="4.61591">
        <ele>827.2</ele>
        <time>2015-06-28T09:20:28.000Z</time>
      </trkpt>
      <trkpt lat="45.34895" lon="4.61562">
        <ele>826.5</ele>
        <time>2015-06-28T09:20:33.000Z</time>
      </trkpt>
      <trkpt lat="45.34897" lon="4.61536">
        <ele>825.8</ele>
        <time>2015-06-28T09:20:47.000Z</time>
      </trkpt>
      <trkpt lat="45.34898" lon="4.61519">
        <ele>825.4</ele>
        <time>2015-06-28T09:20:54.000Z</time>
      </trkpt>
      <trkpt lat="45.34901" lon="4.61504">
        <ele>825.3</ele>
        <time>2015-06-28T09:21:02.000Z</time>
      </trkpt>
      <trkpt lat="45.34906" lon="4.61478">
        <ele>825</ele>
        <time>2015-06-28T09:21:11.000Z</time>
      </trkpt>
      <trkpt lat="45.34911" lon="4.61451">
        <ele>823.8</ele>
        <time>2015-06-28T09:21:19.000Z</time>
      </trkpt>
      <trkpt lat="45.34915" lon="4.61422">
        <ele>822.9</ele>
        <time>2015-06-28T09:21:26.000Z</time>
      </trkpt>
      <trkpt lat="45.34916" lon="4.61394">
        <ele>822.1</ele>
        <time>2015-06-28T09:21:32.000Z</time>
      </trkpt>
      <trkpt lat="45.34912" lon="4.6137">
        <ele>820.5</ele>
        <time>2015-06-28T09:21:39.000Z</time>
      </trkpt>
      <trkpt lat="45.34909" lon="4.61364">
        <ele>820</ele>
        <time>2015-06-28T09:21:41.000Z</time>
      </trkpt>
      <trkpt lat="45.34899" lon="4.61338">
        <ele>819</ele>
        <time>2015-06-28T09:21:49.000Z</time>
      </trkpt>
      <trkpt lat="45.34889" lon="4.61315">
        <ele>818.6</ele>
        <time>2015-06-28T09:21:56.000Z</time>
      </trkpt>
      <trkpt lat="45.34878" lon="4.61293">
        <ele>818.1</ele>
        <time>2015-06-28T09:22:04.000Z</time>
      </trkpt>
      <trkpt lat="45.34876" lon="4.61292">
        <ele>817.9</ele>
        <time>2015-06-28T09:22:05.000Z</time>
      </trkpt>
      <trkpt lat="45.3486" lon="4.61305">
        <ele>815.9</ele>
        <time>2015-06-28T09:22:10.000Z</time>
      </trkpt>
      <trkpt lat="45.34844" lon="4.61317">
        <ele>813.7</ele>
        <time>2015-06-28T09:22:13.000Z</time>
      </trkpt>
      <trkpt lat="45.34832" lon="4.61325">
        <ele>812.2</ele>
        <time>2015-06-28T09:22:15.000Z</time>
      </trkpt>
      <trkpt lat="45.34814" lon="4.61334">
        <ele>810.6</ele>
        <time>2015-06-28T09:22:19.000Z</time>
      </trkpt>
      <trkpt lat="45.34809" lon="4.61335">
        <ele>810.3</ele>
        <time>2015-06-28T09:22:21.000Z</time>
      </trkpt>
      <trkpt lat="45.34815" lon="4.61336">
        <ele>810.7</ele>
        <time>2015-06-28T09:22:31.000Z</time>
      </trkpt>
      <trkpt lat="45.34823" lon="4.61333">
        <ele>811.3</ele>
        <time>2015-06-28T09:22:38.000Z</time>
      </trkpt>
      <trkpt lat="45.34839" lon="4.61321">
        <ele>813.1</ele>
        <time>2015-06-28T09:23:05.000Z</time>
      </trkpt>
      <trkpt lat="45.34858" lon="4.61308">
        <ele>815.5</ele>
        <time>2015-06-28T09:23:13.000Z</time>
      </trkpt>
      <trkpt lat="45.34873" lon="4.61292">
        <ele>817.5</ele>
        <time>2015-06-28T09:23:20.000Z</time>
      </trkpt>
      <trkpt lat="45.34885" lon="4.6127">
        <ele>819.2</ele>
        <time>2015-06-28T09:23:28.000Z</time>
      </trkpt>
      <trkpt lat="45.34888" lon="4.61265">
        <ele>819.4</ele>
        <time>2015-06-28T09:23:30.000Z</time>
      </trkpt>
      <trkpt lat="45.34878" lon="4.61243">
        <ele>817.7</ele>
        <time>2015-06-28T09:23:37.000Z</time>
      </trkpt>
      <trkpt lat="45.34881" lon="4.61216">
        <ele>817.6</ele>
        <time>2015-06-28T09:23:42.000Z</time>
      </trkpt>
      <trkpt lat="45.34882" lon="4.6121">
        <ele>817.6</ele>
        <time>2015-06-28T09:23:43.000Z</time>
      </trkpt>
      <trkpt lat="45.34884" lon="4.61184">
        <ele>816.6</ele>
        <time>2015-06-28T09:23:47.000Z</time>
      </trkpt>
      <trkpt lat="45.34885" lon="4.61178">
        <ele>816.2</ele>
        <time>2015-06-28T09:23:48.000Z</time>
      </trkpt>
      <trkpt lat="45.34875" lon="4.61157">
        <ele>813.3</ele>
        <time>2015-06-28T09:24:23.000Z</time>
      </trkpt>
      <trkpt lat="45.34858" lon="4.61146">
        <ele>810.9</ele>
        <time>2015-06-28T09:24:27.000Z</time>
      </trkpt>
      <trkpt lat="45.34854" lon="4.61142">
        <ele>810.2</ele>
        <time>2015-06-28T09:24:28.000Z</time>
      </trkpt>
      <trkpt lat="45.34843" lon="4.61126">
        <ele>807.9</ele>
        <time>2015-06-28T09:24:32.000Z</time>
      </trkpt>
      <trkpt lat="45.34835" lon="4.61096">
        <ele>805.3</ele>
        <time>2015-06-28T09:24:37.000Z</time>
      </trkpt>
      <trkpt lat="45.34829" lon="4.61076">
        <ele>804.5</ele>
        <time>2015-06-28T09:24:40.000Z</time>
      </trkpt>
      <trkpt lat="45.34822" lon="4.61058">
        <ele>803.3</ele>
        <time>2015-06-28T09:24:44.000Z</time>
      </trkpt>
      <trkpt lat="45.34823" lon="4.61032">
        <ele>802.4</ele>
        <time>2015-06-28T09:24:51.000Z</time>
      </trkpt>
      <trkpt lat="45.34831" lon="4.61009">
        <ele>802.2</ele>
        <time>2015-06-28T09:25:02.000Z</time>
      </trkpt>
      <trkpt lat="45.34839" lon="4.60984">
        <ele>801.4</ele>
        <time>2015-06-28T09:25:07.000Z</time>
      </trkpt>
      <trkpt lat="45.34845" lon="4.60973">
        <ele>801.2</ele>
        <time>2015-06-28T09:25:09.000Z</time>
      </trkpt>
      <trkpt lat="45.34858" lon="4.60955">
        <ele>800.8</ele>
        <time>2015-06-28T09:25:13.000Z</time>
      </trkpt>
      <trkpt lat="45.34861" lon="4.60952">
        <ele>800.7</ele>
        <time>2015-06-28T09:25:14.000Z</time>
      </trkpt>
      <trkpt lat="45.34865" lon="4.60946">
        <ele>800.8</ele>
        <time>2015-06-28T09:25:17.000Z</time>
      </trkpt>
      <trkpt lat="45.34854" lon="4.60961">
        <ele>801.2</ele>
        <time>2015-06-28T09:26:40.000Z</time>
      </trkpt>
      <trkpt lat="45.34842" lon="4.60984">
        <ele>801.7</ele>
        <time>2015-06-28T09:26:46.000Z</time>
      </trkpt>
      <trkpt lat="45.34832" lon="4.6101">
        <ele>802.3</ele>
        <time>2015-06-28T09:26:52.000Z</time>
      </trkpt>
      <trkpt lat="45.34823" lon="4.61034">
        <ele>802.5</ele>
        <time>2015-06-28T09:26:57.000Z</time>
      </trkpt>
      <trkpt lat="45.34824" lon="4.61061">
        <ele>803.6</ele>
        <time>2015-06-28T09:27:03.000Z</time>
      </trkpt>
      <trkpt lat="45.34832" lon="4.61087">
        <ele>804.9</ele>
        <time>2015-06-28T09:27:10.000Z</time>
      </trkpt>
      <trkpt lat="45.34839" lon="4.61112">
        <ele>806.3</ele>
        <time>2015-06-28T09:27:17.000Z</time>
      </trkpt>
      <trkpt lat="45.34843" lon="4.61139">
        <ele>808.4</ele>
        <time>2015-06-28T09:27:24.000Z</time>
      </trkpt>
      <trkpt lat="45.34837" lon="4.61163">
        <ele>809.2</ele>
        <time>2015-06-28T09:27:30.000Z</time>
      </trkpt>
      <trkpt lat="45.34829" lon="4.61188">
        <ele>810.9</ele>
        <time>2015-06-28T09:27:37.000Z</time>
      </trkpt>
      <trkpt lat="45.34828" lon="4.61215">
        <ele>811.6</ele>
        <time>2015-06-28T09:27:44.000Z</time>
      </trkpt>
      <trkpt lat="45.34824" lon="4.61241">
        <ele>812.1</ele>
        <time>2015-06-28T09:27:51.000Z</time>
      </trkpt>
      <trkpt lat="45.34824" lon="4.61251">
        <ele>812.3</ele>
        <time>2015-06-28T09:27:55.000Z</time>
      </trkpt>
      <trkpt lat="45.34803" lon="4.61248">
        <ele>810.6</ele>
        <time>2015-06-28T09:28:06.000Z</time>
      </trkpt>
      <trkpt lat="45.34799" lon="4.61245">
        <ele>809.9</ele>
        <time>2015-06-28T09:28:08.000Z</time>
      </trkpt>
      <trkpt lat="45.34801" lon="4.61242">
        <ele>810.1</ele>
        <time>2015-06-28T09:28:41.000Z</time>
      </trkpt>
      <trkpt lat="45.34805" lon="4.61246">
        <ele>810.7</ele>
        <time>2015-06-28T09:28:44.000Z</time>
      </trkpt>
      <trkpt lat="45.34823" lon="4.61254">
        <ele>812.3</ele>
        <time>2015-06-28T09:28:52.000Z</time>
      </trkpt>
      <trkpt lat="45.34834" lon="4.61269">
        <ele>813.7</ele>
        <time>2015-06-28T09:28:59.000Z</time>
      </trkpt>
      <trkpt lat="45.34834" lon="4.61271">
        <ele>813.8</ele>
        <time>2015-06-28T09:29:00.000Z</time>
      </trkpt>
      <trkpt lat="45.34832" lon="4.61269">
        <ele>813.6</ele>
        <time>2015-06-28T09:29:14.000Z</time>
      </trkpt>
      <trkpt lat="45.34831" lon="4.61268">
        <ele>813.4</ele>
        <time>2015-06-28T09:29:15.000Z</time>
      </trkpt>
      <trkpt lat="45.34832" lon="4.61272">
        <ele>813.6</ele>
        <time>2015-06-28T09:29:23.000Z</time>
      </trkpt>
      <trkpt lat="45.34824" lon="4.61258">
        <ele>812.5</ele>
        <time>2015-06-28T09:29:31.000Z</time>
      </trkpt>
      <trkpt lat="45.34803" lon="4.61253">
        <ele>810.7</ele>
        <time>2015-06-28T09:29:36.000Z</time>
      </trkpt>
      <trkpt lat="45.34799" lon="4.61248">
        <ele>810</ele>
        <time>2015-06-28T09:29:37.000Z</time>
      </trkpt>
      <trkpt lat="45.34784" lon="4.61224">
        <ele>807.7</ele>
        <time>2015-06-28T09:29:41.000Z</time>
      </trkpt>
      <trkpt lat="45.34782" lon="4.6122">
        <ele>807.4</ele>
        <time>2015-06-28T09:29:42.000Z</time>
      </trkpt>
      <trkpt lat="45.34779" lon="4.61216">
        <ele>807</ele>
        <time>2015-06-28T09:29:43.000Z</time>
      </trkpt>
      <trkpt lat="45.3477" lon="4.6119">
        <ele>804.8</ele>
        <time>2015-06-28T09:29:47.000Z</time>
      </trkpt>
      <trkpt lat="45.34759" lon="4.61168">
        <ele>803</ele>
        <time>2015-06-28T09:29:50.000Z</time>
      </trkpt>
      <trkpt lat="45.34741" lon="4.61149">
        <ele>799.7</ele>
        <time>2015-06-28T09:29:53.000Z</time>
      </trkpt>
      <trkpt lat="45.34728" lon="4.61135">
        <ele>797.5</ele>
        <time>2015-06-28T09:29:55.000Z</time>
      </trkpt>
      <trkpt lat="45.34706" lon="4.6112">
        <ele>795.2</ele>
        <time>2015-06-28T09:29:58.000Z</time>
      </trkpt>
      <trkpt lat="45.34699" lon="4.61117">
        <ele>794.6</ele>
        <time>2015-06-28T09:29:59.000Z</time>
      </trkpt>
      <trkpt lat="45.34681" lon="4.6111">
        <ele>792.5</ele>
        <time>2015-06-28T09:30:02.000Z</time>
      </trkpt>
      <trkpt lat="45.34678" lon="4.61108">
        <ele>791.9</ele>
        <time>2015-06-28T09:30:03.000Z</time>
      </trkpt>
      <trkpt lat="45.3466" lon="4.61094">
        <ele>788.2</ele>
        <time>2015-06-28T09:30:08.000Z</time>
      </trkpt>
      <trkpt lat="45.34652" lon="4.61091">
        <ele>786.8</ele>
        <time>2015-06-28T09:30:10.000Z</time>
      </trkpt>
      <trkpt lat="45.34643" lon="4.61082">
        <ele>784.6</ele>
        <time>2015-06-28T09:30:13.000Z</time>
      </trkpt>
      <trkpt lat="45.3463" lon="4.61059">
        <ele>781.9</ele>
        <time>2015-06-28T09:30:17.000Z</time>
      </trkpt>
      <trkpt lat="45.34623" lon="4.61046">
        <ele>780.4</ele>
        <time>2015-06-28T09:30:20.000Z</time>
      </trkpt>
      <trkpt lat="45.34618" lon="4.61037">
        <ele>779.4</ele>
        <time>2015-06-28T09:30:23.000Z</time>
      </trkpt>
      <trkpt lat="45.34615" lon="4.6101">
        <ele>777.3</ele>
        <time>2015-06-28T09:30:29.000Z</time>
      </trkpt>
      <trkpt lat="45.34615" lon="4.61005">
        <ele>776.9</ele>
        <time>2015-06-28T09:30:30.000Z</time>
      </trkpt>
      <trkpt lat="45.34619" lon="4.60978">
        <ele>774</ele>
        <time>2015-06-28T09:30:37.000Z</time>
      </trkpt>
      <trkpt lat="45.34624" lon="4.60952">
        <ele>771.5</ele>
        <time>2015-06-28T09:30:45.000Z</time>
      </trkpt>
      <trkpt lat="45.34627" lon="4.60924">
        <ele>768.2</ele>
        <time>2015-06-28T09:30:54.000Z</time>
      </trkpt>
      <trkpt lat="45.34631" lon="4.60899">
        <ele>767.6</ele>
        <time>2015-06-28T09:31:00.000Z</time>
      </trkpt>
      <trkpt lat="45.3463" lon="4.60892">
        <ele>767.4</ele>
        <time>2015-06-28T09:31:03.000Z</time>
      </trkpt>
      <trkpt lat="45.34632" lon="4.60888">
        <ele>767.6</ele>
        <time>2015-06-28T09:31:06.000Z</time>
      </trkpt>
      <trkpt lat="45.34639" lon="4.60879">
        <ele>769</ele>
        <time>2015-06-28T09:31:24.000Z</time>
      </trkpt>
      <trkpt lat="45.34648" lon="4.60862">
        <ele>770.9</ele>
        <time>2015-06-28T09:31:35.000Z</time>
      </trkpt>
      <trkpt lat="45.34659" lon="4.60842">
        <ele>775.3</ele>
        <time>2015-06-28T09:32:01.000Z</time>
      </trkpt>
      <trkpt lat="45.34657" lon="4.6084">
        <ele>775.6</ele>
        <time>2015-06-28T09:32:04.000Z</time>
      </trkpt>
      <trkpt lat="45.34661" lon="4.60813">
        <ele>778.8</ele>
        <time>2015-06-28T09:32:23.000Z</time>
      </trkpt>
      <trkpt lat="45.3466" lon="4.60792">
        <ele>779.8</ele>
        <time>2015-06-28T09:32:31.000Z</time>
      </trkpt>
      <trkpt lat="45.34645" lon="4.60779">
        <ele>782.1</ele>
        <time>2015-06-28T09:32:42.000Z</time>
      </trkpt>
      <trkpt lat="45.34629" lon="4.60765">
        <ele>785.5</ele>
        <time>2015-06-28T09:32:54.000Z</time>
      </trkpt>
      <trkpt lat="45.34614" lon="4.6075">
        <ele>788.7</ele>
        <time>2015-06-28T09:33:06.000Z</time>
      </trkpt>
      <trkpt lat="45.34597" lon="4.6074">
        <ele>791.6</ele>
        <time>2015-06-28T09:33:18.000Z</time>
      </trkpt>
      <trkpt lat="45.34582" lon="4.60724">
        <ele>795.7</ele>
        <time>2015-06-28T09:33:30.000Z</time>
      </trkpt>
      <trkpt lat="45.3457" lon="4.60702">
        <ele>798.5</ele>
        <time>2015-06-28T09:33:43.000Z</time>
      </trkpt>
      <trkpt lat="45.34558" lon="4.60681">
        <ele>801</ele>
        <time>2015-06-28T09:33:56.000Z</time>
      </trkpt>
      <trkpt lat="45.34548" lon="4.6066">
        <ele>803.4</ele>
        <time>2015-06-28T09:34:08.000Z</time>
      </trkpt>
      <trkpt lat="45.34538" lon="4.60638">
        <ele>805.3</ele>
        <time>2015-06-28T09:34:20.000Z</time>
      </trkpt>
      <trkpt lat="45.34528" lon="4.60614">
        <ele>808.6</ele>
        <time>2015-06-28T09:34:34.000Z</time>
      </trkpt>
      <trkpt lat="45.34519" lon="4.60592">
        <ele>811.8</ele>
        <time>2015-06-28T09:34:46.000Z</time>
      </trkpt>
      <trkpt lat="45.34508" lon="4.60569">
        <ele>815.5</ele>
        <time>2015-06-28T09:34:59.000Z</time>
      </trkpt>
      <trkpt lat="45.34507" lon="4.60568">
        <ele>815.8</ele>
        <time>2015-06-28T09:35:00.000Z</time>
      </trkpt>
      <trkpt lat="45.345" lon="4.60549">
        <ele>818.2</ele>
        <time>2015-06-28T09:35:10.000Z</time>
      </trkpt>
      <trkpt lat="45.34489" lon="4.60527">
        <ele>820.2</ele>
        <time>2015-06-28T09:35:24.000Z</time>
      </trkpt>
      <trkpt lat="45.34478" lon="4.60507">
        <ele>821.7</ele>
        <time>2015-06-28T09:35:38.000Z</time>
      </trkpt>
      <trkpt lat="45.34464" lon="4.60489">
        <ele>823.4</ele>
        <time>2015-06-28T09:35:50.000Z</time>
      </trkpt>
      <trkpt lat="45.3445" lon="4.60471">
        <ele>826.4</ele>
        <time>2015-06-28T09:36:00.000Z</time>
      </trkpt>
      <trkpt lat="45.34442" lon="4.60447">
        <ele>828.5</ele>
        <time>2015-06-28T09:36:12.000Z</time>
      </trkpt>
      <trkpt lat="45.34442" lon="4.60441">
        <ele>829.2</ele>
        <time>2015-06-28T09:36:15.000Z</time>
      </trkpt>
      <trkpt lat="45.34444" lon="4.60413">
        <ele>832.1</ele>
        <time>2015-06-28T09:36:27.000Z</time>
      </trkpt>
      <trkpt lat="45.34444" lon="4.60411">
        <ele>832.2</ele>
        <time>2015-06-28T09:36:28.000Z</time>
      </trkpt>
      <trkpt lat="45.34445" lon="4.60409">
        <ele>832.3</ele>
        <time>2015-06-28T09:36:29.000Z</time>
      </trkpt>
      <trkpt lat="45.34446" lon="4.60404">
        <ele>832.5</ele>
        <time>2015-06-28T09:36:31.000Z</time>
      </trkpt>
      <trkpt lat="45.34448" lon="4.60395">
        <ele>832.9</ele>
        <time>2015-06-28T09:38:07.000Z</time>
      </trkpt>
      <trkpt lat="45.34447" lon="4.60407">
        <ele>832.4</ele>
        <time>2015-06-28T09:38:21.000Z</time>
      </trkpt>
      <trkpt lat="45.34442" lon="4.60434">
        <ele>829.9</ele>
        <time>2015-06-28T09:38:30.000Z</time>
      </trkpt>
      <trkpt lat="45.34441" lon="4.60438">
        <ele>829.4</ele>
        <time>2015-06-28T09:38:32.000Z</time>
      </trkpt>
      <trkpt lat="45.34444" lon="4.60457">
        <ele>827.7</ele>
        <time>2015-06-28T09:38:40.000Z</time>
      </trkpt>
      <trkpt lat="45.34444" lon="4.60456">
        <ele>827.7</ele>
        <time>2015-06-28T09:39:00.000Z</time>
      </trkpt>
      <trkpt lat="45.34442" lon="4.60437">
        <ele>829.5</ele>
        <time>2015-06-28T09:39:10.000Z</time>
      </trkpt>
      <trkpt lat="45.34445" lon="4.60417">
        <ele>831.9</ele>
        <time>2015-06-28T09:39:19.000Z</time>
      </trkpt>
      <trkpt lat="45.34446" lon="4.60411">
        <ele>832.3</ele>
        <time>2015-06-28T09:39:23.000Z</time>
      </trkpt>
      <trkpt lat="45.34446" lon="4.604">
        <ele>832.6</ele>
        <time>2015-06-28T09:39:28.000Z</time>
      </trkpt>
      <trkpt lat="45.34434" lon="4.60379">
        <ele>832.4</ele>
        <time>2015-06-28T09:39:36.000Z</time>
      </trkpt>
      <trkpt lat="45.34417" lon="4.6036">
        <ele>832.1</ele>
        <time>2015-06-28T09:39:42.000Z</time>
      </trkpt>
      <trkpt lat="45.34407" lon="4.60336">
        <ele>830.9</ele>
        <time>2015-06-28T09:39:47.000Z</time>
      </trkpt>
      <trkpt lat="45.34406" lon="4.60315">
        <ele>830.4</ele>
        <time>2015-06-28T09:39:51.000Z</time>
      </trkpt>
      <trkpt lat="45.34407" lon="4.60287">
        <ele>829.7</ele>
        <time>2015-06-28T09:39:56.000Z</time>
      </trkpt>
      <trkpt lat="45.34412" lon="4.60259">
        <ele>830.6</ele>
        <time>2015-06-28T09:40:01.000Z</time>
      </trkpt>
      <trkpt lat="45.34415" lon="4.60232">
        <ele>830.2</ele>
        <time>2015-06-28T09:40:06.000Z</time>
      </trkpt>
      <trkpt lat="45.34417" lon="4.60224">
        <ele>830.3</ele>
        <time>2015-06-28T09:40:08.000Z</time>
      </trkpt>
      <trkpt lat="45.34423" lon="4.60223">
        <ele>832</ele>
        <time>2015-06-28T09:40:12.000Z</time>
      </trkpt>
      <trkpt lat="45.34424" lon="4.60224">
        <ele>832.1</ele>
        <time>2015-06-28T09:40:13.000Z</time>
      </trkpt>
      <trkpt lat="45.34429" lon="4.6025">
        <ele>834.6</ele>
        <time>2015-06-28T09:40:28.000Z</time>
      </trkpt>
      <trkpt lat="45.3444" lon="4.60265">
        <ele>836.5</ele>
        <time>2015-06-28T09:40:41.000Z</time>
      </trkpt>
      <trkpt lat="45.34449" lon="4.60269">
        <ele>838.2</ele>
        <time>2015-06-28T09:40:48.000Z</time>
      </trkpt>
      <trkpt lat="45.34462" lon="4.60281">
        <ele>840.2</ele>
        <time>2015-06-28T09:40:59.000Z</time>
      </trkpt>
      <trkpt lat="45.3448" lon="4.60279">
        <ele>843.6</ele>
        <time>2015-06-28T09:41:12.000Z</time>
      </trkpt>
      <trkpt lat="45.3448" lon="4.60279">
        <ele>843.6</ele>
        <time>2015-06-28T09:41:13.000Z</time>
      </trkpt>
      <trkpt lat="45.34483" lon="4.60281">
        <ele>844.2</ele>
        <time>2015-06-28T09:41:21.000Z</time>
      </trkpt>
      <trkpt lat="45.34484" lon="4.60273">
        <ele>844.5</ele>
        <time>2015-06-28T09:45:09.000Z</time>
      </trkpt>
      <trkpt lat="45.34498" lon="4.60264">
        <ele>847.6</ele>
        <time>2015-06-28T09:46:00.000Z</time>
      </trkpt>
      <trkpt lat="45.34505" lon="4.60252">
        <ele>849</ele>
        <time>2015-06-28T09:46:08.000Z</time>
      </trkpt>
      <trkpt lat="45.34508" lon="4.60226">
        <ele>850.7</ele>
        <time>2015-06-28T09:46:20.000Z</time>
      </trkpt>
      <trkpt lat="45.34511" lon="4.60203">
        <ele>852.5</ele>
        <time>2015-06-28T09:46:32.000Z</time>
      </trkpt>
      <trkpt lat="45.34515" lon="4.60184">
        <ele>854.2</ele>
        <time>2015-06-28T09:46:41.000Z</time>
      </trkpt>
      <trkpt lat="45.34516" lon="4.60159">
        <ele>856</ele>
        <time>2015-06-28T09:46:54.000Z</time>
      </trkpt>
      <trkpt lat="45.3452" lon="4.60139">
        <ele>858.4</ele>
        <time>2015-06-28T09:47:03.000Z</time>
      </trkpt>
      <trkpt lat="45.34532" lon="4.60118">
        <ele>861.6</ele>
        <time>2015-06-28T09:47:16.000Z</time>
      </trkpt>
      <trkpt lat="45.34531" lon="4.60116">
        <ele>861.7</ele>
        <time>2015-06-28T09:47:17.000Z</time>
      </trkpt>
      <trkpt lat="45.34532" lon="4.60102">
        <ele>862.5</ele>
        <time>2015-06-28T09:47:26.000Z</time>
      </trkpt>
      <trkpt lat="45.34533" lon="4.60077">
        <ele>864.1</ele>
        <time>2015-06-28T09:47:40.000Z</time>
      </trkpt>
      <trkpt lat="45.34533" lon="4.60069">
        <ele>864.8</ele>
        <time>2015-06-28T09:47:44.000Z</time>
      </trkpt>
      <trkpt lat="45.3453" lon="4.6005">
        <ele>865.5</ele>
        <time>2015-06-28T09:47:56.000Z</time>
      </trkpt>
      <trkpt lat="45.34527" lon="4.60028">
        <ele>867.7</ele>
        <time>2015-06-28T09:48:24.000Z</time>
      </trkpt>
      <trkpt lat="45.34522" lon="4.60003">
        <ele>870.2</ele>
        <time>2015-06-28T09:48:35.000Z</time>
      </trkpt>
      <trkpt lat="45.34517" lon="4.59977">
        <ele>871.9</ele>
        <time>2015-06-28T09:48:47.000Z</time>
      </trkpt>
      <trkpt lat="45.3451" lon="4.59953">
        <ele>873.6</ele>
        <time>2015-06-28T09:49:01.000Z</time>
      </trkpt>
      <trkpt lat="45.3451" lon="4.59951">
        <ele>874</ele>
        <time>2015-06-28T09:49:02.000Z</time>
      </trkpt>
      <trkpt lat="45.34507" lon="4.59926">
        <ele>876.4</ele>
        <time>2015-06-28T09:49:14.000Z</time>
      </trkpt>
      <trkpt lat="45.34507" lon="4.59899">
        <ele>879.6</ele>
        <time>2015-06-28T09:49:29.000Z</time>
      </trkpt>
      <trkpt lat="45.34508" lon="4.5989">
        <ele>881.1</ele>
        <time>2015-06-28T09:49:34.000Z</time>
      </trkpt>
      <trkpt lat="45.34512" lon="4.59864">
        <ele>883.6</ele>
        <time>2015-06-28T09:49:49.000Z</time>
      </trkpt>
      <trkpt lat="45.34513" lon="4.59861">
        <ele>883.9</ele>
        <time>2015-06-28T09:49:51.000Z</time>
      </trkpt>
      <trkpt lat="45.34518" lon="4.59845">
        <ele>884.9</ele>
        <time>2015-06-28T09:52:17.000Z</time>
      </trkpt>
      <trkpt lat="45.34517" lon="4.59842">
        <ele>884.7</ele>
        <time>2015-06-28T09:52:18.000Z</time>
      </trkpt>
      <trkpt lat="45.34504" lon="4.5983">
        <ele>881.8</ele>
        <time>2015-06-28T09:52:23.000Z</time>
      </trkpt>
      <trkpt lat="45.34486" lon="4.59818">
        <ele>878.7</ele>
        <time>2015-06-28T09:52:30.000Z</time>
      </trkpt>
      <trkpt lat="45.34481" lon="4.59814">
        <ele>878.1</ele>
        <time>2015-06-28T09:52:32.000Z</time>
      </trkpt>
      <trkpt lat="45.34467" lon="4.59818">
        <ele>875.4</ele>
        <time>2015-06-28T09:52:38.000Z</time>
      </trkpt>
      <trkpt lat="45.34456" lon="4.59842">
        <ele>873.7</ele>
        <time>2015-06-28T09:52:43.000Z</time>
      </trkpt>
      <trkpt lat="45.34453" lon="4.59847">
        <ele>873.4</ele>
        <time>2015-06-28T09:52:44.000Z</time>
      </trkpt>
      <trkpt lat="45.34436" lon="4.59845">
        <ele>870.9</ele>
        <time>2015-06-28T09:52:49.000Z</time>
      </trkpt>
      <trkpt lat="45.34435" lon="4.59819">
        <ele>868.9</ele>
        <time>2015-06-28T09:53:03.000Z</time>
      </trkpt>
      <trkpt lat="45.34439" lon="4.59792">
        <ele>867.2</ele>
        <time>2015-06-28T09:53:12.000Z</time>
      </trkpt>
      <trkpt lat="45.34441" lon="4.59762">
        <ele>864.7</ele>
        <time>2015-06-28T09:53:20.000Z</time>
      </trkpt>
      <trkpt lat="45.34444" lon="4.59733">
        <ele>863.2</ele>
        <time>2015-06-28T09:53:25.000Z</time>
      </trkpt>
      <trkpt lat="45.34444" lon="4.59719">
        <ele>862.5</ele>
        <time>2015-06-28T09:53:27.000Z</time>
      </trkpt>
      <trkpt lat="45.34445" lon="4.59689">
        <ele>859.9</ele>
        <time>2015-06-28T09:53:31.000Z</time>
      </trkpt>
      <trkpt lat="45.34444" lon="4.59681">
        <ele>859.5</ele>
        <time>2015-06-28T09:53:32.000Z</time>
      </trkpt>
      <trkpt lat="45.3444" lon="4.59654">
        <ele>858.9</ele>
        <time>2015-06-28T09:53:38.000Z</time>
      </trkpt>
      <trkpt lat="45.34428" lon="4.59634">
        <ele>858.9</ele>
        <time>2015-06-28T09:53:47.000Z</time>
      </trkpt>
      <trkpt lat="45.34406" lon="4.59635">
        <ele>857.2</ele>
        <time>2015-06-28T09:53:56.000Z</time>
      </trkpt>
      <trkpt lat="45.34386" lon="4.59636">
        <ele>856.2</ele>
        <time>2015-06-28T09:54:00.000Z</time>
      </trkpt>
      <trkpt lat="45.34367" lon="4.59634">
        <ele>855.3</ele>
        <time>2015-06-28T09:54:03.000Z</time>
      </trkpt>
      <trkpt lat="45.3436" lon="4.59632">
        <ele>855.1</ele>
        <time>2015-06-28T09:54:04.000Z</time>
      </trkpt>
      <trkpt lat="45.34342" lon="4.59623">
        <ele>854.1</ele>
        <time>2015-06-28T09:54:07.000Z</time>
      </trkpt>
      <trkpt lat="45.34328" lon="4.59611">
        <ele>853.2</ele>
        <time>2015-06-28T09:54:10.000Z</time>
      </trkpt>
      <trkpt lat="45.34325" lon="4.59607">
        <ele>852.8</ele>
        <time>2015-06-28T09:54:11.000Z</time>
      </trkpt>
      <trkpt lat="45.34311" lon="4.59589">
        <ele>850.8</ele>
        <time>2015-06-28T09:54:16.000Z</time>
      </trkpt>
      <trkpt lat="45.34308" lon="4.59586">
        <ele>850.2</ele>
        <time>2015-06-28T09:54:17.000Z</time>
      </trkpt>
      <trkpt lat="45.34286" lon="4.59578">
        <ele>847.3</ele>
        <time>2015-06-28T09:54:22.000Z</time>
      </trkpt>
      <trkpt lat="45.34268" lon="4.59578">
        <ele>845.2</ele>
        <time>2015-06-28T09:54:25.000Z</time>
      </trkpt>
      <trkpt lat="45.3425" lon="4.59574">
        <ele>845</ele>
        <time>2015-06-28T09:54:29.000Z</time>
      </trkpt>
      <trkpt lat="45.34247" lon="4.59571">
        <ele>845.2</ele>
        <time>2015-06-28T09:54:30.000Z</time>
      </trkpt>
      <trkpt lat="45.34239" lon="4.59547">
        <ele>846.5</ele>
        <time>2015-06-28T09:54:34.000Z</time>
      </trkpt>
      <trkpt lat="45.34242" lon="4.59521">
        <ele>845.8</ele>
        <time>2015-06-28T09:54:37.000Z</time>
      </trkpt>
      <trkpt lat="45.34244" lon="4.59494">
        <ele>843</ele>
        <time>2015-06-28T09:54:40.000Z</time>
      </trkpt>
      <trkpt lat="45.34243" lon="4.59462">
        <ele>839.6</ele>
        <time>2015-06-28T09:54:43.000Z</time>
      </trkpt>
      <trkpt lat="45.34244" lon="4.59434">
        <ele>838</ele>
        <time>2015-06-28T09:54:46.000Z</time>
      </trkpt>
      <trkpt lat="45.34248" lon="4.59408">
        <ele>837.1</ele>
        <time>2015-06-28T09:54:50.000Z</time>
      </trkpt>
      <trkpt lat="45.34232" lon="4.59414">
        <ele>834.4</ele>
        <time>2015-06-28T09:55:22.000Z</time>
      </trkpt>
      <trkpt lat="45.34212" lon="4.59421">
        <ele>832.9</ele>
        <time>2015-06-28T09:55:31.000Z</time>
      </trkpt>
      <trkpt lat="45.34194" lon="4.59433">
        <ele>831.3</ele>
        <time>2015-06-28T09:55:38.000Z</time>
      </trkpt>
      <trkpt lat="45.34192" lon="4.59434">
        <ele>831.6</ele>
        <time>2015-06-28T09:55:39.000Z</time>
      </trkpt>
      <trkpt lat="45.34175" lon="4.59448">
        <ele>832.7</ele>
        <time>2015-06-28T09:55:46.000Z</time>
      </trkpt>
      <trkpt lat="45.34157" lon="4.59461">
        <ele>834</ele>
        <time>2015-06-28T09:55:55.000Z</time>
      </trkpt>
      <trkpt lat="45.34139" lon="4.59468">
        <ele>837.5</ele>
        <time>2015-06-28T09:56:04.000Z</time>
      </trkpt>
      <trkpt lat="45.34118" lon="4.59478">
        <ele>839.5</ele>
        <time>2015-06-28T09:56:12.000Z</time>
      </trkpt>
      <trkpt lat="45.34098" lon="4.59482">
        <ele>842.1</ele>
        <time>2015-06-28T09:56:17.000Z</time>
      </trkpt>
      <trkpt lat="45.34079" lon="4.59484">
        <ele>843.5</ele>
        <time>2015-06-28T09:56:22.000Z</time>
      </trkpt>
      <trkpt lat="45.34059" lon="4.59479">
        <ele>844.6</ele>
        <time>2015-06-28T09:56:30.000Z</time>
      </trkpt>
      <trkpt lat="45.34042" lon="4.59465">
        <ele>846.5</ele>
        <time>2015-06-28T09:56:42.000Z</time>
      </trkpt>
      <trkpt lat="45.34024" lon="4.59465">
        <ele>846.4</ele>
        <time>2015-06-28T09:56:50.000Z</time>
      </trkpt>
      <trkpt lat="45.34005" lon="4.59477">
        <ele>846.6</ele>
        <time>2015-06-28T09:56:56.000Z</time>
      </trkpt>
      <trkpt lat="45.33989" lon="4.59493">
        <ele>845.3</ele>
        <time>2015-06-28T09:57:01.000Z</time>
      </trkpt>
      <trkpt lat="45.33974" lon="4.59509">
        <ele>844.6</ele>
        <time>2015-06-28T09:57:05.000Z</time>
      </trkpt>
      <trkpt lat="45.33957" lon="4.5953">
        <ele>843.9</ele>
        <time>2015-06-28T09:57:09.000Z</time>
      </trkpt>
      <trkpt lat="45.33953" lon="4.59536">
        <ele>843.7</ele>
        <time>2015-06-28T09:57:10.000Z</time>
      </trkpt>
      <trkpt lat="45.33942" lon="4.59557">
        <ele>843.2</ele>
        <time>2015-06-28T09:57:13.000Z</time>
      </trkpt>
      <trkpt lat="45.3393" lon="4.59579">
        <ele>841.3</ele>
        <time>2015-06-28T09:57:16.000Z</time>
      </trkpt>
      <trkpt lat="45.33918" lon="4.59604">
        <ele>839.7</ele>
        <time>2015-06-28T09:57:19.000Z</time>
      </trkpt>
      <trkpt lat="45.33915" lon="4.59613">
        <ele>838.9</ele>
        <time>2015-06-28T09:57:20.000Z</time>
      </trkpt>
      <trkpt lat="45.33905" lon="4.59644">
        <ele>836.5</ele>
        <time>2015-06-28T09:57:23.000Z</time>
      </trkpt>
      <trkpt lat="45.33894" lon="4.59673">
        <ele>836.5</ele>
        <time>2015-06-28T09:57:26.000Z</time>
      </trkpt>
      <trkpt lat="45.33883" lon="4.59696">
        <ele>837</ele>
        <time>2015-06-28T09:57:29.000Z</time>
      </trkpt>
      <trkpt lat="45.3388" lon="4.59701">
        <ele>836.8</ele>
        <time>2015-06-28T09:57:30.000Z</time>
      </trkpt>
      <trkpt lat="45.33861" lon="4.59707">
        <ele>837</ele>
        <time>2015-06-28T09:57:36.000Z</time>
      </trkpt>
      <trkpt lat="45.33859" lon="4.59705">
        <ele>836.6</ele>
        <time>2015-06-28T09:57:53.000Z</time>
      </trkpt>
      <trkpt lat="45.33861" lon="4.59677">
        <ele>837.6</ele>
        <time>2015-06-28T09:58:04.000Z</time>
      </trkpt>
      <trkpt lat="45.33862" lon="4.59668">
        <ele>837.9</ele>
        <time>2015-06-28T09:58:08.000Z</time>
      </trkpt>
      <trkpt lat="45.33861" lon="4.59662">
        <ele>838.1</ele>
        <time>2015-06-28T09:58:10.000Z</time>
      </trkpt>
      <trkpt lat="45.33856" lon="4.59634">
        <ele>839.5</ele>
        <time>2015-06-28T09:58:21.000Z</time>
      </trkpt>
      <trkpt lat="45.33857" lon="4.59631">
        <ele>839.9</ele>
        <time>2015-06-28T09:58:22.000Z</time>
      </trkpt>
      <trkpt lat="45.33863" lon="4.59624">
        <ele>841</ele>
        <time>2015-06-28T09:58:27.000Z</time>
      </trkpt>
      <trkpt lat="45.33878" lon="4.59612">
        <ele>842.3</ele>
        <time>2015-06-28T09:58:38.000Z</time>
      </trkpt>
      <trkpt lat="45.33883" lon="4.59602">
        <ele>843.8</ele>
        <time>2015-06-28T09:58:44.000Z</time>
      </trkpt>
      <trkpt lat="45.33886" lon="4.59597">
        <ele>844.6</ele>
        <time>2015-06-28T09:58:48.000Z</time>
      </trkpt>
      <trkpt lat="45.33897" lon="4.59574">
        <ele>847.1</ele>
        <time>2015-06-28T09:59:03.000Z</time>
      </trkpt>
      <trkpt lat="45.33903" lon="4.59549">
        <ele>849.8</ele>
        <time>2015-06-28T09:59:18.000Z</time>
      </trkpt>
      <trkpt lat="45.33907" lon="4.59523">
        <ele>852.6</ele>
        <time>2015-06-28T09:59:33.000Z</time>
      </trkpt>
      <trkpt lat="45.3391" lon="4.59498">
        <ele>854.5</ele>
        <time>2015-06-28T09:59:47.000Z</time>
      </trkpt>
      <trkpt lat="45.3391" lon="4.59476">
        <ele>856.8</ele>
        <time>2015-06-28T10:00:00.000Z</time>
      </trkpt>
      <trkpt lat="45.33911" lon="4.59466">
        <ele>858</ele>
        <time>2015-06-28T10:00:06.000Z</time>
      </trkpt>
      <trkpt lat="45.33912" lon="4.5944">
        <ele>861.7</ele>
        <time>2015-06-28T10:00:23.000Z</time>
      </trkpt>
      <trkpt lat="45.33914" lon="4.59429">
        <ele>863.3</ele>
        <time>2015-06-28T10:00:30.000Z</time>
      </trkpt>
      <trkpt lat="45.3392" lon="4.59403">
        <ele>866.4</ele>
        <time>2015-06-28T10:00:45.000Z</time>
      </trkpt>
      <trkpt lat="45.33927" lon="4.59377">
        <ele>868.1</ele>
        <time>2015-06-28T10:01:00.000Z</time>
      </trkpt>
      <trkpt lat="45.33934" lon="4.59352">
        <ele>869.5</ele>
        <time>2015-06-28T10:01:14.000Z</time>
      </trkpt>
      <trkpt lat="45.33937" lon="4.59345">
        <ele>870.1</ele>
        <time>2015-06-28T10:01:19.000Z</time>
      </trkpt>
      <trkpt lat="45.33946" lon="4.59322">
        <ele>872.5</ele>
        <time>2015-06-28T10:01:32.000Z</time>
      </trkpt>
      <trkpt lat="45.33955" lon="4.59297">
        <ele>875.7</ele>
        <time>2015-06-28T10:01:45.000Z</time>
      </trkpt>
      <trkpt lat="45.33957" lon="4.59283">
        <ele>877.7</ele>
        <time>2015-06-28T10:01:51.000Z</time>
      </trkpt>
      <trkpt lat="45.33958" lon="4.59272">
        <ele>879.7</ele>
        <time>2015-06-28T10:01:57.000Z</time>
      </trkpt>
      <trkpt lat="45.3396" lon="4.59265">
        <ele>880.9</ele>
        <time>2015-06-28T10:02:01.000Z</time>
      </trkpt>
      <trkpt lat="45.33963" lon="4.59257">
        <ele>881.9</ele>
        <time>2015-06-28T10:02:06.000Z</time>
      </trkpt>
      <trkpt lat="45.33968" lon="4.59249">
        <ele>882.9</ele>
        <time>2015-06-28T10:02:14.000Z</time>
      </trkpt>
      <trkpt lat="45.33976" lon="4.59229">
        <ele>885.9</ele>
        <time>2015-06-28T10:02:28.000Z</time>
      </trkpt>
      <trkpt lat="45.3398" lon="4.59218">
        <ele>887.4</ele>
        <time>2015-06-28T10:02:36.000Z</time>
      </trkpt>
      <trkpt lat="45.33987" lon="4.59204">
        <ele>888.9</ele>
        <time>2015-06-28T10:02:44.000Z</time>
      </trkpt>
      <trkpt lat="45.33998" lon="4.59184">
        <ele>891.5</ele>
        <time>2015-06-28T10:02:58.000Z</time>
      </trkpt>
      <trkpt lat="45.34002" lon="4.59178">
        <ele>892.4</ele>
        <time>2015-06-28T10:03:02.000Z</time>
      </trkpt>
      <trkpt lat="45.3401" lon="4.59161">
        <ele>895.8</ele>
        <time>2015-06-28T10:03:14.000Z</time>
      </trkpt>
      <trkpt lat="45.34004" lon="4.5916">
        <ele>896.6</ele>
        <time>2015-06-28T10:03:46.000Z</time>
      </trkpt>
      <trkpt lat="45.34011" lon="4.59154">
        <ele>897.7</ele>
        <time>2015-06-28T10:04:57.000Z</time>
      </trkpt>
      <trkpt lat="45.34013" lon="4.59146">
        <ele>899.6</ele>
        <time>2015-06-28T10:05:02.000Z</time>
      </trkpt>
      <trkpt lat="45.34017" lon="4.5914">
        <ele>900.7</ele>
        <time>2015-06-28T10:05:06.000Z</time>
      </trkpt>
      <trkpt lat="45.34029" lon="4.59119">
        <ele>904.2</ele>
        <time>2015-06-28T10:05:22.000Z</time>
      </trkpt>
      <trkpt lat="45.3404" lon="4.591">
        <ele>908.7</ele>
        <time>2015-06-28T10:05:42.000Z</time>
      </trkpt>
      <trkpt lat="45.34044" lon="4.591">
        <ele>908.5</ele>
        <time>2015-06-28T10:05:57.000Z</time>
      </trkpt>
      <trkpt lat="45.34048" lon="4.59093">
        <ele>910.5</ele>
        <time>2015-06-28T10:06:06.000Z</time>
      </trkpt>
      <trkpt lat="45.34054" lon="4.5909">
        <ele>911.2</ele>
        <time>2015-06-28T10:06:13.000Z</time>
      </trkpt>
      <trkpt lat="45.34063" lon="4.59081">
        <ele>913.9</ele>
        <time>2015-06-28T10:06:23.000Z</time>
      </trkpt>
      <trkpt lat="45.34078" lon="4.59071">
        <ele>916.9</ele>
        <time>2015-06-28T10:06:51.000Z</time>
      </trkpt>
      <trkpt lat="45.34091" lon="4.59053">
        <ele>921.8</ele>
        <time>2015-06-28T10:07:23.000Z</time>
      </trkpt>
      <trkpt lat="45.34093" lon="4.59054">
        <ele>922</ele>
        <time>2015-06-28T10:07:26.000Z</time>
      </trkpt>
      <trkpt lat="45.34104" lon="4.5905">
        <ele>924.5</ele>
        <time>2015-06-28T10:07:39.000Z</time>
      </trkpt>
      <trkpt lat="45.34108" lon="4.59048">
        <ele>925.6</ele>
        <time>2015-06-28T10:07:44.000Z</time>
      </trkpt>
      <trkpt lat="45.34116" lon="4.59042">
        <ele>927.9</ele>
        <time>2015-06-28T10:08:01.000Z</time>
      </trkpt>
      <trkpt lat="45.34122" lon="4.59036">
        <ele>929.8</ele>
        <time>2015-06-28T10:08:14.000Z</time>
      </trkpt>
      <trkpt lat="45.34136" lon="4.59018">
        <ele>934.9</ele>
        <time>2015-06-28T10:08:48.000Z</time>
      </trkpt>
      <trkpt lat="45.34142" lon="4.58994">
        <ele>939.2</ele>
        <time>2015-06-28T10:09:20.000Z</time>
      </trkpt>
      <trkpt lat="45.34144" lon="4.58973">
        <ele>942.3</ele>
        <time>2015-06-28T10:10:36.000Z</time>
      </trkpt>
      <trkpt lat="45.34146" lon="4.58975">
        <ele>942.1</ele>
        <time>2015-06-28T10:13:57.000Z</time>
      </trkpt>
      <trkpt lat="45.34151" lon="4.58951">
        <ele>944.8</ele>
        <time>2015-06-28T10:14:15.000Z</time>
      </trkpt>
      <trkpt lat="45.34152" lon="4.58947">
        <ele>945.2</ele>
        <time>2015-06-28T10:14:17.000Z</time>
      </trkpt>
      <trkpt lat="45.34155" lon="4.58931">
        <ele>946.5</ele>
        <time>2015-06-28T10:14:25.000Z</time>
      </trkpt>
      <trkpt lat="45.34158" lon="4.58904">
        <ele>948.6</ele>
        <time>2015-06-28T10:14:37.000Z</time>
      </trkpt>
      <trkpt lat="45.34157" lon="4.58877">
        <ele>950.1</ele>
        <time>2015-06-28T10:14:50.000Z</time>
      </trkpt>
      <trkpt lat="45.34156" lon="4.58851">
        <ele>951.1</ele>
        <time>2015-06-28T10:15:02.000Z</time>
      </trkpt>
      <trkpt lat="45.34155" lon="4.58827">
        <ele>952.3</ele>
        <time>2015-06-28T10:15:14.000Z</time>
      </trkpt>
      <trkpt lat="45.34155" lon="4.58818">
        <ele>952.7</ele>
        <time>2015-06-28T10:15:18.000Z</time>
      </trkpt>
      <trkpt lat="45.34154" lon="4.58816">
        <ele>952.8</ele>
        <time>2015-06-28T10:15:19.000Z</time>
      </trkpt>
      <trkpt lat="45.34159" lon="4.58801">
        <ele>953.4</ele>
        <time>2015-06-28T10:15:31.000Z</time>
      </trkpt>
      <trkpt lat="45.34153" lon="4.58784">
        <ele>955.8</ele>
        <time>2015-06-28T10:16:00.000Z</time>
      </trkpt>
      <trkpt lat="45.34148" lon="4.58783">
        <ele>956.5</ele>
        <time>2015-06-28T10:16:01.000Z</time>
      </trkpt>
      <trkpt lat="45.34137" lon="4.58777">
        <ele>958.5</ele>
        <time>2015-06-28T10:16:05.000Z</time>
      </trkpt>
      <trkpt lat="45.34136" lon="4.58776">
        <ele>958.9</ele>
        <time>2015-06-28T10:16:06.000Z</time>
      </trkpt>
      <trkpt lat="45.34129" lon="4.5877">
        <ele>960.8</ele>
        <time>2015-06-28T10:16:14.000Z</time>
      </trkpt>
      <trkpt lat="45.34127" lon="4.58768">
        <ele>961.4</ele>
        <time>2015-06-28T10:16:16.000Z</time>
      </trkpt>
      <trkpt lat="45.34119" lon="4.58757">
        <ele>964.1</ele>
        <time>2015-06-28T10:16:31.000Z</time>
      </trkpt>
      <trkpt lat="45.34116" lon="4.58743">
        <ele>966.2</ele>
        <time>2015-06-28T10:16:45.000Z</time>
      </trkpt>
      <trkpt lat="45.34115" lon="4.58738">
        <ele>967</ele>
        <time>2015-06-28T10:16:51.000Z</time>
      </trkpt>
      <trkpt lat="45.34112" lon="4.58735">
        <ele>968</ele>
        <time>2015-06-28T10:17:00.000Z</time>
      </trkpt>
      <trkpt lat="45.34107" lon="4.5873">
        <ele>969.8</ele>
        <time>2015-06-28T10:17:55.000Z</time>
      </trkpt>
      <trkpt lat="45.34113" lon="4.58717">
        <ele>970.3</ele>
        <time>2015-06-28T10:18:47.000Z</time>
      </trkpt>
      <trkpt lat="45.34119" lon="4.58705">
        <ele>970.3</ele>
        <time>2015-06-28T10:18:55.000Z</time>
      </trkpt>
      <trkpt lat="45.34123" lon="4.58687">
        <ele>971.8</ele>
        <time>2015-06-28T10:19:06.000Z</time>
      </trkpt>
      <trkpt lat="45.34122" lon="4.58669">
        <ele>974.4</ele>
        <time>2015-06-28T10:19:16.000Z</time>
      </trkpt>
      <trkpt lat="45.34123" lon="4.58664">
        <ele>974.8</ele>
        <time>2015-06-28T10:19:20.000Z</time>
      </trkpt>
      <trkpt lat="45.34123" lon="4.58657">
        <ele>975.5</ele>
        <time>2015-06-28T10:19:24.000Z</time>
      </trkpt>
      <trkpt lat="45.3412" lon="4.58631">
        <ele>979.2</ele>
        <time>2015-06-28T10:19:36.000Z</time>
      </trkpt>
      <trkpt lat="45.34121" lon="4.58607">
        <ele>981.7</ele>
        <time>2015-06-28T10:19:47.000Z</time>
      </trkpt>
      <trkpt lat="45.34123" lon="4.58597">
        <ele>982</ele>
        <time>2015-06-28T10:19:52.000Z</time>
      </trkpt>
      <trkpt lat="45.34117" lon="4.58578">
        <ele>984.2</ele>
        <time>2015-06-28T10:20:03.000Z</time>
      </trkpt>
      <trkpt lat="45.34116" lon="4.58571">
        <ele>985</ele>
        <time>2015-06-28T10:20:07.000Z</time>
      </trkpt>
      <trkpt lat="45.34116" lon="4.58544">
        <ele>986.4</ele>
        <time>2015-06-28T10:20:20.000Z</time>
      </trkpt>
      <trkpt lat="45.34115" lon="4.58517">
        <ele>987.2</ele>
        <time>2015-06-28T10:20:31.000Z</time>
      </trkpt>
      <trkpt lat="45.34116" lon="4.58489">
        <ele>987.8</ele>
        <time>2015-06-28T10:20:40.000Z</time>
      </trkpt>
      <trkpt lat="45.34116" lon="4.58462">
        <ele>989.2</ele>
        <time>2015-06-28T10:20:48.000Z</time>
      </trkpt>
      <trkpt lat="45.34117" lon="4.58436">
        <ele>989.7</ele>
        <time>2015-06-28T10:20:56.000Z</time>
      </trkpt>
      <trkpt lat="45.34106" lon="4.58417">
        <ele>991.9</ele>
        <time>2015-06-28T10:21:06.000Z</time>
      </trkpt>
      <trkpt lat="45.34104" lon="4.58414">
        <ele>992.3</ele>
        <time>2015-06-28T10:21:08.000Z</time>
      </trkpt>
      <trkpt lat="45.34089" lon="4.58399">
        <ele>995.5</ele>
        <time>2015-06-28T10:21:19.000Z</time>
      </trkpt>
      <trkpt lat="45.34083" lon="4.58393">
        <ele>997</ele>
        <time>2015-06-28T10:21:25.000Z</time>
      </trkpt>
      <trkpt lat="45.34078" lon="4.58372">
        <ele>999.7</ele>
        <time>2015-06-28T10:21:51.000Z</time>
      </trkpt>
      <trkpt lat="45.34079" lon="4.5837">
        <ele>999.5</ele>
        <time>2015-06-28T10:21:52.000Z</time>
      </trkpt>
      <trkpt lat="45.34088" lon="4.58347">
        <ele>999</ele>
        <time>2015-06-28T10:22:05.000Z</time>
      </trkpt>
      <trkpt lat="45.3409" lon="4.58334">
        <ele>999.5</ele>
        <time>2015-06-28T10:22:12.000Z</time>
      </trkpt>
      <trkpt lat="45.34091" lon="4.58307">
        <ele>1001.6</ele>
        <time>2015-06-28T10:22:53.000Z</time>
      </trkpt>
      <trkpt lat="45.3409" lon="4.58305">
        <ele>1001.8</ele>
        <time>2015-06-28T10:22:54.000Z</time>
      </trkpt>
      <trkpt lat="45.34093" lon="4.5829">
        <ele>1002.8</ele>
        <time>2015-06-28T10:23:01.000Z</time>
      </trkpt>
      <trkpt lat="45.34094" lon="4.5828">
        <ele>1003.6</ele>
        <time>2015-06-28T10:23:05.000Z</time>
      </trkpt>
      <trkpt lat="45.34101" lon="4.58254">
        <ele>1005.6</ele>
        <time>2015-06-28T10:23:13.000Z</time>
      </trkpt>
      <trkpt lat="45.34114" lon="4.58234">
        <ele>1005.8</ele>
        <time>2015-06-28T10:23:20.000Z</time>
      </trkpt>
      <trkpt lat="45.34125" lon="4.58211">
        <ele>1007.4</ele>
        <time>2015-06-28T10:23:29.000Z</time>
      </trkpt>
      <trkpt lat="45.3414" lon="4.58194">
        <ele>1007</ele>
        <time>2015-06-28T10:23:37.000Z</time>
      </trkpt>
      <trkpt lat="45.34156" lon="4.58181">
        <ele>1008.9</ele>
        <time>2015-06-28T10:23:45.000Z</time>
      </trkpt>
      <trkpt lat="45.34158" lon="4.58178">
        <ele>1009.4</ele>
        <time>2015-06-28T10:23:46.000Z</time>
      </trkpt>
      <trkpt lat="45.34165" lon="4.58175">
        <ele>1009.8</ele>
        <time>2015-06-28T10:23:50.000Z</time>
      </trkpt>
      <trkpt lat="45.34183" lon="4.58165">
        <ele>1012.5</ele>
        <time>2015-06-28T10:24:00.000Z</time>
      </trkpt>
      <trkpt lat="45.34201" lon="4.5816">
        <ele>1015.2</ele>
        <time>2015-06-28T10:24:11.000Z</time>
      </trkpt>
      <trkpt lat="45.34207" lon="4.58158">
        <ele>1016.4</ele>
        <time>2015-06-28T10:24:16.000Z</time>
      </trkpt>
      <trkpt lat="45.34225" lon="4.58155">
        <ele>1018.6</ele>
        <time>2015-06-28T10:24:28.000Z</time>
      </trkpt>
      <trkpt lat="45.34233" lon="4.58153">
        <ele>1019.1</ele>
        <time>2015-06-28T10:24:34.000Z</time>
      </trkpt>
      <trkpt lat="45.34251" lon="4.5815">
        <ele>1019.8</ele>
        <time>2015-06-28T10:24:48.000Z</time>
      </trkpt>
      <trkpt lat="45.34269" lon="4.58144">
        <ele>1020.6</ele>
        <time>2015-06-28T10:24:58.000Z</time>
      </trkpt>
      <trkpt lat="45.34288" lon="4.58139">
        <ele>1021</ele>
        <time>2015-06-28T10:25:06.000Z</time>
      </trkpt>
      <trkpt lat="45.3429" lon="4.58138">
        <ele>1021</ele>
        <time>2015-06-28T10:25:07.000Z</time>
      </trkpt>
      <trkpt lat="45.3431" lon="4.58131">
        <ele>1021.8</ele>
        <time>2015-06-28T10:25:14.000Z</time>
      </trkpt>
      <trkpt lat="45.34329" lon="4.58127">
        <ele>1022.8</ele>
        <time>2015-06-28T10:25:21.000Z</time>
      </trkpt>
      <trkpt lat="45.34349" lon="4.58119">
        <ele>1023.6</ele>
        <time>2015-06-28T10:25:28.000Z</time>
      </trkpt>
      <trkpt lat="45.3437" lon="4.58111">
        <ele>1024.3</ele>
        <time>2015-06-28T10:25:35.000Z</time>
      </trkpt>
      <trkpt lat="45.34389" lon="4.58105">
        <ele>1024.8</ele>
        <time>2015-06-28T10:25:40.000Z</time>
      </trkpt>
      <trkpt lat="45.34407" lon="4.58097">
        <ele>1025.5</ele>
        <time>2015-06-28T10:25:47.000Z</time>
      </trkpt>
      <trkpt lat="45.34426" lon="4.58093">
        <ele>1025.7</ele>
        <time>2015-06-28T10:25:54.000Z</time>
      </trkpt>
      <trkpt lat="45.34446" lon="4.58092">
        <ele>1025.7</ele>
        <time>2015-06-28T10:26:02.000Z</time>
      </trkpt>
      <trkpt lat="45.3446" lon="4.581">
        <ele>1026.8</ele>
        <time>2015-06-28T10:26:11.000Z</time>
      </trkpt>
      <trkpt lat="45.34481" lon="4.58104">
        <ele>1027.5</ele>
        <time>2015-06-28T10:26:22.000Z</time>
      </trkpt>
      <trkpt lat="45.34499" lon="4.58106">
        <ele>1027.6</ele>
        <time>2015-06-28T10:26:31.000Z</time>
      </trkpt>
      <trkpt lat="45.3452" lon="4.58109">
        <ele>1028.6</ele>
        <time>2015-06-28T10:26:40.000Z</time>
      </trkpt>
      <trkpt lat="45.34538" lon="4.58113">
        <ele>1029.4</ele>
        <time>2015-06-28T10:26:49.000Z</time>
      </trkpt>
      <trkpt lat="45.34539" lon="4.58113">
        <ele>1029.4</ele>
        <time>2015-06-28T10:26:50.000Z</time>
      </trkpt>
      <trkpt lat="45.34551" lon="4.5811">
        <ele>1029.8</ele>
        <time>2015-06-28T10:29:10.000Z</time>
      </trkpt>
      <trkpt lat="45.3454" lon="4.58114">
        <ele>1029.5</ele>
        <time>2015-06-28T10:31:43.000Z</time>
      </trkpt>
      <trkpt lat="45.34547" lon="4.58121">
        <ele>1029.8</ele>
        <time>2015-06-28T10:33:13.000Z</time>
      </trkpt>
      <trkpt lat="45.34563" lon="4.58126">
        <ele>1030.7</ele>
        <time>2015-06-28T10:33:20.000Z</time>
      </trkpt>
      <trkpt lat="45.34578" lon="4.58111">
        <ele>1032.4</ele>
        <time>2015-06-28T10:33:27.000Z</time>
      </trkpt>
      <trkpt lat="45.34582" lon="4.58098">
        <ele>1032.5</ele>
        <time>2015-06-28T10:33:31.000Z</time>
      </trkpt>
      <trkpt lat="45.34592" lon="4.58075">
        <ele>1033.3</ele>
        <time>2015-06-28T10:33:37.000Z</time>
      </trkpt>
      <trkpt lat="45.34604" lon="4.58053">
        <ele>1034.6</ele>
        <time>2015-06-28T10:33:43.000Z</time>
      </trkpt>
      <trkpt lat="45.34617" lon="4.58032">
        <ele>1036.3</ele>
        <time>2015-06-28T10:33:49.000Z</time>
      </trkpt>
      <trkpt lat="45.34629" lon="4.58012">
        <ele>1037</ele>
        <time>2015-06-28T10:33:55.000Z</time>
      </trkpt>
      <trkpt lat="45.3464" lon="4.5799">
        <ele>1037.1</ele>
        <time>2015-06-28T10:34:01.000Z</time>
      </trkpt>
      <trkpt lat="45.34654" lon="4.5797">
        <ele>1036.9</ele>
        <time>2015-06-28T10:34:06.000Z</time>
      </trkpt>
      <trkpt lat="45.34672" lon="4.57951">
        <ele>1036.5</ele>
        <time>2015-06-28T10:34:11.000Z</time>
      </trkpt>
      <trkpt lat="45.34687" lon="4.57937">
        <ele>1036.2</ele>
        <time>2015-06-28T10:34:15.000Z</time>
      </trkpt>
      <trkpt lat="45.34701" lon="4.57919">
        <ele>1034.9</ele>
        <time>2015-06-28T10:34:19.000Z</time>
      </trkpt>
      <trkpt lat="45.34719" lon="4.579">
        <ele>1033.5</ele>
        <time>2015-06-28T10:34:24.000Z</time>
      </trkpt>
      <trkpt lat="45.34735" lon="4.57886">
        <ele>1032.5</ele>
        <time>2015-06-28T10:34:28.000Z</time>
      </trkpt>
      <trkpt lat="45.34752" lon="4.5787">
        <ele>1031.5</ele>
        <time>2015-06-28T10:34:34.000Z</time>
      </trkpt>
      <trkpt lat="45.34755" lon="4.57867">
        <ele>1031.1</ele>
        <time>2015-06-28T10:34:35.000Z</time>
      </trkpt>
      <trkpt lat="45.34769" lon="4.5785">
        <ele>1029.9</ele>
        <time>2015-06-28T10:34:39.000Z</time>
      </trkpt>
      <trkpt lat="45.34788" lon="4.57838">
        <ele>1028.7</ele>
        <time>2015-06-28T10:34:43.000Z</time>
      </trkpt>
      <trkpt lat="45.34804" lon="4.57831">
        <ele>1027.7</ele>
        <time>2015-06-28T10:34:46.000Z</time>
      </trkpt>
      <trkpt lat="45.34821" lon="4.57822">
        <ele>1026.6</ele>
        <time>2015-06-28T10:34:49.000Z</time>
      </trkpt>
      <trkpt lat="45.3484" lon="4.57814">
        <ele>1025</ele>
        <time>2015-06-28T10:34:52.000Z</time>
      </trkpt>
      <trkpt lat="45.34853" lon="4.57811">
        <ele>1024.1</ele>
        <time>2015-06-28T10:34:54.000Z</time>
      </trkpt>
      <trkpt lat="45.34873" lon="4.57808">
        <ele>1022.5</ele>
        <time>2015-06-28T10:34:57.000Z</time>
      </trkpt>
      <trkpt lat="45.34883" lon="4.57805">
        <ele>1021.4</ele>
        <time>2015-06-28T10:34:59.000Z</time>
      </trkpt>
      <trkpt lat="45.34901" lon="4.578">
        <ele>1019.4</ele>
        <time>2015-06-28T10:35:03.000Z</time>
      </trkpt>
      <trkpt lat="45.34906" lon="4.578">
        <ele>1019</ele>
        <time>2015-06-28T10:35:04.000Z</time>
      </trkpt>
      <trkpt lat="45.34927" lon="4.57802">
        <ele>1017.7</ele>
        <time>2015-06-28T10:35:08.000Z</time>
      </trkpt>
      <trkpt lat="45.34945" lon="4.57794">
        <ele>1015.4</ele>
        <time>2015-06-28T10:35:11.000Z</time>
      </trkpt>
      <trkpt lat="45.34951" lon="4.57791">
        <ele>1015.1</ele>
        <time>2015-06-28T10:35:12.000Z</time>
      </trkpt>
      <trkpt lat="45.34957" lon="4.57788">
        <ele>1014.7</ele>
        <time>2015-06-28T10:35:13.000Z</time>
      </trkpt>
      <trkpt lat="45.34972" lon="4.57779">
        <ele>1013.3</ele>
        <time>2015-06-28T10:35:17.000Z</time>
      </trkpt>
      <trkpt lat="45.3499" lon="4.57774">
        <ele>1014.3</ele>
        <time>2015-06-28T10:35:25.000Z</time>
      </trkpt>
      <trkpt lat="45.35003" lon="4.57755">
        <ele>1013.2</ele>
        <time>2015-06-28T10:35:32.000Z</time>
      </trkpt>
      <trkpt lat="45.35005" lon="4.57753">
        <ele>1013.3</ele>
        <time>2015-06-28T10:35:34.000Z</time>
      </trkpt>
      <trkpt lat="45.35013" lon="4.5773">
        <ele>1010.5</ele>
        <time>2015-06-28T10:36:19.000Z</time>
      </trkpt>
      <trkpt lat="45.3502" lon="4.57715">
        <ele>1009</ele>
        <time>2015-06-28T10:36:22.000Z</time>
      </trkpt>
      <trkpt lat="45.35029" lon="4.57699">
        <ele>1008.1</ele>
        <time>2015-06-28T10:36:25.000Z</time>
      </trkpt>
      <trkpt lat="45.35035" lon="4.57687">
        <ele>1006.8</ele>
        <time>2015-06-28T10:36:27.000Z</time>
      </trkpt>
      <trkpt lat="45.35049" lon="4.57667">
        <ele>1005.8</ele>
        <time>2015-06-28T10:36:31.000Z</time>
      </trkpt>
      <trkpt lat="45.35063" lon="4.57647">
        <ele>1004.5</ele>
        <time>2015-06-28T10:36:35.000Z</time>
      </trkpt>
      <trkpt lat="45.35074" lon="4.57631">
        <ele>1002.9</ele>
        <time>2015-06-28T10:36:38.000Z</time>
      </trkpt>
      <trkpt lat="45.35084" lon="4.57616">
        <ele>1001.2</ele>
        <time>2015-06-28T10:36:41.000Z</time>
      </trkpt>
      <trkpt lat="45.35098" lon="4.57607">
        <ele>1000.3</ele>
        <time>2015-06-28T10:36:44.000Z</time>
      </trkpt>
      <trkpt lat="45.35119" lon="4.57599">
        <ele>1000.1</ele>
        <time>2015-06-28T10:36:48.000Z</time>
      </trkpt>
      <trkpt lat="45.35129" lon="4.57596">
        <ele>1000</ele>
        <time>2015-06-28T10:36:50.000Z</time>
      </trkpt>
      <trkpt lat="45.35138" lon="4.57594">
        <ele>1000</ele>
        <time>2015-06-28T10:36:52.000Z</time>
      </trkpt>
      <trkpt lat="45.35158" lon="4.57591">
        <ele>1001</ele>
        <time>2015-06-28T10:36:57.000Z</time>
      </trkpt>
      <trkpt lat="45.35176" lon="4.57585">
        <ele>1001.4</ele>
        <time>2015-06-28T10:37:01.000Z</time>
      </trkpt>
      <trkpt lat="45.35195" lon="4.57577">
        <ele>1001.6</ele>
        <time>2015-06-28T10:37:06.000Z</time>
      </trkpt>
      <trkpt lat="45.35215" lon="4.5757">
        <ele>1002.8</ele>
        <time>2015-06-28T10:37:11.000Z</time>
      </trkpt>
      <trkpt lat="45.35222" lon="4.57567">
        <ele>1003.1</ele>
        <time>2015-06-28T10:37:13.000Z</time>
      </trkpt>
      <trkpt lat="45.35231" lon="4.5756">
        <ele>1002.9</ele>
        <time>2015-06-28T10:37:15.000Z</time>
      </trkpt>
      <trkpt lat="45.35247" lon="4.57544">
        <ele>1001</ele>
        <time>2015-06-28T10:37:19.000Z</time>
      </trkpt>
      <trkpt lat="45.35254" lon="4.57539">
        <ele>1000.3</ele>
        <time>2015-06-28T10:37:21.000Z</time>
      </trkpt>
      <trkpt lat="45.35269" lon="4.57538">
        <ele>1000.3</ele>
        <time>2015-06-28T10:37:25.000Z</time>
      </trkpt>
      <trkpt lat="45.35283" lon="4.57542">
        <ele>1000.9</ele>
        <time>2015-06-28T10:37:28.000Z</time>
      </trkpt>
      <trkpt lat="45.35299" lon="4.57548">
        <ele>1001.1</ele>
        <time>2015-06-28T10:37:32.000Z</time>
      </trkpt>
      <trkpt lat="45.35303" lon="4.5755">
        <ele>1001.2</ele>
        <time>2015-06-28T10:37:33.000Z</time>
      </trkpt>
      <trkpt lat="45.35322" lon="4.57561">
        <ele>998.5</ele>
        <time>2015-06-28T10:37:38.000Z</time>
      </trkpt>
      <trkpt lat="45.35325" lon="4.57565">
        <ele>998.2</ele>
        <time>2015-06-28T10:37:39.000Z</time>
      </trkpt>
      <trkpt lat="45.35329" lon="4.57567">
        <ele>997.3</ele>
        <time>2015-06-28T10:37:40.000Z</time>
      </trkpt>
      <trkpt lat="45.35346" lon="4.57586">
        <ele>996.7</ele>
        <time>2015-06-28T10:37:45.000Z</time>
      </trkpt>
      <trkpt lat="45.35349" lon="4.57589">
        <ele>996.4</ele>
        <time>2015-06-28T10:37:46.000Z</time>
      </trkpt>
      <trkpt lat="45.35365" lon="4.57603">
        <ele>994.3</ele>
        <time>2015-06-28T10:37:50.000Z</time>
      </trkpt>
      <trkpt lat="45.35376" lon="4.5762">
        <ele>993.9</ele>
        <time>2015-06-28T10:37:54.000Z</time>
      </trkpt>
      <trkpt lat="45.35385" lon="4.57637">
        <ele>994.1</ele>
        <time>2015-06-28T10:37:58.000Z</time>
      </trkpt>
      <trkpt lat="45.35396" lon="4.57661">
        <ele>995.1</ele>
        <time>2015-06-28T10:38:05.000Z</time>
      </trkpt>
      <trkpt lat="45.35397" lon="4.57664">
        <ele>995.1</ele>
        <time>2015-06-28T10:38:06.000Z</time>
      </trkpt>
      <trkpt lat="45.35406" lon="4.57689">
        <ele>996.1</ele>
        <time>2015-06-28T10:38:13.000Z</time>
      </trkpt>
      <trkpt lat="45.35411" lon="4.57715">
        <ele>998.6</ele>
        <time>2015-06-28T10:38:21.000Z</time>
      </trkpt>
      <trkpt lat="45.35423" lon="4.57738">
        <ele>998</ele>
        <time>2015-06-28T10:38:27.000Z</time>
      </trkpt>
      <trkpt lat="45.3543" lon="4.57762">
        <ele>998.6</ele>
        <time>2015-06-28T10:38:33.000Z</time>
      </trkpt>
      <trkpt lat="45.35437" lon="4.5779">
        <ele>999.6</ele>
        <time>2015-06-28T10:38:40.000Z</time>
      </trkpt>
      <trkpt lat="45.35447" lon="4.57812">
        <ele>999.1</ele>
        <time>2015-06-28T10:38:45.000Z</time>
      </trkpt>
      <trkpt lat="45.35455" lon="4.57836">
        <ele>998.9</ele>
        <time>2015-06-28T10:38:53.000Z</time>
      </trkpt>
      <trkpt lat="45.3546" lon="4.57864">
        <ele>998.8</ele>
        <time>2015-06-28T10:39:02.000Z</time>
      </trkpt>
      <trkpt lat="45.35463" lon="4.5789">
        <ele>1000.8</ele>
        <time>2015-06-28T10:39:13.000Z</time>
      </trkpt>
      <trkpt lat="45.35469" lon="4.57915">
        <ele>1001.9</ele>
        <time>2015-06-28T10:39:24.000Z</time>
      </trkpt>
      <trkpt lat="45.35475" lon="4.57941">
        <ele>1003.2</ele>
        <time>2015-06-28T10:39:35.000Z</time>
      </trkpt>
      <trkpt lat="45.35479" lon="4.57967">
        <ele>1004.1</ele>
        <time>2015-06-28T10:39:46.000Z</time>
      </trkpt>
      <trkpt lat="45.35484" lon="4.57993">
        <ele>1004.9</ele>
        <time>2015-06-28T10:39:57.000Z</time>
      </trkpt>
      <trkpt lat="45.35484" lon="4.57995">
        <ele>1004.8</ele>
        <time>2015-06-28T10:39:58.000Z</time>
      </trkpt>
      <trkpt lat="45.35486" lon="4.58021">
        <ele>1006.7</ele>
        <time>2015-06-28T10:40:10.000Z</time>
      </trkpt>
      <trkpt lat="45.35487" lon="4.58027">
        <ele>1006.9</ele>
        <time>2015-06-28T10:40:13.000Z</time>
      </trkpt>
      <trkpt lat="45.35485" lon="4.58041">
        <ele>1010.3</ele>
        <time>2015-06-28T10:40:19.000Z</time>
      </trkpt>
      <trkpt lat="45.35492" lon="4.58065">
        <ele>1011.5</ele>
        <time>2015-06-28T10:40:30.000Z</time>
      </trkpt>
      <trkpt lat="45.35494" lon="4.58072">
        <ele>1011.9</ele>
        <time>2015-06-28T10:40:33.000Z</time>
      </trkpt>
      <trkpt lat="45.35498" lon="4.58085">
        <ele>1012</ele>
        <time>2015-06-28T10:40:39.000Z</time>
      </trkpt>
      <trkpt lat="45.35501" lon="4.58097">
        <ele>1013.3</ele>
        <time>2015-06-28T10:40:45.000Z</time>
      </trkpt>
      <trkpt lat="45.35507" lon="4.58112">
        <ele>1015.1</ele>
        <time>2015-06-28T10:40:54.000Z</time>
      </trkpt>
      <trkpt lat="45.35513" lon="4.58122">
        <ele>1015.8</ele>
        <time>2015-06-28T10:40:59.000Z</time>
      </trkpt>
      <trkpt lat="45.35524" lon="4.58143">
        <ele>1018.5</ele>
        <time>2015-06-28T10:41:11.000Z</time>
      </trkpt>
      <trkpt lat="45.35524" lon="4.58148">
        <ele>1019.6</ele>
        <time>2015-06-28T10:41:14.000Z</time>
      </trkpt>
      <trkpt lat="45.3553" lon="4.58163">
        <ele>1022</ele>
        <time>2015-06-28T10:41:24.000Z</time>
      </trkpt>
      <trkpt lat="45.35542" lon="4.5818">
        <ele>1024.3</ele>
        <time>2015-06-28T10:41:36.000Z</time>
      </trkpt>
      <trkpt lat="45.35551" lon="4.58191">
        <ele>1025.8</ele>
        <time>2015-06-28T10:41:45.000Z</time>
      </trkpt>
      <trkpt lat="45.3556" lon="4.58199">
        <ele>1027</ele>
        <time>2015-06-28T10:41:52.000Z</time>
      </trkpt>
      <trkpt lat="45.35575" lon="4.58213">
        <ele>1029.5</ele>
        <time>2015-06-28T10:42:05.000Z</time>
      </trkpt>
      <trkpt lat="45.35578" lon="4.58214">
        <ele>1029.7</ele>
        <time>2015-06-28T10:42:08.000Z</time>
      </trkpt>
      <trkpt lat="45.35587" lon="4.58219">
        <ele>1030.4</ele>
        <time>2015-06-28T10:42:14.000Z</time>
      </trkpt>
      <trkpt lat="45.35593" lon="4.58222">
        <ele>1031</ele>
        <time>2015-06-28T10:42:19.000Z</time>
      </trkpt>
      <trkpt lat="45.35607" lon="4.58228">
        <ele>1032.3</ele>
        <time>2015-06-28T10:42:28.000Z</time>
      </trkpt>
      <trkpt lat="45.35624" lon="4.58239">
        <ele>1034.8</ele>
        <time>2015-06-28T10:42:40.000Z</time>
      </trkpt>
      <trkpt lat="45.35642" lon="4.58248">
        <ele>1036.6</ele>
        <time>2015-06-28T10:42:50.000Z</time>
      </trkpt>
      <trkpt lat="45.3566" lon="4.58256">
        <ele>1038</ele>
        <time>2015-06-28T10:43:00.000Z</time>
      </trkpt>
      <trkpt lat="45.35679" lon="4.58262">
        <ele>1039.7</ele>
        <time>2015-06-28T10:43:11.000Z</time>
      </trkpt>
      <trkpt lat="45.35697" lon="4.58267">
        <ele>1041.2</ele>
        <time>2015-06-28T10:43:22.000Z</time>
      </trkpt>
      <trkpt lat="45.357" lon="4.58269">
        <ele>1041.8</ele>
        <time>2015-06-28T10:43:24.000Z</time>
      </trkpt>
      <trkpt lat="45.35709" lon="4.58267">
        <ele>1042</ele>
        <time>2015-06-28T10:43:29.000Z</time>
      </trkpt>
      <trkpt lat="45.35709" lon="4.58265">
        <ele>1041.8</ele>
        <time>2015-06-28T10:43:30.000Z</time>
      </trkpt>
      <trkpt lat="45.35727" lon="4.58256">
        <ele>1041.5</ele>
        <time>2015-06-28T10:43:40.000Z</time>
      </trkpt>
      <trkpt lat="45.35731" lon="4.58255">
        <ele>1041.6</ele>
        <time>2015-06-28T10:43:42.000Z</time>
      </trkpt>
      <trkpt lat="45.35749" lon="4.58249">
        <ele>1041.8</ele>
        <time>2015-06-28T10:43:49.000Z</time>
      </trkpt>
      <trkpt lat="45.35768" lon="4.5824">
        <ele>1041.3</ele>
        <time>2015-06-28T10:43:56.000Z</time>
      </trkpt>
      <trkpt lat="45.35789" lon="4.58232">
        <ele>1040.5</ele>
        <time>2015-06-28T10:44:02.000Z</time>
      </trkpt>
      <trkpt lat="45.3581" lon="4.58228">
        <ele>1040.1</ele>
        <time>2015-06-28T10:44:08.000Z</time>
      </trkpt>
      <trkpt lat="45.35829" lon="4.58225">
        <ele>1038.8</ele>
        <time>2015-06-28T10:44:12.000Z</time>
      </trkpt>
      <trkpt lat="45.35848" lon="4.58224">
        <ele>1038</ele>
        <time>2015-06-28T10:44:17.000Z</time>
      </trkpt>
      <trkpt lat="45.35866" lon="4.58229">
        <ele>1039.4</ele>
        <time>2015-06-28T10:44:26.000Z</time>
      </trkpt>
      <trkpt lat="45.35882" lon="4.58235">
        <ele>1041.9</ele>
        <time>2015-06-28T10:44:36.000Z</time>
      </trkpt>
      <trkpt lat="45.35897" lon="4.58222">
        <ele>1039.6</ele>
        <time>2015-06-28T10:44:47.000Z</time>
      </trkpt>
      <trkpt lat="45.35898" lon="4.58218">
        <ele>1039.8</ele>
        <time>2015-06-28T10:44:49.000Z</time>
      </trkpt>
      <trkpt lat="45.35897" lon="4.58213">
        <ele>1039.9</ele>
        <time>2015-06-28T10:44:51.000Z</time>
      </trkpt>
      <trkpt lat="45.35895" lon="4.58202">
        <ele>1039.9</ele>
        <time>2015-06-28T10:44:56.000Z</time>
      </trkpt>
      <trkpt lat="45.35889" lon="4.58188">
        <ele>1040.8</ele>
        <time>2015-06-28T10:45:03.000Z</time>
      </trkpt>
      <trkpt lat="45.35884" lon="4.58174">
        <ele>1043</ele>
        <time>2015-06-28T10:45:10.000Z</time>
      </trkpt>
      <trkpt lat="45.35873" lon="4.58151">
        <ele>1045.3</ele>
        <time>2015-06-28T10:45:21.000Z</time>
      </trkpt>
      <trkpt lat="45.35861" lon="4.5813">
        <ele>1046.5</ele>
        <time>2015-06-28T10:45:29.000Z</time>
      </trkpt>
      <trkpt lat="45.35851" lon="4.58107">
        <ele>1048</ele>
        <time>2015-06-28T10:45:39.000Z</time>
      </trkpt>
      <trkpt lat="45.35846" lon="4.5808">
        <ele>1048.4</ele>
        <time>2015-06-28T10:45:49.000Z</time>
      </trkpt>
      <trkpt lat="45.3585" lon="4.58053">
        <ele>1050.8</ele>
        <time>2015-06-28T10:45:59.000Z</time>
      </trkpt>
      <trkpt lat="45.35851" lon="4.58025">
        <ele>1052</ele>
        <time>2015-06-28T10:46:09.000Z</time>
      </trkpt>
      <trkpt lat="45.35853" lon="4.57998">
        <ele>1054.4</ele>
        <time>2015-06-28T10:46:19.000Z</time>
      </trkpt>
      <trkpt lat="45.35853" lon="4.5797">
        <ele>1056.3</ele>
        <time>2015-06-28T10:46:29.000Z</time>
      </trkpt>
      <trkpt lat="45.35852" lon="4.57943">
        <ele>1057.1</ele>
        <time>2015-06-28T10:46:38.000Z</time>
      </trkpt>
      <trkpt lat="45.35853" lon="4.57916">
        <ele>1058</ele>
        <time>2015-06-28T10:46:48.000Z</time>
      </trkpt>
      <trkpt lat="45.35852" lon="4.57888">
        <ele>1058.8</ele>
        <time>2015-06-28T10:46:57.000Z</time>
      </trkpt>
      <trkpt lat="45.35849" lon="4.57862">
        <ele>1060.4</ele>
        <time>2015-06-28T10:47:06.000Z</time>
      </trkpt>
      <trkpt lat="45.35847" lon="4.57834">
        <ele>1061.9</ele>
        <time>2015-06-28T10:47:16.000Z</time>
      </trkpt>
      <trkpt lat="45.35849" lon="4.57807">
        <ele>1064.7</ele>
        <time>2015-06-28T10:47:26.000Z</time>
      </trkpt>
      <trkpt lat="45.35851" lon="4.57781">
        <ele>1067.3</ele>
        <time>2015-06-28T10:47:35.000Z</time>
      </trkpt>
      <trkpt lat="45.35853" lon="4.57753">
        <ele>1069.2</ele>
        <time>2015-06-28T10:47:45.000Z</time>
      </trkpt>
      <trkpt lat="45.35853" lon="4.57751">
        <ele>1069.2</ele>
        <time>2015-06-28T10:47:46.000Z</time>
      </trkpt>
      <trkpt lat="45.35853" lon="4.57724">
        <ele>1070.2</ele>
        <time>2015-06-28T10:47:55.000Z</time>
      </trkpt>
      <trkpt lat="45.35851" lon="4.57697">
        <ele>1071.4</ele>
        <time>2015-06-28T10:48:04.000Z</time>
      </trkpt>
      <trkpt lat="45.35846" lon="4.57671">
        <ele>1070.8</ele>
        <time>2015-06-28T10:48:12.000Z</time>
      </trkpt>
      <trkpt lat="45.35839" lon="4.57646">
        <ele>1071.1</ele>
        <time>2015-06-28T10:48:21.000Z</time>
      </trkpt>
      <trkpt lat="45.35831" lon="4.57621">
        <ele>1072.2</ele>
        <time>2015-06-28T10:48:31.000Z</time>
      </trkpt>
      <trkpt lat="45.35833" lon="4.57596">
        <ele>1073.5</ele>
        <time>2015-06-28T10:48:41.000Z</time>
      </trkpt>
      <trkpt lat="45.35836" lon="4.57569">
        <ele>1074.1</ele>
        <time>2015-06-28T10:48:51.000Z</time>
      </trkpt>
      <trkpt lat="45.35841" lon="4.5754">
        <ele>1073.7</ele>
        <time>2015-06-28T10:48:57.000Z</time>
      </trkpt>
      <trkpt lat="45.3585" lon="4.57511">
        <ele>1072.4</ele>
        <time>2015-06-28T10:49:02.000Z</time>
      </trkpt>
      <trkpt lat="45.35857" lon="4.57482">
        <ele>1070.6</ele>
        <time>2015-06-28T10:49:06.000Z</time>
      </trkpt>
      <trkpt lat="45.35861" lon="4.57456">
        <ele>1068.3</ele>
        <time>2015-06-28T10:49:09.000Z</time>
      </trkpt>
      <trkpt lat="45.35864" lon="4.57449">
        <ele>1067.7</ele>
        <time>2015-06-28T10:49:10.000Z</time>
      </trkpt>
      <trkpt lat="45.35872" lon="4.5743">
        <ele>1066.2</ele>
        <time>2015-06-28T10:49:14.000Z</time>
      </trkpt>
      <trkpt lat="45.35875" lon="4.57427">
        <ele>1066.1</ele>
        <time>2015-06-28T10:49:15.000Z</time>
      </trkpt>
      <trkpt lat="45.35889" lon="4.5741">
        <ele>1065.1</ele>
        <time>2015-06-28T10:49:20.000Z</time>
      </trkpt>
      <trkpt lat="45.35904" lon="4.57391">
        <ele>1063.9</ele>
        <time>2015-06-28T10:49:24.000Z</time>
      </trkpt>
      <trkpt lat="45.35911" lon="4.57382">
        <ele>1063.4</ele>
        <time>2015-06-28T10:49:26.000Z</time>
      </trkpt>
      <trkpt lat="45.35926" lon="4.57363">
        <ele>1062.3</ele>
        <time>2015-06-28T10:49:31.000Z</time>
      </trkpt>
      <trkpt lat="45.35942" lon="4.57342">
        <ele>1061</ele>
        <time>2015-06-28T10:49:36.000Z</time>
      </trkpt>
      <trkpt lat="45.35961" lon="4.57323">
        <ele>1059.9</ele>
        <time>2015-06-28T10:49:41.000Z</time>
      </trkpt>
      <trkpt lat="45.35964" lon="4.57318">
        <ele>1059.3</ele>
        <time>2015-06-28T10:49:42.000Z</time>
      </trkpt>
      <trkpt lat="45.35976" lon="4.57297">
        <ele>1056.7</ele>
        <time>2015-06-28T10:49:48.000Z</time>
      </trkpt>
      <trkpt lat="45.35992" lon="4.57286">
        <ele>1056.4</ele>
        <time>2015-06-28T10:49:53.000Z</time>
      </trkpt>
      <trkpt lat="45.36006" lon="4.57283">
        <ele>1056.8</ele>
        <time>2015-06-28T10:49:56.000Z</time>
      </trkpt>
      <trkpt lat="45.36025" lon="4.57282">
        <ele>1056.8</ele>
        <time>2015-06-28T10:50:00.000Z</time>
      </trkpt>
      <trkpt lat="45.36028" lon="4.5728">
        <ele>1056.6</ele>
        <time>2015-06-28T10:50:01.000Z</time>
      </trkpt>
      <trkpt lat="45.3605" lon="4.57272">
        <ele>1056.4</ele>
        <time>2015-06-28T10:50:06.000Z</time>
      </trkpt>
      <trkpt lat="45.36068" lon="4.57267">
        <ele>1056.3</ele>
        <time>2015-06-28T10:50:10.000Z</time>
      </trkpt>
      <trkpt lat="45.36073" lon="4.57265">
        <ele>1056.3</ele>
        <time>2015-06-28T10:50:11.000Z</time>
      </trkpt>
      <trkpt lat="45.36078" lon="4.57263">
        <ele>1056</ele>
        <time>2015-06-28T10:50:12.000Z</time>
      </trkpt>
      <trkpt lat="45.36097" lon="4.57257">
        <ele>1055.3</ele>
        <time>2015-06-28T10:50:16.000Z</time>
      </trkpt>
      <trkpt lat="45.36101" lon="4.57255">
        <ele>1054.9</ele>
        <time>2015-06-28T10:50:17.000Z</time>
      </trkpt>
      <trkpt lat="45.36117" lon="4.57246">
        <ele>1052.6</ele>
        <time>2015-06-28T10:50:21.000Z</time>
      </trkpt>
      <trkpt lat="45.36138" lon="4.57239">
        <ele>1050.6</ele>
        <time>2015-06-28T10:50:27.000Z</time>
      </trkpt>
      <trkpt lat="45.36151" lon="4.57232">
        <ele>1048.6</ele>
        <time>2015-06-28T10:50:31.000Z</time>
      </trkpt>
      <trkpt lat="45.36158" lon="4.57229">
        <ele>1048</ele>
        <time>2015-06-28T10:50:33.000Z</time>
      </trkpt>
      <trkpt lat="45.36178" lon="4.57219">
        <ele>1045.8</ele>
        <time>2015-06-28T10:50:39.000Z</time>
      </trkpt>
      <trkpt lat="45.36197" lon="4.5721">
        <ele>1044.6</ele>
        <time>2015-06-28T10:50:45.000Z</time>
      </trkpt>
      <trkpt lat="45.36215" lon="4.57201">
        <ele>1042.1</ele>
        <time>2015-06-28T10:50:53.000Z</time>
      </trkpt>
      <trkpt lat="45.36229" lon="4.57186">
        <ele>1037.6</ele>
        <time>2015-06-28T10:50:59.000Z</time>
      </trkpt>
      <trkpt lat="45.3623" lon="4.57168">
        <ele>1032.1</ele>
        <time>2015-06-28T10:51:05.000Z</time>
      </trkpt>
      <trkpt lat="45.36216" lon="4.57154">
        <ele>1030.8</ele>
        <time>2015-06-28T10:51:17.000Z</time>
      </trkpt>
      <trkpt lat="45.36212" lon="4.5715">
        <ele>1030.3</ele>
        <time>2015-06-28T10:51:21.000Z</time>
      </trkpt>
      <trkpt lat="45.362" lon="4.57133">
        <ele>1029.7</ele>
        <time>2015-06-28T10:51:37.000Z</time>
      </trkpt>
      <trkpt lat="45.36199" lon="4.57125">
        <ele>1031.6</ele>
        <time>2015-06-28T10:51:42.000Z</time>
      </trkpt>
      <trkpt lat="45.36195" lon="4.57115">
        <ele>1033.2</ele>
        <time>2015-06-28T10:51:46.000Z</time>
      </trkpt>
      <trkpt lat="45.36187" lon="4.57108">
        <ele>1033.8</ele>
        <time>2015-06-28T10:51:52.000Z</time>
      </trkpt>
      <trkpt lat="45.3618" lon="4.57097">
        <ele>1036.4</ele>
        <time>2015-06-28T10:52:02.000Z</time>
      </trkpt>
      <trkpt lat="45.36168" lon="4.57078">
        <ele>1039.8</ele>
        <time>2015-06-28T10:52:14.000Z</time>
      </trkpt>
      <trkpt lat="45.36161" lon="4.57052">
        <ele>1044.2</ele>
        <time>2015-06-28T10:52:26.000Z</time>
      </trkpt>
      <trkpt lat="45.3616" lon="4.57026">
        <ele>1045.4</ele>
        <time>2015-06-28T10:52:37.000Z</time>
      </trkpt>
      <trkpt lat="45.36161" lon="4.57024">
        <ele>1045.6</ele>
        <time>2015-06-28T10:52:38.000Z</time>
      </trkpt>
      <trkpt lat="45.36166" lon="4.57009">
        <ele>1046.5</ele>
        <time>2015-06-28T10:52:44.000Z</time>
      </trkpt>
      <trkpt lat="45.36179" lon="4.5699">
        <ele>1049.2</ele>
        <time>2015-06-28T10:52:55.000Z</time>
      </trkpt>
      <trkpt lat="45.36179" lon="4.56989">
        <ele>1049.3</ele>
        <time>2015-06-28T10:52:56.000Z</time>
      </trkpt>
      <trkpt lat="45.36191" lon="4.56968">
        <ele>1051.1</ele>
        <time>2015-06-28T10:53:09.000Z</time>
      </trkpt>
      <trkpt lat="45.36198" lon="4.56958">
        <ele>1052</ele>
        <time>2015-06-28T10:53:16.000Z</time>
      </trkpt>
      <trkpt lat="45.36202" lon="4.56953">
        <ele>1052.6</ele>
        <time>2015-06-28T10:53:20.000Z</time>
      </trkpt>
      <trkpt lat="45.36217" lon="4.56937">
        <ele>1055.2</ele>
        <time>2015-06-28T10:53:34.000Z</time>
      </trkpt>
      <trkpt lat="45.3622" lon="4.56934">
        <ele>1055.7</ele>
        <time>2015-06-28T10:53:36.000Z</time>
      </trkpt>
      <trkpt lat="45.36234" lon="4.56916">
        <ele>1058.1</ele>
        <time>2015-06-28T10:53:48.000Z</time>
      </trkpt>
      <trkpt lat="45.36248" lon="4.56897">
        <ele>1060.4</ele>
        <time>2015-06-28T10:54:00.000Z</time>
      </trkpt>
      <trkpt lat="45.36263" lon="4.56878">
        <ele>1062.4</ele>
        <time>2015-06-28T10:54:11.000Z</time>
      </trkpt>
      <trkpt lat="45.36266" lon="4.56874">
        <ele>1062.8</ele>
        <time>2015-06-28T10:54:14.000Z</time>
      </trkpt>
      <trkpt lat="45.36276" lon="4.56864">
        <ele>1064.7</ele>
        <time>2015-06-28T10:54:21.000Z</time>
      </trkpt>
      <trkpt lat="45.36292" lon="4.5685">
        <ele>1067.2</ele>
        <time>2015-06-28T10:54:31.000Z</time>
      </trkpt>
      <trkpt lat="45.36308" lon="4.56835">
        <ele>1069.2</ele>
        <time>2015-06-28T10:54:41.000Z</time>
      </trkpt>
      <trkpt lat="45.36321" lon="4.56816">
        <ele>1070</ele>
        <time>2015-06-28T10:54:52.000Z</time>
      </trkpt>
      <trkpt lat="45.36337" lon="4.568">
        <ele>1072.2</ele>
        <time>2015-06-28T10:55:03.000Z</time>
      </trkpt>
      <trkpt lat="45.36349" lon="4.56779">
        <ele>1072.4</ele>
        <time>2015-06-28T10:55:14.000Z</time>
      </trkpt>
      <trkpt lat="45.36359" lon="4.56757">
        <ele>1072.5</ele>
        <time>2015-06-28T10:55:24.000Z</time>
      </trkpt>
      <trkpt lat="45.36364" lon="4.5673">
        <ele>1072.3</ele>
        <time>2015-06-28T10:55:31.000Z</time>
      </trkpt>
      <trkpt lat="45.36361" lon="4.56701">
        <ele>1069.5</ele>
        <time>2015-06-28T10:55:37.000Z</time>
      </trkpt>
      <trkpt lat="45.3635" lon="4.56673">
        <ele>1066.6</ele>
        <time>2015-06-28T10:55:41.000Z</time>
      </trkpt>
      <trkpt lat="45.36346" lon="4.56667">
        <ele>1065.7</ele>
        <time>2015-06-28T10:55:42.000Z</time>
      </trkpt>
      <trkpt lat="45.36333" lon="4.56649">
        <ele>1062.6</ele>
        <time>2015-06-28T10:55:48.000Z</time>
      </trkpt>
      <trkpt lat="45.36331" lon="4.56648">
        <ele>1062.5</ele>
        <time>2015-06-28T10:55:49.000Z</time>
      </trkpt>
      <trkpt lat="45.36322" lon="4.56652">
        <ele>1061.7</ele>
        <time>2015-06-28T10:55:53.000Z</time>
      </trkpt>
      <trkpt lat="45.36303" lon="4.56661">
        <ele>1060</ele>
        <time>2015-06-28T10:56:01.000Z</time>
      </trkpt>
      <trkpt lat="45.36286" lon="4.56673">
        <ele>1060.1</ele>
        <time>2015-06-28T10:56:08.000Z</time>
      </trkpt>
      <trkpt lat="45.36272" lon="4.56695">
        <ele>1057.5</ele>
        <time>2015-06-28T10:56:13.000Z</time>
      </trkpt>
      <trkpt lat="45.36268" lon="4.567">
        <ele>1057.1</ele>
        <time>2015-06-28T10:56:14.000Z</time>
      </trkpt>
      <trkpt lat="45.36255" lon="4.5672">
        <ele>1054.9</ele>
        <time>2015-06-28T10:56:20.000Z</time>
      </trkpt>
      <trkpt lat="45.36239" lon="4.56736">
        <ele>1053.4</ele>
        <time>2015-06-28T10:56:28.000Z</time>
      </trkpt>
      <trkpt lat="45.36221" lon="4.56746">
        <ele>1052</ele>
        <time>2015-06-28T10:56:33.000Z</time>
      </trkpt>
      <trkpt lat="45.362" lon="4.56758">
        <ele>1050.8</ele>
        <time>2015-06-28T10:56:37.000Z</time>
      </trkpt>
      <trkpt lat="45.36186" lon="4.56769">
        <ele>1048.5</ele>
        <time>2015-06-28T10:56:40.000Z</time>
      </trkpt>
      <trkpt lat="45.36167" lon="4.56786">
        <ele>1045.5</ele>
        <time>2015-06-28T10:56:44.000Z</time>
      </trkpt>
      <trkpt lat="45.36148" lon="4.56798">
        <ele>1044.9</ele>
        <time>2015-06-28T10:56:48.000Z</time>
      </trkpt>
      <trkpt lat="45.36135" lon="4.56805">
        <ele>1044.4</ele>
        <time>2015-06-28T10:56:51.000Z</time>
      </trkpt>
      <trkpt lat="45.36117" lon="4.56813">
        <ele>1042.6</ele>
        <time>2015-06-28T10:56:55.000Z</time>
      </trkpt>
      <trkpt lat="45.36099" lon="4.56821">
        <ele>1041.7</ele>
        <time>2015-06-28T10:56:58.000Z</time>
      </trkpt>
      <trkpt lat="45.36079" lon="4.56836">
        <ele>1039.9</ele>
        <time>2015-06-28T10:57:02.000Z</time>
      </trkpt>
      <trkpt lat="45.36063" lon="4.5685">
        <ele>1038.6</ele>
        <time>2015-06-28T10:57:05.000Z</time>
      </trkpt>
      <trkpt lat="45.36045" lon="4.56865">
        <ele>1037.5</ele>
        <time>2015-06-28T10:57:08.000Z</time>
      </trkpt>
      <trkpt lat="45.36029" lon="4.5688">
        <ele>1035.5</ele>
        <time>2015-06-28T10:57:11.000Z</time>
      </trkpt>
      <trkpt lat="45.36013" lon="4.5689">
        <ele>1033.2</ele>
        <time>2015-06-28T10:57:14.000Z</time>
      </trkpt>
      <trkpt lat="45.36" lon="4.56898">
        <ele>1032.4</ele>
        <time>2015-06-28T10:57:17.000Z</time>
      </trkpt>
      <trkpt lat="45.35985" lon="4.56915">
        <ele>1029.3</ele>
        <time>2015-06-28T10:57:23.000Z</time>
      </trkpt>
      <trkpt lat="45.35974" lon="4.56934">
        <ele>1026.5</ele>
        <time>2015-06-28T10:57:27.000Z</time>
      </trkpt>
      <trkpt lat="45.35957" lon="4.56946">
        <ele>1024.7</ele>
        <time>2015-06-28T10:57:30.000Z</time>
      </trkpt>
      <trkpt lat="45.35937" lon="4.56952">
        <ele>1023.5</ele>
        <time>2015-06-28T10:57:33.000Z</time>
      </trkpt>
      <trkpt lat="45.35924" lon="4.56955">
        <ele>1022.6</ele>
        <time>2015-06-28T10:57:35.000Z</time>
      </trkpt>
      <trkpt lat="45.35905" lon="4.56956">
        <ele>1021.9</ele>
        <time>2015-06-28T10:57:39.000Z</time>
      </trkpt>
      <trkpt lat="45.35886" lon="4.56956">
        <ele>1021.4</ele>
        <time>2015-06-28T10:57:44.000Z</time>
      </trkpt>
      <trkpt lat="45.35865" lon="4.56957">
        <ele>1021.7</ele>
        <time>2015-06-28T10:57:50.000Z</time>
      </trkpt>
      <trkpt lat="45.35846" lon="4.56957">
        <ele>1022.1</ele>
        <time>2015-06-28T10:57:55.000Z</time>
      </trkpt>
      <trkpt lat="45.35828" lon="4.56957">
        <ele>1022.3</ele>
        <time>2015-06-28T10:58:00.000Z</time>
      </trkpt>
      <trkpt lat="45.35809" lon="4.56958">
        <ele>1022.2</ele>
        <time>2015-06-28T10:58:07.000Z</time>
      </trkpt>
      <trkpt lat="45.35801" lon="4.56951">
        <ele>1023.9</ele>
        <time>2015-06-28T10:58:13.000Z</time>
      </trkpt>
      <trkpt lat="45.3579" lon="4.56941">
        <ele>1026.2</ele>
        <time>2015-06-28T10:58:22.000Z</time>
      </trkpt>
      <trkpt lat="45.35779" lon="4.56935">
        <ele>1027.6</ele>
        <time>2015-06-28T10:58:32.000Z</time>
      </trkpt>
      <trkpt lat="45.35777" lon="4.56934">
        <ele>1028</ele>
        <time>2015-06-28T10:58:36.000Z</time>
      </trkpt>
      <trkpt lat="45.3576" lon="4.56922">
        <ele>1030.8</ele>
        <time>2015-06-28T10:58:53.000Z</time>
      </trkpt>
      <trkpt lat="45.35759" lon="4.56922">
        <ele>1030.6</ele>
        <time>2015-06-28T10:58:54.000Z</time>
      </trkpt>
      <trkpt lat="45.35749" lon="4.56917">
        <ele>1031.8</ele>
        <time>2015-06-28T10:59:01.000Z</time>
      </trkpt>
      <trkpt lat="45.35746" lon="4.56915">
        <ele>1032.1</ele>
        <time>2015-06-28T10:59:03.000Z</time>
      </trkpt>
      <trkpt lat="45.35729" lon="4.56904">
        <ele>1034.7</ele>
        <time>2015-06-28T10:59:15.000Z</time>
      </trkpt>
      <trkpt lat="45.3572" lon="4.56898">
        <ele>1036</ele>
        <time>2015-06-28T10:59:20.000Z</time>
      </trkpt>
      <trkpt lat="45.35701" lon="4.56889">
        <ele>1036.9</ele>
        <time>2015-06-28T10:59:29.000Z</time>
      </trkpt>
      <trkpt lat="45.35693" lon="4.56887">
        <ele>1036.5</ele>
        <time>2015-06-28T10:59:35.000Z</time>
      </trkpt>
      <trkpt lat="45.35675" lon="4.56884">
        <ele>1036.2</ele>
        <time>2015-06-28T10:59:47.000Z</time>
      </trkpt>
      <trkpt lat="45.35653" lon="4.56877">
        <ele>1036.6</ele>
        <time>2015-06-28T10:59:54.000Z</time>
      </trkpt>
      <trkpt lat="45.35635" lon="4.56865">
        <ele>1038.6</ele>
        <time>2015-06-28T10:59:59.000Z</time>
      </trkpt>
      <trkpt lat="45.35617" lon="4.56855">
        <ele>1041.2</ele>
        <time>2015-06-28T11:00:06.000Z</time>
      </trkpt>
      <trkpt lat="45.35599" lon="4.56845">
        <ele>1043.6</ele>
        <time>2015-06-28T11:00:14.000Z</time>
      </trkpt>
      <trkpt lat="45.35583" lon="4.56832">
        <ele>1046.5</ele>
        <time>2015-06-28T11:00:25.000Z</time>
      </trkpt>
      <trkpt lat="45.35575" lon="4.56826">
        <ele>1047.9</ele>
        <time>2015-06-28T11:00:31.000Z</time>
      </trkpt>
      <trkpt lat="45.3557" lon="4.56823">
        <ele>1048.4</ele>
        <time>2015-06-28T11:02:17.000Z</time>
      </trkpt>
      <trkpt lat="45.35553" lon="4.56808">
        <ele>1051.8</ele>
        <time>2015-06-28T11:02:32.000Z</time>
      </trkpt>
      <trkpt lat="45.35547" lon="4.56805">
        <ele>1052.2</ele>
        <time>2015-06-28T11:02:36.000Z</time>
      </trkpt>
      <trkpt lat="45.35535" lon="4.56789">
        <ele>1055.1</ele>
        <time>2015-06-28T11:02:49.000Z</time>
      </trkpt>
      <trkpt lat="45.3553" lon="4.56783">
        <ele>1056</ele>
        <time>2015-06-28T11:02:53.000Z</time>
      </trkpt>
      <trkpt lat="45.35516" lon="4.56765">
        <ele>1058.5</ele>
        <time>2015-06-28T11:03:06.000Z</time>
      </trkpt>
      <trkpt lat="45.35502" lon="4.56748">
        <ele>1060.9</ele>
        <time>2015-06-28T11:03:20.000Z</time>
      </trkpt>
      <trkpt lat="45.355" lon="4.56746">
        <ele>1061.2</ele>
        <time>2015-06-28T11:03:22.000Z</time>
      </trkpt>
      <trkpt lat="45.35494" lon="4.56739">
        <ele>1062</ele>
        <time>2015-06-28T11:03:29.000Z</time>
      </trkpt>
      <trkpt lat="45.35492" lon="4.56739">
        <ele>1061.9</ele>
        <time>2015-06-28T11:03:31.000Z</time>
      </trkpt>
      <trkpt lat="45.3549" lon="4.56735">
        <ele>1062.7</ele>
        <time>2015-06-28T11:03:35.000Z</time>
      </trkpt>
      <trkpt lat="45.35476" lon="4.56717">
        <ele>1065.8</ele>
        <time>2015-06-28T11:03:52.000Z</time>
      </trkpt>
      <trkpt lat="45.35459" lon="4.56702">
        <ele>1067.1</ele>
        <time>2015-06-28T11:04:10.000Z</time>
      </trkpt>
      <trkpt lat="45.35446" lon="4.56686">
        <ele>1068.7</ele>
        <time>2015-06-28T11:04:20.000Z</time>
      </trkpt>
      <trkpt lat="45.35435" lon="4.56664">
        <ele>1069.8</ele>
        <time>2015-06-28T11:04:28.000Z</time>
      </trkpt>
      <trkpt lat="45.35423" lon="4.56641">
        <ele>1069.9</ele>
        <time>2015-06-28T11:04:36.000Z</time>
      </trkpt>
      <trkpt lat="45.35413" lon="4.56615">
        <ele>1071.4</ele>
        <time>2015-06-28T11:04:44.000Z</time>
      </trkpt>
      <trkpt lat="45.35403" lon="4.5659">
        <ele>1072.3</ele>
        <time>2015-06-28T11:04:50.000Z</time>
      </trkpt>
      <trkpt lat="45.35395" lon="4.56566">
        <ele>1072.7</ele>
        <time>2015-06-28T11:04:57.000Z</time>
      </trkpt>
      <trkpt lat="45.35393" lon="4.56549">
        <ele>1073.7</ele>
        <time>2015-06-28T11:05:03.000Z</time>
      </trkpt>
      <trkpt lat="45.35405" lon="4.56545">
        <ele>1077.3</ele>
        <time>2015-06-28T11:05:12.000Z</time>
      </trkpt>
      <trkpt lat="45.35407" lon="4.56544">
        <ele>1077.9</ele>
        <time>2015-06-28T11:05:14.000Z</time>
      </trkpt>
      <trkpt lat="45.35412" lon="4.56541">
        <ele>1079.4</ele>
        <time>2015-06-28T11:05:18.000Z</time>
      </trkpt>
      <trkpt lat="45.35418" lon="4.56531">
        <ele>1081.3</ele>
        <time>2015-06-28T11:05:24.000Z</time>
      </trkpt>
      <trkpt lat="45.35429" lon="4.56509">
        <ele>1085.1</ele>
        <time>2015-06-28T11:05:38.000Z</time>
      </trkpt>
      <trkpt lat="45.35429" lon="4.56508">
        <ele>1085.3</ele>
        <time>2015-06-28T11:05:39.000Z</time>
      </trkpt>
      <trkpt lat="45.35441" lon="4.56489">
        <ele>1089.1</ele>
        <time>2015-06-28T11:05:54.000Z</time>
      </trkpt>
      <trkpt lat="45.35442" lon="4.56486">
        <ele>1089.3</ele>
        <time>2015-06-28T11:05:56.000Z</time>
      </trkpt>
      <trkpt lat="45.3545" lon="4.56474">
        <ele>1091.7</ele>
        <time>2015-06-28T11:06:07.000Z</time>
      </trkpt>
      <trkpt lat="45.35457" lon="4.5647">
        <ele>1093.6</ele>
        <time>2015-06-28T11:06:13.000Z</time>
      </trkpt>
      <trkpt lat="45.35459" lon="4.56468">
        <ele>1094</ele>
        <time>2015-06-28T11:06:15.000Z</time>
      </trkpt>
      <trkpt lat="45.3547" lon="4.56461">
        <ele>1096.8</ele>
        <time>2015-06-28T11:06:24.000Z</time>
      </trkpt>
      <trkpt lat="45.35478" lon="4.56452">
        <ele>1098.8</ele>
        <time>2015-06-28T11:06:33.000Z</time>
      </trkpt>
      <trkpt lat="45.35495" lon="4.5644">
        <ele>1102.5</ele>
        <time>2015-06-28T11:06:47.000Z</time>
      </trkpt>
      <trkpt lat="45.35509" lon="4.56427">
        <ele>1105.8</ele>
        <time>2015-06-28T11:07:00.000Z</time>
      </trkpt>
      <trkpt lat="45.35518" lon="4.56423">
        <ele>1107.9</ele>
        <time>2015-06-28T11:07:07.000Z</time>
      </trkpt>
      <trkpt lat="45.35535" lon="4.56412">
        <ele>1112</ele>
        <time>2015-06-28T11:07:20.000Z</time>
      </trkpt>
      <trkpt lat="45.3555" lon="4.56394">
        <ele>1115.5</ele>
        <time>2015-06-28T11:07:36.000Z</time>
      </trkpt>
      <trkpt lat="45.35565" lon="4.56381">
        <ele>1119</ele>
        <time>2015-06-28T11:07:51.000Z</time>
      </trkpt>
      <trkpt lat="45.35569" lon="4.56369">
        <ele>1119.6</ele>
        <time>2015-06-28T11:07:58.000Z</time>
      </trkpt>
      <trkpt lat="45.3558" lon="4.56349">
        <ele>1121.4</ele>
        <time>2015-06-28T11:08:12.000Z</time>
      </trkpt>
      <trkpt lat="45.35597" lon="4.56339">
        <ele>1124</ele>
        <time>2015-06-28T11:08:27.000Z</time>
      </trkpt>
      <trkpt lat="45.35614" lon="4.56328">
        <ele>1125.9</ele>
        <time>2015-06-28T11:08:40.000Z</time>
      </trkpt>
      <trkpt lat="45.35624" lon="4.56326">
        <ele>1127.1</ele>
        <time>2015-06-28T11:08:46.000Z</time>
      </trkpt>
      <trkpt lat="45.35631" lon="4.56324">
        <ele>1128</ele>
        <time>2015-06-28T11:08:52.000Z</time>
      </trkpt>
      <trkpt lat="45.3565" lon="4.5632">
        <ele>1130.2</ele>
        <time>2015-06-28T11:09:03.000Z</time>
      </trkpt>
      <trkpt lat="45.35668" lon="4.56306">
        <ele>1131.2</ele>
        <time>2015-06-28T11:09:16.000Z</time>
      </trkpt>
      <trkpt lat="45.35686" lon="4.56295">
        <ele>1132.9</ele>
        <time>2015-06-28T11:09:28.000Z</time>
      </trkpt>
      <trkpt lat="45.35703" lon="4.56285">
        <ele>1134.4</ele>
        <time>2015-06-28T11:09:38.000Z</time>
      </trkpt>
      <trkpt lat="45.35719" lon="4.56272">
        <ele>1134.9</ele>
        <time>2015-06-28T11:09:48.000Z</time>
      </trkpt>
      <trkpt lat="45.35734" lon="4.56256">
        <ele>1138.6</ele>
        <time>2015-06-28T11:09:59.000Z</time>
      </trkpt>
      <trkpt lat="45.3575" lon="4.56242">
        <ele>1141.1</ele>
        <time>2015-06-28T11:10:10.000Z</time>
      </trkpt>
      <trkpt lat="45.35766" lon="4.56231">
        <ele>1142.7</ele>
        <time>2015-06-28T11:10:21.000Z</time>
      </trkpt>
      <trkpt lat="45.35783" lon="4.56221">
        <ele>1144.5</ele>
        <time>2015-06-28T11:10:31.000Z</time>
      </trkpt>
      <trkpt lat="45.35802" lon="4.56213">
        <ele>1145.9</ele>
        <time>2015-06-28T11:10:42.000Z</time>
      </trkpt>
      <trkpt lat="45.3582" lon="4.56207">
        <ele>1147.7</ele>
        <time>2015-06-28T11:10:52.000Z</time>
      </trkpt>
      <trkpt lat="45.35838" lon="4.56203">
        <ele>1149.3</ele>
        <time>2015-06-28T11:11:02.000Z</time>
      </trkpt>
      <trkpt lat="45.35857" lon="4.56199">
        <ele>1150.2</ele>
        <time>2015-06-28T11:11:12.000Z</time>
      </trkpt>
      <trkpt lat="45.35876" lon="4.56194">
        <ele>1151.6</ele>
        <time>2015-06-28T11:11:22.000Z</time>
      </trkpt>
      <trkpt lat="45.35895" lon="4.56185">
        <ele>1153.5</ele>
        <time>2015-06-28T11:11:32.000Z</time>
      </trkpt>
      <trkpt lat="45.35912" lon="4.56175">
        <ele>1155</ele>
        <time>2015-06-28T11:11:42.000Z</time>
      </trkpt>
      <trkpt lat="45.3593" lon="4.56163">
        <ele>1156.2</ele>
        <time>2015-06-28T11:11:52.000Z</time>
      </trkpt>
      <trkpt lat="45.35947" lon="4.56153">
        <ele>1157.2</ele>
        <time>2015-06-28T11:12:02.000Z</time>
      </trkpt>
      <trkpt lat="45.35964" lon="4.56141">
        <ele>1158.2</ele>
        <time>2015-06-28T11:12:12.000Z</time>
      </trkpt>
      <trkpt lat="45.35981" lon="4.56128">
        <ele>1159.2</ele>
        <time>2015-06-28T11:12:21.000Z</time>
      </trkpt>
      <trkpt lat="45.35996" lon="4.56113">
        <ele>1159.8</ele>
        <time>2015-06-28T11:12:30.000Z</time>
      </trkpt>
      <trkpt lat="45.36011" lon="4.56098">
        <ele>1160.7</ele>
        <time>2015-06-28T11:12:39.000Z</time>
      </trkpt>
      <trkpt lat="45.36027" lon="4.56083">
        <ele>1161.9</ele>
        <time>2015-06-28T11:12:49.000Z</time>
      </trkpt>
      <trkpt lat="45.36043" lon="4.56069">
        <ele>1162.9</ele>
        <time>2015-06-28T11:12:58.000Z</time>
      </trkpt>
      <trkpt lat="45.36059" lon="4.56056">
        <ele>1164.1</ele>
        <time>2015-06-28T11:13:07.000Z</time>
      </trkpt>
      <trkpt lat="45.36074" lon="4.56042">
        <ele>1164.5</ele>
        <time>2015-06-28T11:13:16.000Z</time>
      </trkpt>
      <trkpt lat="45.36089" lon="4.56024">
        <ele>1165.2</ele>
        <time>2015-06-28T11:13:25.000Z</time>
      </trkpt>
      <trkpt lat="45.36104" lon="4.56005">
        <ele>1165.7</ele>
        <time>2015-06-28T11:13:34.000Z</time>
      </trkpt>
      <trkpt lat="45.36118" lon="4.55986">
        <ele>1166.4</ele>
        <time>2015-06-28T11:13:43.000Z</time>
      </trkpt>
      <trkpt lat="45.36132" lon="4.55968">
        <ele>1167.6</ele>
        <time>2015-06-28T11:13:51.000Z</time>
      </trkpt>
      <trkpt lat="45.36141" lon="4.55945">
        <ele>1169.1</ele>
        <time>2015-06-28T11:14:00.000Z</time>
      </trkpt>
      <trkpt lat="45.36145" lon="4.55919">
        <ele>1170.1</ele>
        <time>2015-06-28T11:14:08.000Z</time>
      </trkpt>
      <trkpt lat="45.36153" lon="4.55893">
        <ele>1170.9</ele>
        <time>2015-06-28T11:14:17.000Z</time>
      </trkpt>
      <trkpt lat="45.36163" lon="4.55871">
        <ele>1172.9</ele>
        <time>2015-06-28T11:14:26.000Z</time>
      </trkpt>
      <trkpt lat="45.36173" lon="4.55848">
        <ele>1175.7</ele>
        <time>2015-06-28T11:14:38.000Z</time>
      </trkpt>
      <trkpt lat="45.36182" lon="4.55824">
        <ele>1178.2</ele>
        <time>2015-06-28T11:14:51.000Z</time>
      </trkpt>
      <trkpt lat="45.36183" lon="4.55822">
        <ele>1178.4</ele>
        <time>2015-06-28T11:14:52.000Z</time>
      </trkpt>
      <trkpt lat="45.36184" lon="4.55819">
        <ele>1178.7</ele>
        <time>2015-06-28T11:14:54.000Z</time>
      </trkpt>
      <trkpt lat="45.3619" lon="4.55794">
        <ele>1181.8</ele>
        <time>2015-06-28T11:15:08.000Z</time>
      </trkpt>
      <trkpt lat="45.36193" lon="4.55769">
        <ele>1185.8</ele>
        <time>2015-06-28T11:15:21.000Z</time>
      </trkpt>
      <trkpt lat="45.36195" lon="4.55743">
        <ele>1188.6</ele>
        <time>2015-06-28T11:15:35.000Z</time>
      </trkpt>
      <trkpt lat="45.36199" lon="4.55717">
        <ele>1190.7</ele>
        <time>2015-06-28T11:15:50.000Z</time>
      </trkpt>
      <trkpt lat="45.36206" lon="4.55692">
        <ele>1192.6</ele>
        <time>2015-06-28T11:16:04.000Z</time>
      </trkpt>
      <trkpt lat="45.36207" lon="4.55689">
        <ele>1192.9</ele>
        <time>2015-06-28T11:16:06.000Z</time>
      </trkpt>
      <trkpt lat="45.36211" lon="4.55663">
        <ele>1194.1</ele>
        <time>2015-06-28T11:16:16.000Z</time>
      </trkpt>
      <trkpt lat="45.36212" lon="4.55638">
        <ele>1194.2</ele>
        <time>2015-06-28T11:16:24.000Z</time>
      </trkpt>
      <trkpt lat="45.36211" lon="4.55611">
        <ele>1195.7</ele>
        <time>2015-06-28T11:16:32.000Z</time>
      </trkpt>
      <trkpt lat="45.36214" lon="4.55583">
        <ele>1196.8</ele>
        <time>2015-06-28T11:16:40.000Z</time>
      </trkpt>
      <trkpt lat="45.36221" lon="4.55559">
        <ele>1197.9</ele>
        <time>2015-06-28T11:16:48.000Z</time>
      </trkpt>
      <trkpt lat="45.36232" lon="4.55537">
        <ele>1198.2</ele>
        <time>2015-06-28T11:16:56.000Z</time>
      </trkpt>
      <trkpt lat="45.36243" lon="4.55513">
        <ele>1199.1</ele>
        <time>2015-06-28T11:17:04.000Z</time>
      </trkpt>
      <trkpt lat="45.36253" lon="4.55492">
        <ele>1200</ele>
        <time>2015-06-28T11:17:10.000Z</time>
      </trkpt>
      <trkpt lat="45.36265" lon="4.55468">
        <ele>1200.4</ele>
        <time>2015-06-28T11:17:16.000Z</time>
      </trkpt>
      <trkpt lat="45.36276" lon="4.55448">
        <ele>1200.9</ele>
        <time>2015-06-28T11:17:21.000Z</time>
      </trkpt>
      <trkpt lat="45.36289" lon="4.55423">
        <ele>1201.4</ele>
        <time>2015-06-28T11:17:27.000Z</time>
      </trkpt>
      <trkpt lat="45.363" lon="4.55399">
        <ele>1202.1</ele>
        <time>2015-06-28T11:17:33.000Z</time>
      </trkpt>
      <trkpt lat="45.36311" lon="4.55375">
        <ele>1203.4</ele>
        <time>2015-06-28T11:17:39.000Z</time>
      </trkpt>
      <trkpt lat="45.36321" lon="4.5535">
        <ele>1204.4</ele>
        <time>2015-06-28T11:17:45.000Z</time>
      </trkpt>
      <trkpt lat="45.36333" lon="4.55327">
        <ele>1205.8</ele>
        <time>2015-06-28T11:17:52.000Z</time>
      </trkpt>
      <trkpt lat="45.36343" lon="4.55305">
        <ele>1207.5</ele>
        <time>2015-06-28T11:17:59.000Z</time>
      </trkpt>
      <trkpt lat="45.36354" lon="4.55283">
        <ele>1209.4</ele>
        <time>2015-06-28T11:18:07.000Z</time>
      </trkpt>
      <trkpt lat="45.36363" lon="4.55258">
        <ele>1210.3</ele>
        <time>2015-06-28T11:18:15.000Z</time>
      </trkpt>
      <trkpt lat="45.36372" lon="4.55234">
        <ele>1212</ele>
        <time>2015-06-28T11:18:23.000Z</time>
      </trkpt>
      <trkpt lat="45.36376" lon="4.55228">
        <ele>1213.1</ele>
        <time>2015-06-28T11:18:26.000Z</time>
      </trkpt>
      <trkpt lat="45.36382" lon="4.5522">
        <ele>1214.5</ele>
        <time>2015-06-28T11:18:31.000Z</time>
      </trkpt>
      <trkpt lat="45.3639" lon="4.55196">
        <ele>1214.5</ele>
        <time>2015-06-28T11:18:38.000Z</time>
      </trkpt>
      <trkpt lat="45.36391" lon="4.55169">
        <ele>1216.7</ele>
        <time>2015-06-28T11:18:46.000Z</time>
      </trkpt>
      <trkpt lat="45.36395" lon="4.55142">
        <ele>1217.1</ele>
        <time>2015-06-28T11:18:57.000Z</time>
      </trkpt>
      <trkpt lat="45.364" lon="4.55116">
        <ele>1217.8</ele>
        <time>2015-06-28T11:19:05.000Z</time>
      </trkpt>
      <trkpt lat="45.36405" lon="4.55088">
        <ele>1218.9</ele>
        <time>2015-06-28T11:19:13.000Z</time>
      </trkpt>
      <trkpt lat="45.3641" lon="4.55061">
        <ele>1220.4</ele>
        <time>2015-06-28T11:19:20.000Z</time>
      </trkpt>
      <trkpt lat="45.36415" lon="4.55036">
        <ele>1221.5</ele>
        <time>2015-06-28T11:19:27.000Z</time>
      </trkpt>
      <trkpt lat="45.36421" lon="4.5501">
        <ele>1223.2</ele>
        <time>2015-06-28T11:19:35.000Z</time>
      </trkpt>
      <trkpt lat="45.36426" lon="4.54986">
        <ele>1224.2</ele>
        <time>2015-06-28T11:19:43.000Z</time>
      </trkpt>
      <trkpt lat="45.36434" lon="4.54961">
        <ele>1225.8</ele>
        <time>2015-06-28T11:19:52.000Z</time>
      </trkpt>
      <trkpt lat="45.36443" lon="4.54935">
        <ele>1227.8</ele>
        <time>2015-06-28T11:20:01.000Z</time>
      </trkpt>
      <trkpt lat="45.36451" lon="4.54912">
        <ele>1228.6</ele>
        <time>2015-06-28T11:20:09.000Z</time>
      </trkpt>
      <trkpt lat="45.36459" lon="4.54886">
        <ele>1228.4</ele>
        <time>2015-06-28T11:20:16.000Z</time>
      </trkpt>
      <trkpt lat="45.36466" lon="4.54862">
        <ele>1229.4</ele>
        <time>2015-06-28T11:20:22.000Z</time>
      </trkpt>
      <trkpt lat="45.36472" lon="4.54837">
        <ele>1230.9</ele>
        <time>2015-06-28T11:20:28.000Z</time>
      </trkpt>
      <trkpt lat="45.3648" lon="4.5481">
        <ele>1231.5</ele>
        <time>2015-06-28T11:20:35.000Z</time>
      </trkpt>
      <trkpt lat="45.3649" lon="4.54787">
        <ele>1232.4</ele>
        <time>2015-06-28T11:20:43.000Z</time>
      </trkpt>
      <trkpt lat="45.36502" lon="4.54766">
        <ele>1234.1</ele>
        <time>2015-06-28T11:20:52.000Z</time>
      </trkpt>
      <trkpt lat="45.36513" lon="4.54744">
        <ele>1234.8</ele>
        <time>2015-06-28T11:21:00.000Z</time>
      </trkpt>
      <trkpt lat="45.36522" lon="4.54722">
        <ele>1235.5</ele>
        <time>2015-06-28T11:21:07.000Z</time>
      </trkpt>
      <trkpt lat="45.36532" lon="4.54699">
        <ele>1235.3</ele>
        <time>2015-06-28T11:21:15.000Z</time>
      </trkpt>
      <trkpt lat="45.36541" lon="4.54678">
        <ele>1235</ele>
        <time>2015-06-28T11:21:21.000Z</time>
      </trkpt>
      <trkpt lat="45.36555" lon="4.54657">
        <ele>1235.7</ele>
        <time>2015-06-28T11:21:28.000Z</time>
      </trkpt>
      <trkpt lat="45.36568" lon="4.54638">
        <ele>1236.1</ele>
        <time>2015-06-28T11:21:34.000Z</time>
      </trkpt>
      <trkpt lat="45.36583" lon="4.54622">
        <ele>1236.5</ele>
        <time>2015-06-28T11:21:40.000Z</time>
      </trkpt>
      <trkpt lat="45.36597" lon="4.54605">
        <ele>1235.5</ele>
        <time>2015-06-28T11:21:46.000Z</time>
      </trkpt>
      <trkpt lat="45.36614" lon="4.54591">
        <ele>1235.1</ele>
        <time>2015-06-28T11:21:51.000Z</time>
      </trkpt>
      <trkpt lat="45.36633" lon="4.54581">
        <ele>1233.5</ele>
        <time>2015-06-28T11:21:56.000Z</time>
      </trkpt>
      <trkpt lat="45.36653" lon="4.54568">
        <ele>1231.9</ele>
        <time>2015-06-28T11:22:01.000Z</time>
      </trkpt>
      <trkpt lat="45.36673" lon="4.54552">
        <ele>1229.5</ele>
        <time>2015-06-28T11:22:07.000Z</time>
      </trkpt>
      <trkpt lat="45.36694" lon="4.54538">
        <ele>1227.9</ele>
        <time>2015-06-28T11:22:11.000Z</time>
      </trkpt>
      <trkpt lat="45.367" lon="4.54535">
        <ele>1227.5</ele>
        <time>2015-06-28T11:22:12.000Z</time>
      </trkpt>
      <trkpt lat="45.36717" lon="4.54524">
        <ele>1226.1</ele>
        <time>2015-06-28T11:22:15.000Z</time>
      </trkpt>
      <trkpt lat="45.36724" lon="4.54521">
        <ele>1225.9</ele>
        <time>2015-06-28T11:22:16.000Z</time>
      </trkpt>
      <trkpt lat="45.36746" lon="4.54514">
        <ele>1226.3</ele>
        <time>2015-06-28T11:22:20.000Z</time>
      </trkpt>
      <trkpt lat="45.36751" lon="4.54511">
        <ele>1226.1</ele>
        <time>2015-06-28T11:22:21.000Z</time>
      </trkpt>
      <trkpt lat="45.3677" lon="4.54502">
        <ele>1225.9</ele>
        <time>2015-06-28T11:22:25.000Z</time>
      </trkpt>
      <trkpt lat="45.36775" lon="4.54501">
        <ele>1226</ele>
        <time>2015-06-28T11:22:26.000Z</time>
      </trkpt>
      <trkpt lat="45.36792" lon="4.54495">
        <ele>1225.7</ele>
        <time>2015-06-28T11:22:30.000Z</time>
      </trkpt>
      <trkpt lat="45.36803" lon="4.54489">
        <ele>1224.9</ele>
        <time>2015-06-28T11:22:33.000Z</time>
      </trkpt>
      <trkpt lat="45.36817" lon="4.54482">
        <ele>1224.6</ele>
        <time>2015-06-28T11:22:37.000Z</time>
      </trkpt>
      <trkpt lat="45.36821" lon="4.5448">
        <ele>1224.4</ele>
        <time>2015-06-28T11:22:38.000Z</time>
      </trkpt>
      <trkpt lat="45.36838" lon="4.5447">
        <ele>1223.6</ele>
        <time>2015-06-28T11:22:45.000Z</time>
      </trkpt>
      <trkpt lat="45.36858" lon="4.54465">
        <ele>1223</ele>
        <time>2015-06-28T11:22:49.000Z</time>
      </trkpt>
      <trkpt lat="45.36876" lon="4.54461">
        <ele>1222.6</ele>
        <time>2015-06-28T11:22:55.000Z</time>
      </trkpt>
      <trkpt lat="45.36894" lon="4.5445">
        <ele>1221.7</ele>
        <time>2015-06-28T11:23:01.000Z</time>
      </trkpt>
      <trkpt lat="45.36907" lon="4.54435">
        <ele>1219.8</ele>
        <time>2015-06-28T11:23:04.000Z</time>
      </trkpt>
      <trkpt lat="45.36919" lon="4.54414">
        <ele>1217.9</ele>
        <time>2015-06-28T11:23:07.000Z</time>
      </trkpt>
      <trkpt lat="45.36924" lon="4.54407">
        <ele>1217.5</ele>
        <time>2015-06-28T11:23:08.000Z</time>
      </trkpt>
      <trkpt lat="45.36936" lon="4.54384">
        <ele>1216.5</ele>
        <time>2015-06-28T11:23:11.000Z</time>
      </trkpt>
      <trkpt lat="45.36942" lon="4.54368">
        <ele>1215.5</ele>
        <time>2015-06-28T11:23:13.000Z</time>
      </trkpt>
      <trkpt lat="45.36953" lon="4.54346">
        <ele>1214.7</ele>
        <time>2015-06-28T11:23:16.000Z</time>
      </trkpt>
      <trkpt lat="45.36969" lon="4.54323">
        <ele>1215.3</ele>
        <time>2015-06-28T11:23:20.000Z</time>
      </trkpt>
      <trkpt lat="45.36974" lon="4.54319">
        <ele>1215.6</ele>
        <time>2015-06-28T11:23:21.000Z</time>
      </trkpt>
      <trkpt lat="45.36982" lon="4.54302">
        <ele>1215.7</ele>
        <time>2015-06-28T11:23:25.000Z</time>
      </trkpt>
      <trkpt lat="45.36984" lon="4.54297">
        <ele>1215.7</ele>
        <time>2015-06-28T11:23:27.000Z</time>
      </trkpt>
      <trkpt lat="45.3699" lon="4.54287">
        <ele>1215.9</ele>
        <time>2015-06-28T11:23:32.000Z</time>
      </trkpt>
      <trkpt lat="45.37" lon="4.54263">
        <ele>1217.1</ele>
        <time>2015-06-28T11:23:40.000Z</time>
      </trkpt>
      <trkpt lat="45.37002" lon="4.54236">
        <ele>1218.3</ele>
        <time>2015-06-28T11:23:48.000Z</time>
      </trkpt>
      <trkpt lat="45.37004" lon="4.5421">
        <ele>1220</ele>
        <time>2015-06-28T11:23:56.000Z</time>
      </trkpt>
      <trkpt lat="45.37006" lon="4.54183">
        <ele>1221.5</ele>
        <time>2015-06-28T11:24:04.000Z</time>
      </trkpt>
      <trkpt lat="45.37003" lon="4.54157">
        <ele>1222.1</ele>
        <time>2015-06-28T11:24:12.000Z</time>
      </trkpt>
      <trkpt lat="45.36999" lon="4.54129">
        <ele>1223</ele>
        <time>2015-06-28T11:24:20.000Z</time>
      </trkpt>
      <trkpt lat="45.36995" lon="4.54103">
        <ele>1223.2</ele>
        <time>2015-06-28T11:24:26.000Z</time>
      </trkpt>
      <trkpt lat="45.36992" lon="4.54074">
        <ele>1223.3</ele>
        <time>2015-06-28T11:24:32.000Z</time>
      </trkpt>
      <trkpt lat="45.36995" lon="4.54046">
        <ele>1223.2</ele>
        <time>2015-06-28T11:24:38.000Z</time>
      </trkpt>
      <trkpt lat="45.37003" lon="4.54022">
        <ele>1223.1</ele>
        <time>2015-06-28T11:24:44.000Z</time>
      </trkpt>
      <trkpt lat="45.37008" lon="4.53996">
        <ele>1224.4</ele>
        <time>2015-06-28T11:24:52.000Z</time>
      </trkpt>
      <trkpt lat="45.37013" lon="4.5397">
        <ele>1225.8</ele>
        <time>2015-06-28T11:25:01.000Z</time>
      </trkpt>
      <trkpt lat="45.37016" lon="4.53944">
        <ele>1228.4</ele>
        <time>2015-06-28T11:25:11.000Z</time>
      </trkpt>
      <trkpt lat="45.37012" lon="4.53917">
        <ele>1231.3</ele>
        <time>2015-06-28T11:25:22.000Z</time>
      </trkpt>
      <trkpt lat="45.37008" lon="4.5389">
        <ele>1232.8</ele>
        <time>2015-06-28T11:25:34.000Z</time>
      </trkpt>
      <trkpt lat="45.37008" lon="4.53888">
        <ele>1232.9</ele>
        <time>2015-06-28T11:25:35.000Z</time>
      </trkpt>
      <trkpt lat="45.37002" lon="4.53861">
        <ele>1234.7</ele>
        <time>2015-06-28T11:25:45.000Z</time>
      </trkpt>
      <trkpt lat="45.36998" lon="4.53834">
        <ele>1235.1</ele>
        <time>2015-06-28T11:25:53.000Z</time>
      </trkpt>
      <trkpt lat="45.36997" lon="4.53808">
        <ele>1234.5</ele>
        <time>2015-06-28T11:25:58.000Z</time>
      </trkpt>
      <trkpt lat="45.36996" lon="4.53803">
        <ele>1234.4</ele>
        <time>2015-06-28T11:25:59.000Z</time>
      </trkpt>
      <trkpt lat="45.36996" lon="4.53775">
        <ele>1234.5</ele>
        <time>2015-06-28T11:26:04.000Z</time>
      </trkpt>
      <trkpt lat="45.36997" lon="4.53748">
        <ele>1235.2</ele>
        <time>2015-06-28T11:26:09.000Z</time>
      </trkpt>
      <trkpt lat="45.37001" lon="4.53721">
        <ele>1234.7</ele>
        <time>2015-06-28T11:26:14.000Z</time>
      </trkpt>
      <trkpt lat="45.37006" lon="4.53693">
        <ele>1234.3</ele>
        <time>2015-06-28T11:26:20.000Z</time>
      </trkpt>
      <trkpt lat="45.3701" lon="4.53664">
        <ele>1234.6</ele>
        <time>2015-06-28T11:26:26.000Z</time>
      </trkpt>
      <trkpt lat="45.37016" lon="4.53635">
        <ele>1234.9</ele>
        <time>2015-06-28T11:26:32.000Z</time>
      </trkpt>
      <trkpt lat="45.37023" lon="4.53612">
        <ele>1234.9</ele>
        <time>2015-06-28T11:26:38.000Z</time>
      </trkpt>
      <trkpt lat="45.37025" lon="4.53583">
        <ele>1236.4</ele>
        <time>2015-06-28T11:26:45.000Z</time>
      </trkpt>
      <trkpt lat="45.37028" lon="4.53555">
        <ele>1237</ele>
        <time>2015-06-28T11:26:51.000Z</time>
      </trkpt>
      <trkpt lat="45.37028" lon="4.53535">
        <ele>1237.7</ele>
        <time>2015-06-28T11:26:56.000Z</time>
      </trkpt>
      <trkpt lat="45.37022" lon="4.53511">
        <ele>1240.3</ele>
        <time>2015-06-28T11:27:05.000Z</time>
      </trkpt>
      <trkpt lat="45.37016" lon="4.53491">
        <ele>1242.6</ele>
        <time>2015-06-28T11:27:12.000Z</time>
      </trkpt>
      <trkpt lat="45.37013" lon="4.53485">
        <ele>1243.4</ele>
        <time>2015-06-28T11:27:15.000Z</time>
      </trkpt>
      <trkpt lat="45.37008" lon="4.53474">
        <ele>1244.7</ele>
        <time>2015-06-28T11:27:21.000Z</time>
      </trkpt>
      <trkpt lat="45.37" lon="4.53452">
        <ele>1246</ele>
        <time>2015-06-28T11:27:32.000Z</time>
      </trkpt>
      <trkpt lat="45.36994" lon="4.53425">
        <ele>1247.6</ele>
        <time>2015-06-28T11:27:44.000Z</time>
      </trkpt>
      <trkpt lat="45.36989" lon="4.534">
        <ele>1248</ele>
        <time>2015-06-28T11:27:54.000Z</time>
      </trkpt>
      <trkpt lat="45.3698" lon="4.53377">
        <ele>1247.7</ele>
        <time>2015-06-28T11:28:01.000Z</time>
      </trkpt>
      <trkpt lat="45.36967" lon="4.53355">
        <ele>1246.2</ele>
        <time>2015-06-28T11:28:08.000Z</time>
      </trkpt>
      <trkpt lat="45.36958" lon="4.53329">
        <ele>1243.8</ele>
        <time>2015-06-28T11:28:15.000Z</time>
      </trkpt>
      <trkpt lat="45.36949" lon="4.53304">
        <ele>1240.8</ele>
        <time>2015-06-28T11:28:23.000Z</time>
      </trkpt>
      <trkpt lat="45.36947" lon="4.53297">
        <ele>1239.9</ele>
        <time>2015-06-28T11:28:27.000Z</time>
      </trkpt>
      <trkpt lat="45.3694" lon="4.53273">
        <ele>1237.5</ele>
        <time>2015-06-28T11:28:39.000Z</time>
      </trkpt>
      <trkpt lat="45.36937" lon="4.53257">
        <ele>1237</ele>
        <time>2015-06-28T11:28:47.000Z</time>
      </trkpt>
      <trkpt lat="45.36932" lon="4.5323">
        <ele>1234.8</ele>
        <time>2015-06-28T11:28:55.000Z</time>
      </trkpt>
      <trkpt lat="45.36932" lon="4.53206">
        <ele>1233.1</ele>
        <time>2015-06-28T11:29:04.000Z</time>
      </trkpt>
      <trkpt lat="45.3693" lon="4.53198">
        <ele>1232.2</ele>
        <time>2015-06-28T11:29:08.000Z</time>
      </trkpt>
      <trkpt lat="45.36929" lon="4.53195">
        <ele>1231.8</ele>
        <time>2015-06-28T11:29:10.000Z</time>
      </trkpt>
      <trkpt lat="45.36926" lon="4.53186">
        <ele>1230.9</ele>
        <time>2015-06-28T11:29:15.000Z</time>
      </trkpt>
      <trkpt lat="45.36926" lon="4.53184">
        <ele>1230.8</ele>
        <time>2015-06-28T11:29:16.000Z</time>
      </trkpt>
      <trkpt lat="45.36923" lon="4.53159">
        <ele>1229.1</ele>
        <time>2015-06-28T11:29:29.000Z</time>
      </trkpt>
      <trkpt lat="45.36915" lon="4.53135">
        <ele>1226.6</ele>
        <time>2015-06-28T11:29:40.000Z</time>
      </trkpt>
      <trkpt lat="45.36915" lon="4.53133">
        <ele>1226.4</ele>
        <time>2015-06-28T11:29:41.000Z</time>
      </trkpt>
      <trkpt lat="45.36911" lon="4.53109">
        <ele>1224.4</ele>
        <time>2015-06-28T11:29:52.000Z</time>
      </trkpt>
      <trkpt lat="45.36907" lon="4.53096">
        <ele>1223</ele>
        <time>2015-06-28T11:29:58.000Z</time>
      </trkpt>
      <trkpt lat="45.36904" lon="4.53083">
        <ele>1221.6</ele>
        <time>2015-06-28T11:30:04.000Z</time>
      </trkpt>
      <trkpt lat="45.36906" lon="4.53058">
        <ele>1219.5</ele>
        <time>2015-06-28T11:30:15.000Z</time>
      </trkpt>
      <trkpt lat="45.36906" lon="4.53044">
        <ele>1218.2</ele>
        <time>2015-06-28T11:30:22.000Z</time>
      </trkpt>
      <trkpt lat="45.36904" lon="4.53033">
        <ele>1217.1</ele>
        <time>2015-06-28T11:30:28.000Z</time>
      </trkpt>
      <trkpt lat="45.36903" lon="4.53025">
        <ele>1216.3</ele>
        <time>2015-06-28T11:30:32.000Z</time>
      </trkpt>
      <trkpt lat="45.36891" lon="4.53004">
        <ele>1213.6</ele>
        <time>2015-06-28T11:30:45.000Z</time>
      </trkpt>
      <trkpt lat="45.36884" lon="4.52981">
        <ele>1211.3</ele>
        <time>2015-06-28T11:30:58.000Z</time>
      </trkpt>
      <trkpt lat="45.36883" lon="4.5298">
        <ele>1211.2</ele>
        <time>2015-06-28T11:30:59.000Z</time>
      </trkpt>
      <trkpt lat="45.36881" lon="4.52975">
        <ele>1210.6</ele>
        <time>2015-06-28T11:31:02.000Z</time>
      </trkpt>
      <trkpt lat="45.36875" lon="4.52948">
        <ele>1207.8</ele>
        <time>2015-06-28T11:31:15.000Z</time>
      </trkpt>
      <trkpt lat="45.36874" lon="4.52945">
        <ele>1207.6</ele>
        <time>2015-06-28T11:31:16.000Z</time>
      </trkpt>
      <trkpt lat="45.36869" lon="4.5292">
        <ele>1205.3</ele>
        <time>2015-06-28T11:31:27.000Z</time>
      </trkpt>
      <trkpt lat="45.36864" lon="4.52894">
        <ele>1202.6</ele>
        <time>2015-06-28T11:31:39.000Z</time>
      </trkpt>
      <trkpt lat="45.36859" lon="4.5287">
        <ele>1200.7</ele>
        <time>2015-06-28T11:31:51.000Z</time>
      </trkpt>
      <trkpt lat="45.36855" lon="4.52847">
        <ele>1199.4</ele>
        <time>2015-06-28T11:32:03.000Z</time>
      </trkpt>
      <trkpt lat="45.36844" lon="4.52825">
        <ele>1199</ele>
        <time>2015-06-28T11:32:19.000Z</time>
      </trkpt>
      <trkpt lat="45.36839" lon="4.52824">
        <ele>1199.4</ele>
        <time>2015-06-28T11:32:23.000Z</time>
      </trkpt>
      <trkpt lat="45.36828" lon="4.52804">
        <ele>1200.2</ele>
        <time>2015-06-28T11:32:39.000Z</time>
      </trkpt>
      <trkpt lat="45.36825" lon="4.52797">
        <ele>1200.5</ele>
        <time>2015-06-28T11:32:45.000Z</time>
      </trkpt>
    </trkseg>
  </trk>
</gpx>